<?xml version="1.0" encoding="UTF-8" standalone="no" ?>
<gpx xmlns="http://www.topografix.com/GPX/1/1" xmlns:xsi="http://www.w3.org/2001/XMLSchema-instance" xsi:schemaLocation="http://www.topografix.com/GPX/1/1 http://www.topografix.com/GPX/1/1/gpx.xsd" version="1.1" creator="VisuGPX - https://www.visugpx.com">
  <metadata>
    <name>Pass portes soleil 2013 </name>
    <desc><![CDATA[Soleil et grosse boue pour une première en DH !]]></desc>
  </metadata>
  <trk>
    <name><![CDATA[VTT dimanche 30 matin]]></name>
    <trkseg>
      <trkpt lat="46.14484" lon="6.69421">
        <ele>1612</ele>
        <time>2013-06-30T07:31:34Z</time>
      </trkpt>
      <trkpt lat="46.14485" lon="6.69421">
        <ele>1612</ele>
        <time>2013-06-30T07:31:40Z</time>
      </trkpt>
      <trkpt lat="46.14485" lon="6.69421">
        <ele>1612</ele>
        <time>2013-06-30T07:32:08Z</time>
      </trkpt>
      <trkpt lat="46.1448" lon="6.69432">
        <ele>1611</ele>
        <time>2013-06-30T07:32:12Z</time>
      </trkpt>
      <trkpt lat="46.14471" lon="6.69434">
        <ele>1611</ele>
        <time>2013-06-30T07:32:14Z</time>
      </trkpt>
      <trkpt lat="46.14442" lon="6.69431">
        <ele>1612</ele>
        <time>2013-06-30T07:32:20Z</time>
      </trkpt>
      <trkpt lat="46.14429" lon="6.69429">
        <ele>1612</ele>
        <time>2013-06-30T07:32:22Z</time>
      </trkpt>
      <trkpt lat="46.14416" lon="6.6943">
        <ele>1613</ele>
        <time>2013-06-30T07:32:24Z</time>
      </trkpt>
      <trkpt lat="46.144" lon="6.69423">
        <ele>1613</ele>
        <time>2013-06-30T07:32:27Z</time>
      </trkpt>
      <trkpt lat="46.14381" lon="6.69408">
        <ele>1606</ele>
        <time>2013-06-30T07:32:32Z</time>
      </trkpt>
      <trkpt lat="46.14372" lon="6.69405">
        <ele>1606</ele>
        <time>2013-06-30T07:32:35Z</time>
      </trkpt>
      <trkpt lat="46.14364" lon="6.69391">
        <ele>1605</ele>
        <time>2013-06-30T07:32:38Z</time>
      </trkpt>
      <trkpt lat="46.14368" lon="6.69375">
        <ele>1603</ele>
        <time>2013-06-30T07:32:40Z</time>
      </trkpt>
      <trkpt lat="46.14368" lon="6.6935">
        <ele>1601</ele>
        <time>2013-06-30T07:32:45Z</time>
      </trkpt>
      <trkpt lat="46.14366" lon="6.69331">
        <ele>1591</ele>
        <time>2013-06-30T07:32:48Z</time>
      </trkpt>
      <trkpt lat="46.14364" lon="6.69307">
        <ele>1589</ele>
        <time>2013-06-30T07:32:51Z</time>
      </trkpt>
      <trkpt lat="46.1436" lon="6.69295">
        <ele>1588</ele>
        <time>2013-06-30T07:32:54Z</time>
      </trkpt>
      <trkpt lat="46.14348" lon="6.69293">
        <ele>1587</ele>
        <time>2013-06-30T07:32:56Z</time>
      </trkpt>
      <trkpt lat="46.14328" lon="6.6929">
        <ele>1583</ele>
        <time>2013-06-30T07:32:59Z</time>
      </trkpt>
      <trkpt lat="46.14306" lon="6.69278">
        <ele>1582</ele>
        <time>2013-06-30T07:33:03Z</time>
      </trkpt>
      <trkpt lat="46.14278" lon="6.69279">
        <ele>1581</ele>
        <time>2013-06-30T07:33:07Z</time>
      </trkpt>
      <trkpt lat="46.14251" lon="6.69261">
        <ele>1577</ele>
        <time>2013-06-30T07:33:11Z</time>
      </trkpt>
      <trkpt lat="46.14241" lon="6.69246">
        <ele>1572</ele>
        <time>2013-06-30T07:33:13Z</time>
      </trkpt>
      <trkpt lat="46.14229" lon="6.69225">
        <ele>1571</ele>
        <time>2013-06-30T07:33:16Z</time>
      </trkpt>
      <trkpt lat="46.14207" lon="6.69198">
        <ele>1569</ele>
        <time>2013-06-30T07:33:20Z</time>
      </trkpt>
      <trkpt lat="46.14195" lon="6.69188">
        <ele>1569</ele>
        <time>2013-06-30T07:33:22Z</time>
      </trkpt>
      <trkpt lat="46.14179" lon="6.69174">
        <ele>1568</ele>
        <time>2013-06-30T07:33:25Z</time>
      </trkpt>
      <trkpt lat="46.14168" lon="6.69161">
        <ele>1564</ele>
        <time>2013-06-30T07:33:27Z</time>
      </trkpt>
      <trkpt lat="46.1415" lon="6.69125">
        <ele>1560</ele>
        <time>2013-06-30T07:33:31Z</time>
      </trkpt>
      <trkpt lat="46.14137" lon="6.69103">
        <ele>1558</ele>
        <time>2013-06-30T07:33:35Z</time>
      </trkpt>
      <trkpt lat="46.14122" lon="6.69075">
        <ele>1547</ele>
        <time>2013-06-30T07:33:40Z</time>
      </trkpt>
      <trkpt lat="46.14123" lon="6.69063">
        <ele>1546</ele>
        <time>2013-06-30T07:33:43Z</time>
      </trkpt>
      <trkpt lat="46.14121" lon="6.6906">
        <ele>1546</ele>
        <time>2013-06-30T07:33:46Z</time>
      </trkpt>
      <trkpt lat="46.14124" lon="6.69063">
        <ele>1546</ele>
        <time>2013-06-30T07:34:14Z</time>
      </trkpt>
      <trkpt lat="46.14124" lon="6.69063">
        <ele>1546</ele>
        <time>2013-06-30T07:34:39Z</time>
      </trkpt>
      <trkpt lat="46.14116" lon="6.69056">
        <ele>1546</ele>
        <time>2013-06-30T07:34:43Z</time>
      </trkpt>
      <trkpt lat="46.14106" lon="6.69056">
        <ele>1546</ele>
        <time>2013-06-30T07:34:46Z</time>
      </trkpt>
      <trkpt lat="46.14091" lon="6.6906">
        <ele>1548</ele>
        <time>2013-06-30T07:34:50Z</time>
      </trkpt>
      <trkpt lat="46.14073" lon="6.69066">
        <ele>1549</ele>
        <time>2013-06-30T07:34:54Z</time>
      </trkpt>
      <trkpt lat="46.14041" lon="6.69089">
        <ele>1558</ele>
        <time>2013-06-30T07:35:01Z</time>
      </trkpt>
      <trkpt lat="46.14021" lon="6.69102">
        <ele>1557</ele>
        <time>2013-06-30T07:35:06Z</time>
      </trkpt>
      <trkpt lat="46.14005" lon="6.6912">
        <ele>1559</ele>
        <time>2013-06-30T07:35:11Z</time>
      </trkpt>
      <trkpt lat="46.1399" lon="6.69137">
        <ele>1555</ele>
        <time>2013-06-30T07:35:18Z</time>
      </trkpt>
      <trkpt lat="46.13977" lon="6.69142">
        <ele>1555</ele>
        <time>2013-06-30T07:35:23Z</time>
      </trkpt>
      <trkpt lat="46.13969" lon="6.69148">
        <ele>1555</ele>
        <time>2013-06-30T07:35:28Z</time>
      </trkpt>
      <trkpt lat="46.13958" lon="6.69155">
        <ele>1554</ele>
        <time>2013-06-30T07:35:32Z</time>
      </trkpt>
      <trkpt lat="46.1394" lon="6.6918">
        <ele>1563</ele>
        <time>2013-06-30T07:35:36Z</time>
      </trkpt>
      <trkpt lat="46.13923" lon="6.69183">
        <ele>1561</ele>
        <time>2013-06-30T07:35:38Z</time>
      </trkpt>
      <trkpt lat="46.13892" lon="6.69168">
        <ele>1562</ele>
        <time>2013-06-30T07:35:42Z</time>
      </trkpt>
      <trkpt lat="46.13873" lon="6.69151">
        <ele>1551</ele>
        <time>2013-06-30T07:35:45Z</time>
      </trkpt>
      <trkpt lat="46.13861" lon="6.69144">
        <ele>1552</ele>
        <time>2013-06-30T07:35:47Z</time>
      </trkpt>
      <trkpt lat="46.13848" lon="6.69141">
        <ele>1552</ele>
        <time>2013-06-30T07:35:50Z</time>
      </trkpt>
      <trkpt lat="46.13822" lon="6.69132">
        <ele>1552</ele>
        <time>2013-06-30T07:35:56Z</time>
      </trkpt>
      <trkpt lat="46.13814" lon="6.69131">
        <ele>1551</ele>
        <time>2013-06-30T07:35:58Z</time>
      </trkpt>
      <trkpt lat="46.13802" lon="6.69127">
        <ele>1550</ele>
        <time>2013-06-30T07:36:01Z</time>
      </trkpt>
      <trkpt lat="46.13792" lon="6.69124">
        <ele>1550</ele>
        <time>2013-06-30T07:36:03Z</time>
      </trkpt>
      <trkpt lat="46.13783" lon="6.69124">
        <ele>1550</ele>
        <time>2013-06-30T07:36:05Z</time>
      </trkpt>
      <trkpt lat="46.13762" lon="6.69129">
        <ele>1550</ele>
        <time>2013-06-30T07:36:09Z</time>
      </trkpt>
      <trkpt lat="46.13725" lon="6.69148">
        <ele>1547</ele>
        <time>2013-06-30T07:36:15Z</time>
      </trkpt>
      <trkpt lat="46.13699" lon="6.69168">
        <ele>1555</ele>
        <time>2013-06-30T07:36:19Z</time>
      </trkpt>
      <trkpt lat="46.13657" lon="6.69188">
        <ele>1545</ele>
        <time>2013-06-30T07:36:25Z</time>
      </trkpt>
      <trkpt lat="46.13649" lon="6.69193">
        <ele>1545</ele>
        <time>2013-06-30T07:36:28Z</time>
      </trkpt>
      <trkpt lat="46.13627" lon="6.69189">
        <ele>1544</ele>
        <time>2013-06-30T07:36:33Z</time>
      </trkpt>
      <trkpt lat="46.13608" lon="6.69175">
        <ele>1542</ele>
        <time>2013-06-30T07:36:36Z</time>
      </trkpt>
      <trkpt lat="46.13601" lon="6.69163">
        <ele>1535</ele>
        <time>2013-06-30T07:36:38Z</time>
      </trkpt>
      <trkpt lat="46.13592" lon="6.69143">
        <ele>1534</ele>
        <time>2013-06-30T07:36:43Z</time>
      </trkpt>
      <trkpt lat="46.13585" lon="6.6915">
        <ele>1534</ele>
        <time>2013-06-30T07:36:45Z</time>
      </trkpt>
      <trkpt lat="46.13578" lon="6.69158">
        <ele>1533</ele>
        <time>2013-06-30T07:36:47Z</time>
      </trkpt>
      <trkpt lat="46.13561" lon="6.6915">
        <ele>1530</ele>
        <time>2013-06-30T07:36:51Z</time>
      </trkpt>
      <trkpt lat="46.13554" lon="6.69121">
        <ele>1528</ele>
        <time>2013-06-30T07:36:55Z</time>
      </trkpt>
      <trkpt lat="46.13555" lon="6.69096">
        <ele>1526</ele>
        <time>2013-06-30T07:36:58Z</time>
      </trkpt>
      <trkpt lat="46.13558" lon="6.69066">
        <ele>1517</ele>
        <time>2013-06-30T07:37:02Z</time>
      </trkpt>
      <trkpt lat="46.13559" lon="6.69062">
        <ele>1517</ele>
        <time>2013-06-30T07:37:03Z</time>
      </trkpt>
      <trkpt lat="46.13548" lon="6.69049">
        <ele>1516</ele>
        <time>2013-06-30T07:37:08Z</time>
      </trkpt>
      <trkpt lat="46.13533" lon="6.69036">
        <ele>1514</ele>
        <time>2013-06-30T07:37:12Z</time>
      </trkpt>
      <trkpt lat="46.13532" lon="6.69038">
        <ele>1515</ele>
        <time>2013-06-30T07:37:19Z</time>
      </trkpt>
      <trkpt lat="46.1353" lon="6.69037">
        <ele>1514</ele>
        <time>2013-06-30T07:37:24Z</time>
      </trkpt>
      <trkpt lat="46.13522" lon="6.69031">
        <ele>1514</ele>
        <time>2013-06-30T07:37:29Z</time>
      </trkpt>
      <trkpt lat="46.13505" lon="6.69023">
        <ele>1512</ele>
        <time>2013-06-30T07:37:35Z</time>
      </trkpt>
      <trkpt lat="46.13499" lon="6.69018">
        <ele>1510</ele>
        <time>2013-06-30T07:37:38Z</time>
      </trkpt>
      <trkpt lat="46.13499" lon="6.69017">
        <ele>1510</ele>
        <time>2013-06-30T07:37:39Z</time>
      </trkpt>
      <trkpt lat="46.13496" lon="6.69003">
        <ele>1509</ele>
        <time>2013-06-30T07:37:44Z</time>
      </trkpt>
      <trkpt lat="46.13492" lon="6.68987">
        <ele>1503</ele>
        <time>2013-06-30T07:37:48Z</time>
      </trkpt>
      <trkpt lat="46.13491" lon="6.68985">
        <ele>1503</ele>
        <time>2013-06-30T07:37:50Z</time>
      </trkpt>
      <trkpt lat="46.13479" lon="6.68985">
        <ele>1501</ele>
        <time>2013-06-30T07:37:55Z</time>
      </trkpt>
      <trkpt lat="46.13474" lon="6.68979">
        <ele>1500</ele>
        <time>2013-06-30T07:37:57Z</time>
      </trkpt>
      <trkpt lat="46.13466" lon="6.68964">
        <ele>1498</ele>
        <time>2013-06-30T07:38:02Z</time>
      </trkpt>
      <trkpt lat="46.13468" lon="6.68942">
        <ele>1496</ele>
        <time>2013-06-30T07:38:07Z</time>
      </trkpt>
      <trkpt lat="46.13461" lon="6.68928">
        <ele>1495</ele>
        <time>2013-06-30T07:38:12Z</time>
      </trkpt>
      <trkpt lat="46.13458" lon="6.68926">
        <ele>1495</ele>
        <time>2013-06-30T07:38:13Z</time>
      </trkpt>
      <trkpt lat="46.13443" lon="6.6892">
        <ele>1493</ele>
        <time>2013-06-30T07:38:19Z</time>
      </trkpt>
      <trkpt lat="46.13437" lon="6.68915">
        <ele>1485</ele>
        <time>2013-06-30T07:38:23Z</time>
      </trkpt>
      <trkpt lat="46.13441" lon="6.68907">
        <ele>1484</ele>
        <time>2013-06-30T07:38:45Z</time>
      </trkpt>
      <trkpt lat="46.13439" lon="6.68904">
        <ele>1484</ele>
        <time>2013-06-30T07:39:06Z</time>
      </trkpt>
      <trkpt lat="46.13439" lon="6.68885">
        <ele>1482</ele>
        <time>2013-06-30T07:39:11Z</time>
      </trkpt>
      <trkpt lat="46.13437" lon="6.68874">
        <ele>1481</ele>
        <time>2013-06-30T07:39:13Z</time>
      </trkpt>
      <trkpt lat="46.13422" lon="6.68849">
        <ele>1478</ele>
        <time>2013-06-30T07:39:18Z</time>
      </trkpt>
      <trkpt lat="46.13418" lon="6.68817">
        <ele>1470</ele>
        <time>2013-06-30T07:39:24Z</time>
      </trkpt>
      <trkpt lat="46.13421" lon="6.68798">
        <ele>1467</ele>
        <time>2013-06-30T07:39:29Z</time>
      </trkpt>
      <trkpt lat="46.13428" lon="6.68793">
        <ele>1466</ele>
        <time>2013-06-30T07:39:32Z</time>
      </trkpt>
      <trkpt lat="46.13428" lon="6.68791">
        <ele>1466</ele>
        <time>2013-06-30T07:39:33Z</time>
      </trkpt>
      <trkpt lat="46.13437" lon="6.68767">
        <ele>1463</ele>
        <time>2013-06-30T07:39:38Z</time>
      </trkpt>
      <trkpt lat="46.13446" lon="6.6874">
        <ele>1453</ele>
        <time>2013-06-30T07:39:44Z</time>
      </trkpt>
      <trkpt lat="46.1346" lon="6.6873">
        <ele>1452</ele>
        <time>2013-06-30T07:39:48Z</time>
      </trkpt>
      <trkpt lat="46.13481" lon="6.6872">
        <ele>1451</ele>
        <time>2013-06-30T07:39:53Z</time>
      </trkpt>
      <trkpt lat="46.13483" lon="6.68716">
        <ele>1451</ele>
        <time>2013-06-30T07:39:54Z</time>
      </trkpt>
      <trkpt lat="46.13466" lon="6.68683">
        <ele>1448</ele>
        <time>2013-06-30T07:39:58Z</time>
      </trkpt>
      <trkpt lat="46.13461" lon="6.68674">
        <ele>1447</ele>
        <time>2013-06-30T07:39:59Z</time>
      </trkpt>
      <trkpt lat="46.13445" lon="6.68658">
        <ele>1439</ele>
        <time>2013-06-30T07:40:03Z</time>
      </trkpt>
      <trkpt lat="46.13442" lon="6.68657">
        <ele>1440</ele>
        <time>2013-06-30T07:40:06Z</time>
      </trkpt>
      <trkpt lat="46.13438" lon="6.68654">
        <ele>1440</ele>
        <time>2013-06-30T07:40:19Z</time>
      </trkpt>
      <trkpt lat="46.13429" lon="6.68646">
        <ele>1440</ele>
        <time>2013-06-30T07:40:23Z</time>
      </trkpt>
      <trkpt lat="46.13416" lon="6.68632">
        <ele>1446</ele>
        <time>2013-06-30T07:40:28Z</time>
      </trkpt>
      <trkpt lat="46.13411" lon="6.68621">
        <ele>1446</ele>
        <time>2013-06-30T07:40:30Z</time>
      </trkpt>
      <trkpt lat="46.13408" lon="6.68601">
        <ele>1444</ele>
        <time>2013-06-30T07:40:33Z</time>
      </trkpt>
      <trkpt lat="46.13408" lon="6.68571">
        <ele>1441</ele>
        <time>2013-06-30T07:40:38Z</time>
      </trkpt>
      <trkpt lat="46.13405" lon="6.68548">
        <ele>1441</ele>
        <time>2013-06-30T07:40:41Z</time>
      </trkpt>
      <trkpt lat="46.13405" lon="6.68529">
        <ele>1441</ele>
        <time>2013-06-30T07:40:43Z</time>
      </trkpt>
      <trkpt lat="46.13409" lon="6.68496">
        <ele>1437</ele>
        <time>2013-06-30T07:40:46Z</time>
      </trkpt>
      <trkpt lat="46.1342" lon="6.68471">
        <ele>1430</ele>
        <time>2013-06-30T07:40:49Z</time>
      </trkpt>
      <trkpt lat="46.13435" lon="6.68469">
        <ele>1429</ele>
        <time>2013-06-30T07:40:51Z</time>
      </trkpt>
      <trkpt lat="46.1346" lon="6.68473">
        <ele>1427</ele>
        <time>2013-06-30T07:40:54Z</time>
      </trkpt>
      <trkpt lat="46.13479" lon="6.68472">
        <ele>1425</ele>
        <time>2013-06-30T07:40:56Z</time>
      </trkpt>
      <trkpt lat="46.13529" lon="6.68455">
        <ele>1414</ele>
        <time>2013-06-30T07:41:01Z</time>
      </trkpt>
      <trkpt lat="46.13572" lon="6.68431">
        <ele>1409</ele>
        <time>2013-06-30T07:41:05Z</time>
      </trkpt>
      <trkpt lat="46.13606" lon="6.68392">
        <ele>1403</ele>
        <time>2013-06-30T07:41:09Z</time>
      </trkpt>
      <trkpt lat="46.13631" lon="6.68358">
        <ele>1402</ele>
        <time>2013-06-30T07:41:12Z</time>
      </trkpt>
      <trkpt lat="46.13676" lon="6.68316">
        <ele>1395</ele>
        <time>2013-06-30T07:41:17Z</time>
      </trkpt>
      <trkpt lat="46.13698" lon="6.68294">
        <ele>1393</ele>
        <time>2013-06-30T07:41:21Z</time>
      </trkpt>
      <trkpt lat="46.13713" lon="6.68299">
        <ele>1393</ele>
        <time>2013-06-30T07:41:24Z</time>
      </trkpt>
      <trkpt lat="46.13734" lon="6.68322">
        <ele>1393</ele>
        <time>2013-06-30T07:41:29Z</time>
      </trkpt>
      <trkpt lat="46.13742" lon="6.6833">
        <ele>1394</ele>
        <time>2013-06-30T07:41:31Z</time>
      </trkpt>
      <trkpt lat="46.13764" lon="6.68336">
        <ele>1396</ele>
        <time>2013-06-30T07:41:36Z</time>
      </trkpt>
      <trkpt lat="46.13767" lon="6.68334">
        <ele>1396</ele>
        <time>2013-06-30T07:41:37Z</time>
      </trkpt>
      <trkpt lat="46.13782" lon="6.68325">
        <ele>1389</ele>
        <time>2013-06-30T07:41:42Z</time>
      </trkpt>
      <trkpt lat="46.13783" lon="6.68323">
        <ele>1389</ele>
        <time>2013-06-30T07:41:47Z</time>
      </trkpt>
      <trkpt lat="46.13783" lon="6.68322">
        <ele>1389</ele>
        <time>2013-06-30T07:41:59Z</time>
      </trkpt>
      <trkpt lat="46.13782" lon="6.68322">
        <ele>1389</ele>
        <time>2013-06-30T07:42:08Z</time>
      </trkpt>
      <trkpt lat="46.13782" lon="6.68322">
        <ele>1389</ele>
        <time>2013-06-30T07:42:17Z</time>
      </trkpt>
      <trkpt lat="46.13782" lon="6.68322">
        <ele>1389</ele>
        <time>2013-06-30T07:42:26Z</time>
      </trkpt>
      <trkpt lat="46.13783" lon="6.68323">
        <ele>1389</ele>
        <time>2013-06-30T07:42:37Z</time>
      </trkpt>
      <trkpt lat="46.13786" lon="6.68322">
        <ele>1389</ele>
        <time>2013-06-30T07:42:49Z</time>
      </trkpt>
      <trkpt lat="46.13787" lon="6.68321">
        <ele>1389</ele>
        <time>2013-06-30T07:42:55Z</time>
      </trkpt>
      <trkpt lat="46.13788" lon="6.6832">
        <ele>1389</ele>
        <time>2013-06-30T07:43:03Z</time>
      </trkpt>
      <trkpt lat="46.13791" lon="6.6832">
        <ele>1389</ele>
        <time>2013-06-30T07:43:13Z</time>
      </trkpt>
      <trkpt lat="46.13792" lon="6.6832">
        <ele>1389</ele>
        <time>2013-06-30T07:43:24Z</time>
      </trkpt>
      <trkpt lat="46.13792" lon="6.6832">
        <ele>1389</ele>
        <time>2013-06-30T07:43:33Z</time>
      </trkpt>
      <trkpt lat="46.13795" lon="6.68319">
        <ele>1389</ele>
        <time>2013-06-30T07:43:43Z</time>
      </trkpt>
      <trkpt lat="46.13796" lon="6.68317">
        <ele>1389</ele>
        <time>2013-06-30T07:44:03Z</time>
      </trkpt>
      <trkpt lat="46.13796" lon="6.68317">
        <ele>1389</ele>
        <time>2013-06-30T07:44:18Z</time>
      </trkpt>
      <trkpt lat="46.13797" lon="6.68314">
        <ele>1388</ele>
        <time>2013-06-30T07:44:29Z</time>
      </trkpt>
      <trkpt lat="46.13797" lon="6.68314">
        <ele>1388</ele>
        <time>2013-06-30T07:44:37Z</time>
      </trkpt>
      <trkpt lat="46.13799" lon="6.6831">
        <ele>1388</ele>
        <time>2013-06-30T07:44:43Z</time>
      </trkpt>
      <trkpt lat="46.13802" lon="6.68312">
        <ele>1388</ele>
        <time>2013-06-30T07:44:46Z</time>
      </trkpt>
      <trkpt lat="46.13806" lon="6.6832">
        <ele>1389</ele>
        <time>2013-06-30T07:44:53Z</time>
      </trkpt>
      <trkpt lat="46.13813" lon="6.68337">
        <ele>1396</ele>
        <time>2013-06-30T07:44:59Z</time>
      </trkpt>
      <trkpt lat="46.13814" lon="6.68359">
        <ele>1397</ele>
        <time>2013-06-30T07:45:05Z</time>
      </trkpt>
      <trkpt lat="46.13817" lon="6.68383">
        <ele>1399</ele>
        <time>2013-06-30T07:45:12Z</time>
      </trkpt>
      <trkpt lat="46.1382" lon="6.68406">
        <ele>1401</ele>
        <time>2013-06-30T07:45:19Z</time>
      </trkpt>
      <trkpt lat="46.13826" lon="6.68434">
        <ele>1408</ele>
        <time>2013-06-30T07:45:27Z</time>
      </trkpt>
      <trkpt lat="46.13831" lon="6.68465">
        <ele>1413</ele>
        <time>2013-06-30T07:45:36Z</time>
      </trkpt>
      <trkpt lat="46.13838" lon="6.68503">
        <ele>1422</ele>
        <time>2013-06-30T07:45:47Z</time>
      </trkpt>
      <trkpt lat="46.13844" lon="6.6854">
        <ele>1430</ele>
        <time>2013-06-30T07:45:58Z</time>
      </trkpt>
      <trkpt lat="46.13851" lon="6.68576">
        <ele>1434</ele>
        <time>2013-06-30T07:46:09Z</time>
      </trkpt>
      <trkpt lat="46.13858" lon="6.68611">
        <ele>1445</ele>
        <time>2013-06-30T07:46:19Z</time>
      </trkpt>
      <trkpt lat="46.13863" lon="6.68641">
        <ele>1448</ele>
        <time>2013-06-30T07:46:28Z</time>
      </trkpt>
      <trkpt lat="46.13872" lon="6.68688">
        <ele>1460</ele>
        <time>2013-06-30T07:46:42Z</time>
      </trkpt>
      <trkpt lat="46.13881" lon="6.68736">
        <ele>1465</ele>
        <time>2013-06-30T07:46:56Z</time>
      </trkpt>
      <trkpt lat="46.13889" lon="6.68777">
        <ele>1475</ele>
        <time>2013-06-30T07:47:08Z</time>
      </trkpt>
      <trkpt lat="46.13898" lon="6.68824">
        <ele>1480</ele>
        <time>2013-06-30T07:47:22Z</time>
      </trkpt>
      <trkpt lat="46.13907" lon="6.68874">
        <ele>1490</ele>
        <time>2013-06-30T07:47:37Z</time>
      </trkpt>
      <trkpt lat="46.13914" lon="6.68912">
        <ele>1499</ele>
        <time>2013-06-30T07:47:48Z</time>
      </trkpt>
      <trkpt lat="46.13925" lon="6.6897">
        <ele>1518</ele>
        <time>2013-06-30T07:48:05Z</time>
      </trkpt>
      <trkpt lat="46.13936" lon="6.69026">
        <ele>1533</ele>
        <time>2013-06-30T07:48:22Z</time>
      </trkpt>
      <trkpt lat="46.13944" lon="6.69066">
        <ele>1537</ele>
        <time>2013-06-30T07:48:34Z</time>
      </trkpt>
      <trkpt lat="46.13952" lon="6.6911">
        <ele>1550</ele>
        <time>2013-06-30T07:48:47Z</time>
      </trkpt>
      <trkpt lat="46.1396" lon="6.69153">
        <ele>1554</ele>
        <time>2013-06-30T07:49:00Z</time>
      </trkpt>
      <trkpt lat="46.1397" lon="6.69202">
        <ele>1569</ele>
        <time>2013-06-30T07:49:15Z</time>
      </trkpt>
      <trkpt lat="46.1398" lon="6.69253">
        <ele>1587</ele>
        <time>2013-06-30T07:49:31Z</time>
      </trkpt>
      <trkpt lat="46.1399" lon="6.69307">
        <ele>1596</ele>
        <time>2013-06-30T07:49:48Z</time>
      </trkpt>
      <trkpt lat="46.13998" lon="6.69347">
        <ele>1612</ele>
        <time>2013-06-30T07:50:00Z</time>
      </trkpt>
      <trkpt lat="46.14006" lon="6.69393">
        <ele>1625</ele>
        <time>2013-06-30T07:50:14Z</time>
      </trkpt>
      <trkpt lat="46.14017" lon="6.6945">
        <ele>1641</ele>
        <time>2013-06-30T07:50:32Z</time>
      </trkpt>
      <trkpt lat="46.14024" lon="6.69488">
        <ele>1646</ele>
        <time>2013-06-30T07:50:43Z</time>
      </trkpt>
      <trkpt lat="46.14028" lon="6.6951">
        <ele>1651</ele>
        <time>2013-06-30T07:50:50Z</time>
      </trkpt>
      <trkpt lat="46.14029" lon="6.69514">
        <ele>1651</ele>
        <time>2013-06-30T07:50:55Z</time>
      </trkpt>
      <trkpt lat="46.14032" lon="6.69516">
        <ele>1650</ele>
        <time>2013-06-30T07:51:03Z</time>
      </trkpt>
      <trkpt lat="46.14034" lon="6.69523">
        <ele>1650</ele>
        <time>2013-06-30T07:51:09Z</time>
      </trkpt>
      <trkpt lat="46.14033" lon="6.69527">
        <ele>1650</ele>
        <time>2013-06-30T07:51:13Z</time>
      </trkpt>
      <trkpt lat="46.14033" lon="6.69528">
        <ele>1650</ele>
        <time>2013-06-30T07:51:14Z</time>
      </trkpt>
      <trkpt lat="46.14043" lon="6.69541">
        <ele>1649</ele>
        <time>2013-06-30T07:51:20Z</time>
      </trkpt>
      <trkpt lat="46.14055" lon="6.69546">
        <ele>1649</ele>
        <time>2013-06-30T07:51:25Z</time>
      </trkpt>
      <trkpt lat="46.14059" lon="6.69546">
        <ele>1649</ele>
        <time>2013-06-30T07:51:29Z</time>
      </trkpt>
      <trkpt lat="46.14071" lon="6.69548">
        <ele>1648</ele>
        <time>2013-06-30T07:51:34Z</time>
      </trkpt>
      <trkpt lat="46.14093" lon="6.69554">
        <ele>1641</ele>
        <time>2013-06-30T07:51:40Z</time>
      </trkpt>
      <trkpt lat="46.14108" lon="6.6956">
        <ele>1640</ele>
        <time>2013-06-30T07:51:46Z</time>
      </trkpt>
      <trkpt lat="46.14111" lon="6.69562">
        <ele>1639</ele>
        <time>2013-06-30T07:51:51Z</time>
      </trkpt>
      <trkpt lat="46.14112" lon="6.69561">
        <ele>1639</ele>
        <time>2013-06-30T07:52:21Z</time>
      </trkpt>
      <trkpt lat="46.14114" lon="6.69559">
        <ele>1639</ele>
        <time>2013-06-30T07:52:27Z</time>
      </trkpt>
      <trkpt lat="46.14125" lon="6.69554">
        <ele>1638</ele>
        <time>2013-06-30T07:52:32Z</time>
      </trkpt>
      <trkpt lat="46.14139" lon="6.69551">
        <ele>1636</ele>
        <time>2013-06-30T07:52:35Z</time>
      </trkpt>
      <trkpt lat="46.14178" lon="6.69545">
        <ele>1627</ele>
        <time>2013-06-30T07:52:39Z</time>
      </trkpt>
      <trkpt lat="46.14247" lon="6.69531">
        <ele>1625</ele>
        <time>2013-06-30T07:52:45Z</time>
      </trkpt>
      <trkpt lat="46.14303" lon="6.69521">
        <ele>1621</ele>
        <time>2013-06-30T07:52:50Z</time>
      </trkpt>
      <trkpt lat="46.14327" lon="6.69517">
        <ele>1620</ele>
        <time>2013-06-30T07:52:53Z</time>
      </trkpt>
      <trkpt lat="46.14341" lon="6.69517">
        <ele>1617</ele>
        <time>2013-06-30T07:52:57Z</time>
      </trkpt>
      <trkpt lat="46.14342" lon="6.69516">
        <ele>1617</ele>
        <time>2013-06-30T07:53:01Z</time>
      </trkpt>
      <trkpt lat="46.14343" lon="6.69514">
        <ele>1617</ele>
        <time>2013-06-30T07:53:24Z</time>
      </trkpt>
      <trkpt lat="46.14348" lon="6.69514">
        <ele>1617</ele>
        <time>2013-06-30T07:53:32Z</time>
      </trkpt>
      <trkpt lat="46.14359" lon="6.69511">
        <ele>1616</ele>
        <time>2013-06-30T07:53:36Z</time>
      </trkpt>
      <trkpt lat="46.14389" lon="6.69503">
        <ele>1615</ele>
        <time>2013-06-30T07:53:44Z</time>
      </trkpt>
      <trkpt lat="46.14407" lon="6.695">
        <ele>1615</ele>
        <time>2013-06-30T07:53:49Z</time>
      </trkpt>
      <trkpt lat="46.14412" lon="6.69499">
        <ele>1616</ele>
        <time>2013-06-30T07:53:50Z</time>
      </trkpt>
      <trkpt lat="46.1443" lon="6.69491">
        <ele>1613</ele>
        <time>2013-06-30T07:53:54Z</time>
      </trkpt>
      <trkpt lat="46.14447" lon="6.69477">
        <ele>1611</ele>
        <time>2013-06-30T07:53:58Z</time>
      </trkpt>
      <trkpt lat="46.14454" lon="6.69468">
        <ele>1611</ele>
        <time>2013-06-30T07:54:00Z</time>
      </trkpt>
      <trkpt lat="46.1448" lon="6.6945">
        <ele>1611</ele>
        <time>2013-06-30T07:54:06Z</time>
      </trkpt>
      <trkpt lat="46.14494" lon="6.69442">
        <ele>1611</ele>
        <time>2013-06-30T07:54:09Z</time>
      </trkpt>
      <trkpt lat="46.14503" lon="6.6944">
        <ele>1608</ele>
        <time>2013-06-30T07:54:11Z</time>
      </trkpt>
      <trkpt lat="46.14533" lon="6.69434">
        <ele>1606</ele>
        <time>2013-06-30T07:54:17Z</time>
      </trkpt>
      <trkpt lat="46.14551" lon="6.69428">
        <ele>1605</ele>
        <time>2013-06-30T07:54:20Z</time>
      </trkpt>
      <trkpt lat="46.14578" lon="6.69415">
        <ele>1606</ele>
        <time>2013-06-30T07:54:25Z</time>
      </trkpt>
      <trkpt lat="46.14595" lon="6.69394">
        <ele>1603</ele>
        <time>2013-06-30T07:54:29Z</time>
      </trkpt>
      <trkpt lat="46.14603" lon="6.69381">
        <ele>1602</ele>
        <time>2013-06-30T07:54:31Z</time>
      </trkpt>
      <trkpt lat="46.14634" lon="6.69337">
        <ele>1601</ele>
        <time>2013-06-30T07:54:38Z</time>
      </trkpt>
      <trkpt lat="46.14639" lon="6.6933">
        <ele>1600</ele>
        <time>2013-06-30T07:54:39Z</time>
      </trkpt>
      <trkpt lat="46.14665" lon="6.69316">
        <ele>1599</ele>
        <time>2013-06-30T07:54:43Z</time>
      </trkpt>
      <trkpt lat="46.14689" lon="6.69313">
        <ele>1595</ele>
        <time>2013-06-30T07:54:48Z</time>
      </trkpt>
      <trkpt lat="46.14693" lon="6.69312">
        <ele>1595</ele>
        <time>2013-06-30T07:54:49Z</time>
      </trkpt>
      <trkpt lat="46.1472" lon="6.69312">
        <ele>1593</ele>
        <time>2013-06-30T07:54:54Z</time>
      </trkpt>
      <trkpt lat="46.14738" lon="6.69307">
        <ele>1593</ele>
        <time>2013-06-30T07:54:57Z</time>
      </trkpt>
      <trkpt lat="46.14764" lon="6.69306">
        <ele>1586</ele>
        <time>2013-06-30T07:55:02Z</time>
      </trkpt>
      <trkpt lat="46.14776" lon="6.69306">
        <ele>1585</ele>
        <time>2013-06-30T07:55:04Z</time>
      </trkpt>
      <trkpt lat="46.14812" lon="6.69298">
        <ele>1582</ele>
        <time>2013-06-30T07:55:10Z</time>
      </trkpt>
      <trkpt lat="46.14819" lon="6.69297">
        <ele>1582</ele>
        <time>2013-06-30T07:55:11Z</time>
      </trkpt>
      <trkpt lat="46.14831" lon="6.69297">
        <ele>1581</ele>
        <time>2013-06-30T07:55:13Z</time>
      </trkpt>
      <trkpt lat="46.14853" lon="6.69312">
        <ele>1573</ele>
        <time>2013-06-30T07:55:17Z</time>
      </trkpt>
      <trkpt lat="46.1487" lon="6.69323">
        <ele>1571</ele>
        <time>2013-06-30T07:55:20Z</time>
      </trkpt>
      <trkpt lat="46.14892" lon="6.69339">
        <ele>1567</ele>
        <time>2013-06-30T07:55:25Z</time>
      </trkpt>
      <trkpt lat="46.14911" lon="6.69358">
        <ele>1567</ele>
        <time>2013-06-30T07:55:29Z</time>
      </trkpt>
      <trkpt lat="46.14923" lon="6.69382">
        <ele>1560</ele>
        <time>2013-06-30T07:55:33Z</time>
      </trkpt>
      <trkpt lat="46.14933" lon="6.69408">
        <ele>1560</ele>
        <time>2013-06-30T07:55:36Z</time>
      </trkpt>
      <trkpt lat="46.14948" lon="6.69429">
        <ele>1555</ele>
        <time>2013-06-30T07:55:39Z</time>
      </trkpt>
      <trkpt lat="46.14964" lon="6.69426">
        <ele>1554</ele>
        <time>2013-06-30T07:55:43Z</time>
      </trkpt>
      <trkpt lat="46.14972" lon="6.69419">
        <ele>1554</ele>
        <time>2013-06-30T07:55:46Z</time>
      </trkpt>
      <trkpt lat="46.14974" lon="6.69418">
        <ele>1555</ele>
        <time>2013-06-30T07:55:50Z</time>
      </trkpt>
      <trkpt lat="46.1498" lon="6.69416">
        <ele>1558</ele>
        <time>2013-06-30T07:56:02Z</time>
      </trkpt>
      <trkpt lat="46.14981" lon="6.69416">
        <ele>1557</ele>
        <time>2013-06-30T07:56:25Z</time>
      </trkpt>
      <trkpt lat="46.14992" lon="6.69422">
        <ele>1556</ele>
        <time>2013-06-30T07:56:31Z</time>
      </trkpt>
      <trkpt lat="46.15004" lon="6.69434">
        <ele>1553</ele>
        <time>2013-06-30T07:56:37Z</time>
      </trkpt>
      <trkpt lat="46.15014" lon="6.69442">
        <ele>1552</ele>
        <time>2013-06-30T07:56:40Z</time>
      </trkpt>
      <trkpt lat="46.15037" lon="6.69452">
        <ele>1551</ele>
        <time>2013-06-30T07:56:47Z</time>
      </trkpt>
      <trkpt lat="46.15054" lon="6.69455">
        <ele>1550</ele>
        <time>2013-06-30T07:56:52Z</time>
      </trkpt>
      <trkpt lat="46.15074" lon="6.69455">
        <ele>1550</ele>
        <time>2013-06-30T07:56:57Z</time>
      </trkpt>
      <trkpt lat="46.15092" lon="6.69451">
        <ele>1546</ele>
        <time>2013-06-30T07:57:02Z</time>
      </trkpt>
      <trkpt lat="46.15103" lon="6.69447">
        <ele>1546</ele>
        <time>2013-06-30T07:57:05Z</time>
      </trkpt>
      <trkpt lat="46.15124" lon="6.69426">
        <ele>1545</ele>
        <time>2013-06-30T07:57:10Z</time>
      </trkpt>
      <trkpt lat="46.15142" lon="6.69407">
        <ele>1541</ele>
        <time>2013-06-30T07:57:15Z</time>
      </trkpt>
      <trkpt lat="46.15148" lon="6.69403">
        <ele>1540</ele>
        <time>2013-06-30T07:57:17Z</time>
      </trkpt>
      <trkpt lat="46.15171" lon="6.69394">
        <ele>1533</ele>
        <time>2013-06-30T07:57:23Z</time>
      </trkpt>
      <trkpt lat="46.15176" lon="6.69393">
        <ele>1533</ele>
        <time>2013-06-30T07:57:24Z</time>
      </trkpt>
      <trkpt lat="46.15203" lon="6.69381">
        <ele>1529</ele>
        <time>2013-06-30T07:57:29Z</time>
      </trkpt>
      <trkpt lat="46.15223" lon="6.69375">
        <ele>1527</ele>
        <time>2013-06-30T07:57:33Z</time>
      </trkpt>
      <trkpt lat="46.15249" lon="6.69395">
        <ele>1526</ele>
        <time>2013-06-30T07:57:39Z</time>
      </trkpt>
      <trkpt lat="46.15253" lon="6.69399">
        <ele>1522</ele>
        <time>2013-06-30T07:57:40Z</time>
      </trkpt>
      <trkpt lat="46.15266" lon="6.69411">
        <ele>1522</ele>
        <time>2013-06-30T07:57:44Z</time>
      </trkpt>
      <trkpt lat="46.15285" lon="6.69411">
        <ele>1521</ele>
        <time>2013-06-30T07:57:49Z</time>
      </trkpt>
      <trkpt lat="46.15287" lon="6.6941">
        <ele>1521</ele>
        <time>2013-06-30T07:58:02Z</time>
      </trkpt>
      <trkpt lat="46.15287" lon="6.69409">
        <ele>1521</ele>
        <time>2013-06-30T07:58:05Z</time>
      </trkpt>
      <trkpt lat="46.15283" lon="6.69409">
        <ele>1521</ele>
        <time>2013-06-30T07:58:08Z</time>
      </trkpt>
      <trkpt lat="46.15282" lon="6.6941">
        <ele>1521</ele>
        <time>2013-06-30T07:58:14Z</time>
      </trkpt>
      <trkpt lat="46.15285" lon="6.69408">
        <ele>1521</ele>
        <time>2013-06-30T07:58:21Z</time>
      </trkpt>
      <trkpt lat="46.15288" lon="6.69409">
        <ele>1521</ele>
        <time>2013-06-30T07:58:29Z</time>
      </trkpt>
      <trkpt lat="46.15299" lon="6.69416">
        <ele>1520</ele>
        <time>2013-06-30T07:58:36Z</time>
      </trkpt>
      <trkpt lat="46.1531" lon="6.69422">
        <ele>1518</ele>
        <time>2013-06-30T07:58:43Z</time>
      </trkpt>
      <trkpt lat="46.15311" lon="6.69423">
        <ele>1518</ele>
        <time>2013-06-30T07:58:48Z</time>
      </trkpt>
      <trkpt lat="46.1531" lon="6.69425">
        <ele>1517</ele>
        <time>2013-06-30T07:59:02Z</time>
      </trkpt>
      <trkpt lat="46.1531" lon="6.69425">
        <ele>1517</ele>
        <time>2013-06-30T07:59:11Z</time>
      </trkpt>
      <trkpt lat="46.15308" lon="6.69422">
        <ele>1518</ele>
        <time>2013-06-30T07:59:23Z</time>
      </trkpt>
      <trkpt lat="46.15309" lon="6.69421">
        <ele>1518</ele>
        <time>2013-06-30T07:59:28Z</time>
      </trkpt>
      <trkpt lat="46.15317" lon="6.69425">
        <ele>1517</ele>
        <time>2013-06-30T07:59:33Z</time>
      </trkpt>
      <trkpt lat="46.15338" lon="6.69431">
        <ele>1518</ele>
        <time>2013-06-30T07:59:41Z</time>
      </trkpt>
      <trkpt lat="46.15352" lon="6.69437">
        <ele>1517</ele>
        <time>2013-06-30T07:59:47Z</time>
      </trkpt>
      <trkpt lat="46.1537" lon="6.69439">
        <ele>1518</ele>
        <time>2013-06-30T07:59:54Z</time>
      </trkpt>
      <trkpt lat="46.15374" lon="6.69439">
        <ele>1518</ele>
        <time>2013-06-30T07:59:56Z</time>
      </trkpt>
      <trkpt lat="46.15387" lon="6.69435">
        <ele>1519</ele>
        <time>2013-06-30T08:00:02Z</time>
      </trkpt>
      <trkpt lat="46.15412" lon="6.69431">
        <ele>1523</ele>
        <time>2013-06-30T08:00:10Z</time>
      </trkpt>
      <trkpt lat="46.15433" lon="6.69426">
        <ele>1523</ele>
        <time>2013-06-30T08:00:16Z</time>
      </trkpt>
      <trkpt lat="46.15449" lon="6.69419">
        <ele>1522</ele>
        <time>2013-06-30T08:00:22Z</time>
      </trkpt>
      <trkpt lat="46.1546" lon="6.69418">
        <ele>1522</ele>
        <time>2013-06-30T08:00:27Z</time>
      </trkpt>
      <trkpt lat="46.15481" lon="6.69411">
        <ele>1526</ele>
        <time>2013-06-30T08:00:35Z</time>
      </trkpt>
      <trkpt lat="46.15504" lon="6.69411">
        <ele>1525</ele>
        <time>2013-06-30T08:00:41Z</time>
      </trkpt>
      <trkpt lat="46.15527" lon="6.69397">
        <ele>1525</ele>
        <time>2013-06-30T08:00:49Z</time>
      </trkpt>
      <trkpt lat="46.1555" lon="6.69381">
        <ele>1525</ele>
        <time>2013-06-30T08:00:55Z</time>
      </trkpt>
      <trkpt lat="46.15567" lon="6.69371">
        <ele>1525</ele>
        <time>2013-06-30T08:01:01Z</time>
      </trkpt>
      <trkpt lat="46.15581" lon="6.69366">
        <ele>1526</ele>
        <time>2013-06-30T08:01:08Z</time>
      </trkpt>
      <trkpt lat="46.15596" lon="6.69366">
        <ele>1522</ele>
        <time>2013-06-30T08:01:13Z</time>
      </trkpt>
      <trkpt lat="46.15607" lon="6.69356">
        <ele>1523</ele>
        <time>2013-06-30T08:01:18Z</time>
      </trkpt>
      <trkpt lat="46.15621" lon="6.69354">
        <ele>1522</ele>
        <time>2013-06-30T08:01:24Z</time>
      </trkpt>
      <trkpt lat="46.15632" lon="6.69352">
        <ele>1522</ele>
        <time>2013-06-30T08:01:30Z</time>
      </trkpt>
      <trkpt lat="46.15641" lon="6.69351">
        <ele>1522</ele>
        <time>2013-06-30T08:01:36Z</time>
      </trkpt>
      <trkpt lat="46.15647" lon="6.69349">
        <ele>1522</ele>
        <time>2013-06-30T08:01:43Z</time>
      </trkpt>
      <trkpt lat="46.15653" lon="6.69345">
        <ele>1523</ele>
        <time>2013-06-30T08:01:56Z</time>
      </trkpt>
      <trkpt lat="46.15659" lon="6.69346">
        <ele>1523</ele>
        <time>2013-06-30T08:02:04Z</time>
      </trkpt>
      <trkpt lat="46.15677" lon="6.69348">
        <ele>1514</ele>
        <time>2013-06-30T08:02:09Z</time>
      </trkpt>
      <trkpt lat="46.15693" lon="6.69351">
        <ele>1508</ele>
        <time>2013-06-30T08:02:13Z</time>
      </trkpt>
      <trkpt lat="46.15699" lon="6.69349">
        <ele>1507</ele>
        <time>2013-06-30T08:02:15Z</time>
      </trkpt>
      <trkpt lat="46.15712" lon="6.69327">
        <ele>1513</ele>
        <time>2013-06-30T08:02:20Z</time>
      </trkpt>
      <trkpt lat="46.15718" lon="6.693">
        <ele>1512</ele>
        <time>2013-06-30T08:02:25Z</time>
      </trkpt>
      <trkpt lat="46.15733" lon="6.69287">
        <ele>1511</ele>
        <time>2013-06-30T08:02:29Z</time>
      </trkpt>
      <trkpt lat="46.15756" lon="6.69281">
        <ele>1501</ele>
        <time>2013-06-30T08:02:33Z</time>
      </trkpt>
      <trkpt lat="46.15776" lon="6.69267">
        <ele>1501</ele>
        <time>2013-06-30T08:02:39Z</time>
      </trkpt>
      <trkpt lat="46.15785" lon="6.69264">
        <ele>1500</ele>
        <time>2013-06-30T08:02:41Z</time>
      </trkpt>
      <trkpt lat="46.15798" lon="6.69257">
        <ele>1500</ele>
        <time>2013-06-30T08:02:44Z</time>
      </trkpt>
      <trkpt lat="46.15818" lon="6.6926">
        <ele>1499</ele>
        <time>2013-06-30T08:02:48Z</time>
      </trkpt>
      <trkpt lat="46.1584" lon="6.69262">
        <ele>1498</ele>
        <time>2013-06-30T08:02:53Z</time>
      </trkpt>
      <trkpt lat="46.15853" lon="6.69261">
        <ele>1497</ele>
        <time>2013-06-30T08:02:56Z</time>
      </trkpt>
      <trkpt lat="46.15874" lon="6.69276">
        <ele>1496</ele>
        <time>2013-06-30T08:03:00Z</time>
      </trkpt>
      <trkpt lat="46.15892" lon="6.69282">
        <ele>1496</ele>
        <time>2013-06-30T08:03:04Z</time>
      </trkpt>
      <trkpt lat="46.1591" lon="6.69297">
        <ele>1496</ele>
        <time>2013-06-30T08:03:09Z</time>
      </trkpt>
      <trkpt lat="46.15922" lon="6.6931">
        <ele>1500</ele>
        <time>2013-06-30T08:03:15Z</time>
      </trkpt>
      <trkpt lat="46.15927" lon="6.69315">
        <ele>1499</ele>
        <time>2013-06-30T08:03:21Z</time>
      </trkpt>
      <trkpt lat="46.15928" lon="6.69318">
        <ele>1499</ele>
        <time>2013-06-30T08:03:27Z</time>
      </trkpt>
      <trkpt lat="46.15927" lon="6.69319">
        <ele>1499</ele>
        <time>2013-06-30T08:03:33Z</time>
      </trkpt>
      <trkpt lat="46.1593" lon="6.69321">
        <ele>1499</ele>
        <time>2013-06-30T08:03:48Z</time>
      </trkpt>
      <trkpt lat="46.15931" lon="6.69324">
        <ele>1499</ele>
        <time>2013-06-30T08:03:54Z</time>
      </trkpt>
      <trkpt lat="46.15933" lon="6.69326">
        <ele>1499</ele>
        <time>2013-06-30T08:04:01Z</time>
      </trkpt>
      <trkpt lat="46.15935" lon="6.69328">
        <ele>1499</ele>
        <time>2013-06-30T08:04:07Z</time>
      </trkpt>
      <trkpt lat="46.15941" lon="6.69336">
        <ele>1496</ele>
        <time>2013-06-30T08:04:15Z</time>
      </trkpt>
      <trkpt lat="46.1595" lon="6.69342">
        <ele>1497</ele>
        <time>2013-06-30T08:04:25Z</time>
      </trkpt>
      <trkpt lat="46.15957" lon="6.69344">
        <ele>1498</ele>
        <time>2013-06-30T08:04:33Z</time>
      </trkpt>
      <trkpt lat="46.15957" lon="6.69344">
        <ele>1498</ele>
        <time>2013-06-30T08:04:50Z</time>
      </trkpt>
      <trkpt lat="46.15956" lon="6.69345">
        <ele>1498</ele>
        <time>2013-06-30T08:08:47Z</time>
      </trkpt>
      <trkpt lat="46.15961" lon="6.69347">
        <ele>1498</ele>
        <time>2013-06-30T08:08:59Z</time>
      </trkpt>
      <trkpt lat="46.15969" lon="6.69348">
        <ele>1499</ele>
        <time>2013-06-30T08:09:04Z</time>
      </trkpt>
      <trkpt lat="46.15982" lon="6.69349">
        <ele>1501</ele>
        <time>2013-06-30T08:09:10Z</time>
      </trkpt>
      <trkpt lat="46.15996" lon="6.69354">
        <ele>1501</ele>
        <time>2013-06-30T08:09:15Z</time>
      </trkpt>
      <trkpt lat="46.1601" lon="6.69364">
        <ele>1511</ele>
        <time>2013-06-30T08:09:20Z</time>
      </trkpt>
      <trkpt lat="46.16015" lon="6.69376">
        <ele>1512</ele>
        <time>2013-06-30T08:09:24Z</time>
      </trkpt>
      <trkpt lat="46.16022" lon="6.69388">
        <ele>1512</ele>
        <time>2013-06-30T08:09:30Z</time>
      </trkpt>
      <trkpt lat="46.16024" lon="6.69394">
        <ele>1512</ele>
        <time>2013-06-30T08:09:36Z</time>
      </trkpt>
      <trkpt lat="46.16026" lon="6.69397">
        <ele>1512</ele>
        <time>2013-06-30T08:09:43Z</time>
      </trkpt>
      <trkpt lat="46.16025" lon="6.69401">
        <ele>1512</ele>
        <time>2013-06-30T08:09:48Z</time>
      </trkpt>
      <trkpt lat="46.16027" lon="6.69406">
        <ele>1512</ele>
        <time>2013-06-30T08:09:56Z</time>
      </trkpt>
      <trkpt lat="46.16029" lon="6.69406">
        <ele>1512</ele>
        <time>2013-06-30T08:10:03Z</time>
      </trkpt>
      <trkpt lat="46.16034" lon="6.6941">
        <ele>1513</ele>
        <time>2013-06-30T08:10:09Z</time>
      </trkpt>
      <trkpt lat="46.16041" lon="6.69418">
        <ele>1513</ele>
        <time>2013-06-30T08:10:17Z</time>
      </trkpt>
      <trkpt lat="46.16046" lon="6.69427">
        <ele>1514</ele>
        <time>2013-06-30T08:10:26Z</time>
      </trkpt>
      <trkpt lat="46.16048" lon="6.69435">
        <ele>1514</ele>
        <time>2013-06-30T08:10:34Z</time>
      </trkpt>
      <trkpt lat="46.1605" lon="6.69443">
        <ele>1514</ele>
        <time>2013-06-30T08:10:42Z</time>
      </trkpt>
      <trkpt lat="46.16051" lon="6.69447">
        <ele>1514</ele>
        <time>2013-06-30T08:10:49Z</time>
      </trkpt>
      <trkpt lat="46.16052" lon="6.69449">
        <ele>1514</ele>
        <time>2013-06-30T08:10:52Z</time>
      </trkpt>
      <trkpt lat="46.16059" lon="6.6946">
        <ele>1514</ele>
        <time>2013-06-30T08:11:04Z</time>
      </trkpt>
      <trkpt lat="46.16063" lon="6.69471">
        <ele>1514</ele>
        <time>2013-06-30T08:11:13Z</time>
      </trkpt>
      <trkpt lat="46.16066" lon="6.69477">
        <ele>1515</ele>
        <time>2013-06-30T08:11:20Z</time>
      </trkpt>
      <trkpt lat="46.16071" lon="6.69477">
        <ele>1515</ele>
        <time>2013-06-30T08:11:26Z</time>
      </trkpt>
      <trkpt lat="46.16075" lon="6.69476">
        <ele>1515</ele>
        <time>2013-06-30T08:11:32Z</time>
      </trkpt>
      <trkpt lat="46.16073" lon="6.69472">
        <ele>1515</ele>
        <time>2013-06-30T08:11:39Z</time>
      </trkpt>
      <trkpt lat="46.16074" lon="6.69466">
        <ele>1515</ele>
        <time>2013-06-30T08:11:47Z</time>
      </trkpt>
      <trkpt lat="46.16075" lon="6.69463">
        <ele>1516</ele>
        <time>2013-06-30T08:11:52Z</time>
      </trkpt>
      <trkpt lat="46.16074" lon="6.6946">
        <ele>1516</ele>
        <time>2013-06-30T08:11:57Z</time>
      </trkpt>
      <trkpt lat="46.16074" lon="6.69455">
        <ele>1516</ele>
        <time>2013-06-30T08:12:03Z</time>
      </trkpt>
      <trkpt lat="46.16075" lon="6.69454">
        <ele>1516</ele>
        <time>2013-06-30T08:12:22Z</time>
      </trkpt>
      <trkpt lat="46.1608" lon="6.69454">
        <ele>1517</ele>
        <time>2013-06-30T08:12:28Z</time>
      </trkpt>
      <trkpt lat="46.16085" lon="6.69454">
        <ele>1529</ele>
        <time>2013-06-30T08:12:36Z</time>
      </trkpt>
      <trkpt lat="46.16092" lon="6.69458">
        <ele>1530</ele>
        <time>2013-06-30T08:12:44Z</time>
      </trkpt>
      <trkpt lat="46.16097" lon="6.69459">
        <ele>1530</ele>
        <time>2013-06-30T08:12:48Z</time>
      </trkpt>
      <trkpt lat="46.16103" lon="6.6946">
        <ele>1530</ele>
        <time>2013-06-30T08:12:56Z</time>
      </trkpt>
      <trkpt lat="46.1611" lon="6.69458">
        <ele>1531</ele>
        <time>2013-06-30T08:13:09Z</time>
      </trkpt>
      <trkpt lat="46.16115" lon="6.69459">
        <ele>1531</ele>
        <time>2013-06-30T08:13:15Z</time>
      </trkpt>
      <trkpt lat="46.16119" lon="6.69459">
        <ele>1531</ele>
        <time>2013-06-30T08:13:22Z</time>
      </trkpt>
      <trkpt lat="46.16124" lon="6.69461">
        <ele>1532</ele>
        <time>2013-06-30T08:13:28Z</time>
      </trkpt>
      <trkpt lat="46.16134" lon="6.69465">
        <ele>1533</ele>
        <time>2013-06-30T08:13:38Z</time>
      </trkpt>
      <trkpt lat="46.16141" lon="6.69467">
        <ele>1533</ele>
        <time>2013-06-30T08:13:47Z</time>
      </trkpt>
      <trkpt lat="46.16149" lon="6.69466">
        <ele>1534</ele>
        <time>2013-06-30T08:13:56Z</time>
      </trkpt>
      <trkpt lat="46.16152" lon="6.69467">
        <ele>1534</ele>
        <time>2013-06-30T08:14:02Z</time>
      </trkpt>
      <trkpt lat="46.16161" lon="6.69476">
        <ele>1535</ele>
        <time>2013-06-30T08:14:12Z</time>
      </trkpt>
      <trkpt lat="46.16166" lon="6.69482">
        <ele>1535</ele>
        <time>2013-06-30T08:14:20Z</time>
      </trkpt>
      <trkpt lat="46.16176" lon="6.6949">
        <ele>1538</ele>
        <time>2013-06-30T08:14:30Z</time>
      </trkpt>
      <trkpt lat="46.16178" lon="6.69492">
        <ele>1538</ele>
        <time>2013-06-30T08:14:37Z</time>
      </trkpt>
      <trkpt lat="46.16178" lon="6.69492">
        <ele>1538</ele>
        <time>2013-06-30T08:14:48Z</time>
      </trkpt>
      <trkpt lat="46.16178" lon="6.69493">
        <ele>1538</ele>
        <time>2013-06-30T08:14:57Z</time>
      </trkpt>
      <trkpt lat="46.16183" lon="6.69495">
        <ele>1538</ele>
        <time>2013-06-30T08:15:03Z</time>
      </trkpt>
      <trkpt lat="46.16194" lon="6.69495">
        <ele>1538</ele>
        <time>2013-06-30T08:15:08Z</time>
      </trkpt>
      <trkpt lat="46.1621" lon="6.6949">
        <ele>1538</ele>
        <time>2013-06-30T08:15:15Z</time>
      </trkpt>
      <trkpt lat="46.16227" lon="6.69479">
        <ele>1538</ele>
        <time>2013-06-30T08:15:21Z</time>
      </trkpt>
      <trkpt lat="46.16246" lon="6.69469">
        <ele>1538</ele>
        <time>2013-06-30T08:15:27Z</time>
      </trkpt>
      <trkpt lat="46.16264" lon="6.69453">
        <ele>1532</ele>
        <time>2013-06-30T08:15:34Z</time>
      </trkpt>
      <trkpt lat="46.16266" lon="6.69451">
        <ele>1532</ele>
        <time>2013-06-30T08:15:37Z</time>
      </trkpt>
      <trkpt lat="46.16266" lon="6.69451">
        <ele>1532</ele>
        <time>2013-06-30T08:15:54Z</time>
      </trkpt>
      <trkpt lat="46.16271" lon="6.69446">
        <ele>1532</ele>
        <time>2013-06-30T08:16:28Z</time>
      </trkpt>
      <trkpt lat="46.16282" lon="6.69433">
        <ele>1532</ele>
        <time>2013-06-30T08:16:34Z</time>
      </trkpt>
      <trkpt lat="46.163" lon="6.69407">
        <ele>1539</ele>
        <time>2013-06-30T08:16:40Z</time>
      </trkpt>
      <trkpt lat="46.16318" lon="6.69382">
        <ele>1539</ele>
        <time>2013-06-30T08:16:46Z</time>
      </trkpt>
      <trkpt lat="46.16328" lon="6.69372">
        <ele>1539</ele>
        <time>2013-06-30T08:16:48Z</time>
      </trkpt>
      <trkpt lat="46.1635" lon="6.69359">
        <ele>1533</ele>
        <time>2013-06-30T08:16:52Z</time>
      </trkpt>
      <trkpt lat="46.1636" lon="6.69353">
        <ele>1532</ele>
        <time>2013-06-30T08:16:54Z</time>
      </trkpt>
      <trkpt lat="46.164" lon="6.69326">
        <ele>1532</ele>
        <time>2013-06-30T08:17:01Z</time>
      </trkpt>
      <trkpt lat="46.16405" lon="6.69324">
        <ele>1532</ele>
        <time>2013-06-30T08:17:02Z</time>
      </trkpt>
      <trkpt lat="46.16436" lon="6.69324">
        <ele>1529</ele>
        <time>2013-06-30T08:17:08Z</time>
      </trkpt>
      <trkpt lat="46.16452" lon="6.69325">
        <ele>1528</ele>
        <time>2013-06-30T08:17:12Z</time>
      </trkpt>
      <trkpt lat="46.16479" lon="6.69328">
        <ele>1526</ele>
        <time>2013-06-30T08:17:17Z</time>
      </trkpt>
      <trkpt lat="46.16507" lon="6.69334">
        <ele>1519</ele>
        <time>2013-06-30T08:17:22Z</time>
      </trkpt>
      <trkpt lat="46.16539" lon="6.69344">
        <ele>1510</ele>
        <time>2013-06-30T08:17:27Z</time>
      </trkpt>
      <trkpt lat="46.16552" lon="6.69348">
        <ele>1510</ele>
        <time>2013-06-30T08:17:29Z</time>
      </trkpt>
      <trkpt lat="46.16571" lon="6.69348">
        <ele>1512</ele>
        <time>2013-06-30T08:17:33Z</time>
      </trkpt>
      <trkpt lat="46.1658" lon="6.69347">
        <ele>1513</ele>
        <time>2013-06-30T08:17:35Z</time>
      </trkpt>
      <trkpt lat="46.16626" lon="6.69351">
        <ele>1501</ele>
        <time>2013-06-30T08:17:44Z</time>
      </trkpt>
      <trkpt lat="46.16662" lon="6.69354">
        <ele>1502</ele>
        <time>2013-06-30T08:17:51Z</time>
      </trkpt>
      <trkpt lat="46.16688" lon="6.69357">
        <ele>1492</ele>
        <time>2013-06-30T08:17:56Z</time>
      </trkpt>
      <trkpt lat="46.16704" lon="6.69356">
        <ele>1490</ele>
        <time>2013-06-30T08:17:59Z</time>
      </trkpt>
      <trkpt lat="46.16746" lon="6.69362">
        <ele>1488</ele>
        <time>2013-06-30T08:18:06Z</time>
      </trkpt>
      <trkpt lat="46.16778" lon="6.69366">
        <ele>1481</ele>
        <time>2013-06-30T08:18:11Z</time>
      </trkpt>
      <trkpt lat="46.16811" lon="6.69371">
        <ele>1479</ele>
        <time>2013-06-30T08:18:17Z</time>
      </trkpt>
      <trkpt lat="46.16823" lon="6.69373">
        <ele>1478</ele>
        <time>2013-06-30T08:18:19Z</time>
      </trkpt>
      <trkpt lat="46.1686" lon="6.69382">
        <ele>1472</ele>
        <time>2013-06-30T08:18:25Z</time>
      </trkpt>
      <trkpt lat="46.16892" lon="6.69386">
        <ele>1470</ele>
        <time>2013-06-30T08:18:31Z</time>
      </trkpt>
      <trkpt lat="46.16903" lon="6.69386">
        <ele>1470</ele>
        <time>2013-06-30T08:18:33Z</time>
      </trkpt>
      <trkpt lat="46.16928" lon="6.69388">
        <ele>1462</ele>
        <time>2013-06-30T08:18:38Z</time>
      </trkpt>
      <trkpt lat="46.16957" lon="6.694">
        <ele>1459</ele>
        <time>2013-06-30T08:18:45Z</time>
      </trkpt>
      <trkpt lat="46.16975" lon="6.69406">
        <ele>1456</ele>
        <time>2013-06-30T08:18:49Z</time>
      </trkpt>
      <trkpt lat="46.16989" lon="6.69413">
        <ele>1450</ele>
        <time>2013-06-30T08:18:53Z</time>
      </trkpt>
      <trkpt lat="46.16991" lon="6.69415">
        <ele>1449</ele>
        <time>2013-06-30T08:18:56Z</time>
      </trkpt>
      <trkpt lat="46.16991" lon="6.69415">
        <ele>1450</ele>
        <time>2013-06-30T08:19:09Z</time>
      </trkpt>
      <trkpt lat="46.1699" lon="6.69415">
        <ele>1450</ele>
        <time>2013-06-30T08:19:46Z</time>
      </trkpt>
      <trkpt lat="46.16991" lon="6.69415">
        <ele>1449</ele>
        <time>2013-06-30T08:19:53Z</time>
      </trkpt>
      <trkpt lat="46.16992" lon="6.69418">
        <ele>1442</ele>
        <time>2013-06-30T08:19:58Z</time>
      </trkpt>
      <trkpt lat="46.1699" lon="6.69418">
        <ele>1442</ele>
        <time>2013-06-30T08:20:52Z</time>
      </trkpt>
      <trkpt lat="46.16989" lon="6.69419">
        <ele>1441</ele>
        <time>2013-06-30T08:21:02Z</time>
      </trkpt>
      <trkpt lat="46.16978" lon="6.69425">
        <ele>1440</ele>
        <time>2013-06-30T08:21:08Z</time>
      </trkpt>
      <trkpt lat="46.16975" lon="6.69427">
        <ele>1440</ele>
        <time>2013-06-30T08:21:09Z</time>
      </trkpt>
      <trkpt lat="46.16969" lon="6.69432">
        <ele>1439</ele>
        <time>2013-06-30T08:21:11Z</time>
      </trkpt>
      <trkpt lat="46.16947" lon="6.69445">
        <ele>1439</ele>
        <time>2013-06-30T08:21:16Z</time>
      </trkpt>
      <trkpt lat="46.16909" lon="6.69458">
        <ele>1439</ele>
        <time>2013-06-30T08:21:24Z</time>
      </trkpt>
      <trkpt lat="46.16883" lon="6.69461">
        <ele>1438</ele>
        <time>2013-06-30T08:21:30Z</time>
      </trkpt>
      <trkpt lat="46.16863" lon="6.69466">
        <ele>1436</ele>
        <time>2013-06-30T08:21:35Z</time>
      </trkpt>
      <trkpt lat="46.16827" lon="6.6948">
        <ele>1429</ele>
        <time>2013-06-30T08:21:41Z</time>
      </trkpt>
      <trkpt lat="46.16797" lon="6.69492">
        <ele>1431</ele>
        <time>2013-06-30T08:21:46Z</time>
      </trkpt>
      <trkpt lat="46.16788" lon="6.69496">
        <ele>1431</ele>
        <time>2013-06-30T08:21:48Z</time>
      </trkpt>
      <trkpt lat="46.1675" lon="6.69514">
        <ele>1415</ele>
        <time>2013-06-30T08:21:54Z</time>
      </trkpt>
      <trkpt lat="46.16732" lon="6.69521">
        <ele>1416</ele>
        <time>2013-06-30T08:21:57Z</time>
      </trkpt>
      <trkpt lat="46.16715" lon="6.69527">
        <ele>1415</ele>
        <time>2013-06-30T08:22:00Z</time>
      </trkpt>
      <trkpt lat="46.16696" lon="6.69536">
        <ele>1415</ele>
        <time>2013-06-30T08:22:03Z</time>
      </trkpt>
      <trkpt lat="46.16691" lon="6.69542">
        <ele>1414</ele>
        <time>2013-06-30T08:22:05Z</time>
      </trkpt>
      <trkpt lat="46.16675" lon="6.6955">
        <ele>1412</ele>
        <time>2013-06-30T08:22:08Z</time>
      </trkpt>
      <trkpt lat="46.16639" lon="6.69569">
        <ele>1415</ele>
        <time>2013-06-30T08:22:14Z</time>
      </trkpt>
      <trkpt lat="46.16629" lon="6.69571">
        <ele>1416</ele>
        <time>2013-06-30T08:22:16Z</time>
      </trkpt>
      <trkpt lat="46.166" lon="6.69579">
        <ele>1413</ele>
        <time>2013-06-30T08:22:21Z</time>
      </trkpt>
      <trkpt lat="46.166" lon="6.69591">
        <ele>1396</ele>
        <time>2013-06-30T08:22:25Z</time>
      </trkpt>
      <trkpt lat="46.16604" lon="6.69592">
        <ele>1395</ele>
        <time>2013-06-30T08:22:26Z</time>
      </trkpt>
      <trkpt lat="46.16627" lon="6.69599">
        <ele>1392</ele>
        <time>2013-06-30T08:22:30Z</time>
      </trkpt>
      <trkpt lat="46.16644" lon="6.69609">
        <ele>1391</ele>
        <time>2013-06-30T08:22:33Z</time>
      </trkpt>
      <trkpt lat="46.16654" lon="6.69615">
        <ele>1390</ele>
        <time>2013-06-30T08:22:35Z</time>
      </trkpt>
      <trkpt lat="46.16675" lon="6.69628">
        <ele>1383</ele>
        <time>2013-06-30T08:22:39Z</time>
      </trkpt>
      <trkpt lat="46.16714" lon="6.69644">
        <ele>1379</ele>
        <time>2013-06-30T08:22:46Z</time>
      </trkpt>
      <trkpt lat="46.16739" lon="6.69648">
        <ele>1375</ele>
        <time>2013-06-30T08:22:51Z</time>
      </trkpt>
      <trkpt lat="46.16752" lon="6.69654">
        <ele>1367</ele>
        <time>2013-06-30T08:22:55Z</time>
      </trkpt>
      <trkpt lat="46.16775" lon="6.69653">
        <ele>1368</ele>
        <time>2013-06-30T08:23:00Z</time>
      </trkpt>
      <trkpt lat="46.16777" lon="6.69649">
        <ele>1369</ele>
        <time>2013-06-30T08:23:06Z</time>
      </trkpt>
      <trkpt lat="46.16775" lon="6.69646">
        <ele>1369</ele>
        <time>2013-06-30T08:23:16Z</time>
      </trkpt>
      <trkpt lat="46.16788" lon="6.69646">
        <ele>1369</ele>
        <time>2013-06-30T08:23:21Z</time>
      </trkpt>
      <trkpt lat="46.16812" lon="6.6965">
        <ele>1364</ele>
        <time>2013-06-30T08:23:27Z</time>
      </trkpt>
      <trkpt lat="46.16836" lon="6.69672">
        <ele>1346</ele>
        <time>2013-06-30T08:23:33Z</time>
      </trkpt>
      <trkpt lat="46.16842" lon="6.69679">
        <ele>1345</ele>
        <time>2013-06-30T08:23:35Z</time>
      </trkpt>
      <trkpt lat="46.16851" lon="6.69702">
        <ele>1341</ele>
        <time>2013-06-30T08:23:40Z</time>
      </trkpt>
      <trkpt lat="46.16856" lon="6.69713">
        <ele>1340</ele>
        <time>2013-06-30T08:23:44Z</time>
      </trkpt>
      <trkpt lat="46.16868" lon="6.69719">
        <ele>1339</ele>
        <time>2013-06-30T08:23:49Z</time>
      </trkpt>
      <trkpt lat="46.16884" lon="6.69722">
        <ele>1339</ele>
        <time>2013-06-30T08:23:54Z</time>
      </trkpt>
      <trkpt lat="46.16902" lon="6.69728">
        <ele>1338</ele>
        <time>2013-06-30T08:24:00Z</time>
      </trkpt>
      <trkpt lat="46.16916" lon="6.69739">
        <ele>1335</ele>
        <time>2013-06-30T08:24:04Z</time>
      </trkpt>
      <trkpt lat="46.16931" lon="6.69746">
        <ele>1336</ele>
        <time>2013-06-30T08:24:07Z</time>
      </trkpt>
      <trkpt lat="46.16951" lon="6.69757">
        <ele>1323</ele>
        <time>2013-06-30T08:24:11Z</time>
      </trkpt>
      <trkpt lat="46.16973" lon="6.69767">
        <ele>1322</ele>
        <time>2013-06-30T08:24:15Z</time>
      </trkpt>
      <trkpt lat="46.16995" lon="6.69775">
        <ele>1322</ele>
        <time>2013-06-30T08:24:19Z</time>
      </trkpt>
      <trkpt lat="46.17017" lon="6.69787">
        <ele>1315</ele>
        <time>2013-06-30T08:24:24Z</time>
      </trkpt>
      <trkpt lat="46.1704" lon="6.69796">
        <ele>1313</ele>
        <time>2013-06-30T08:24:28Z</time>
      </trkpt>
      <trkpt lat="46.1705" lon="6.69798">
        <ele>1312</ele>
        <time>2013-06-30T08:24:30Z</time>
      </trkpt>
      <trkpt lat="46.17067" lon="6.69794">
        <ele>1311</ele>
        <time>2013-06-30T08:24:33Z</time>
      </trkpt>
      <trkpt lat="46.17111" lon="6.69787">
        <ele>1303</ele>
        <time>2013-06-30T08:24:39Z</time>
      </trkpt>
      <trkpt lat="46.17118" lon="6.69786">
        <ele>1303</ele>
        <time>2013-06-30T08:24:40Z</time>
      </trkpt>
      <trkpt lat="46.17141" lon="6.69772">
        <ele>1302</ele>
        <time>2013-06-30T08:24:44Z</time>
      </trkpt>
      <trkpt lat="46.17162" lon="6.6975">
        <ele>1302</ele>
        <time>2013-06-30T08:24:50Z</time>
      </trkpt>
      <trkpt lat="46.17183" lon="6.69734">
        <ele>1307</ele>
        <time>2013-06-30T08:24:58Z</time>
      </trkpt>
      <trkpt lat="46.17195" lon="6.69726">
        <ele>1308</ele>
        <time>2013-06-30T08:25:04Z</time>
      </trkpt>
      <trkpt lat="46.17214" lon="6.69719">
        <ele>1308</ele>
        <time>2013-06-30T08:25:12Z</time>
      </trkpt>
      <trkpt lat="46.17234" lon="6.69711">
        <ele>1308</ele>
        <time>2013-06-30T08:25:21Z</time>
      </trkpt>
      <trkpt lat="46.1725" lon="6.69702">
        <ele>1309</ele>
        <time>2013-06-30T08:25:29Z</time>
      </trkpt>
      <trkpt lat="46.17263" lon="6.69686">
        <ele>1304</ele>
        <time>2013-06-30T08:25:37Z</time>
      </trkpt>
      <trkpt lat="46.17276" lon="6.6967">
        <ele>1303</ele>
        <time>2013-06-30T08:25:44Z</time>
      </trkpt>
      <trkpt lat="46.17287" lon="6.69655">
        <ele>1308</ele>
        <time>2013-06-30T08:25:49Z</time>
      </trkpt>
      <trkpt lat="46.173" lon="6.69635">
        <ele>1307</ele>
        <time>2013-06-30T08:25:55Z</time>
      </trkpt>
      <trkpt lat="46.17305" lon="6.69619">
        <ele>1307</ele>
        <time>2013-06-30T08:25:59Z</time>
      </trkpt>
      <trkpt lat="46.17309" lon="6.69606">
        <ele>1308</ele>
        <time>2013-06-30T08:26:04Z</time>
      </trkpt>
      <trkpt lat="46.17315" lon="6.6959">
        <ele>1307</ele>
        <time>2013-06-30T08:26:08Z</time>
      </trkpt>
      <trkpt lat="46.17322" lon="6.69576">
        <ele>1309</ele>
        <time>2013-06-30T08:26:12Z</time>
      </trkpt>
      <trkpt lat="46.1734" lon="6.69551">
        <ele>1301</ele>
        <time>2013-06-30T08:26:19Z</time>
      </trkpt>
      <trkpt lat="46.17356" lon="6.6953">
        <ele>1302</ele>
        <time>2013-06-30T08:26:25Z</time>
      </trkpt>
      <trkpt lat="46.17378" lon="6.69506">
        <ele>1300</ele>
        <time>2013-06-30T08:26:33Z</time>
      </trkpt>
      <trkpt lat="46.17393" lon="6.69487">
        <ele>1304</ele>
        <time>2013-06-30T08:26:40Z</time>
      </trkpt>
      <trkpt lat="46.17404" lon="6.69465">
        <ele>1305</ele>
        <time>2013-06-30T08:26:46Z</time>
      </trkpt>
      <trkpt lat="46.17418" lon="6.69441">
        <ele>1298</ele>
        <time>2013-06-30T08:26:53Z</time>
      </trkpt>
      <trkpt lat="46.1743" lon="6.69417">
        <ele>1300</ele>
        <time>2013-06-30T08:27:00Z</time>
      </trkpt>
      <trkpt lat="46.17446" lon="6.69388">
        <ele>1307</ele>
        <time>2013-06-30T08:27:08Z</time>
      </trkpt>
      <trkpt lat="46.17453" lon="6.69378">
        <ele>1307</ele>
        <time>2013-06-30T08:27:10Z</time>
      </trkpt>
      <trkpt lat="46.17477" lon="6.69361">
        <ele>1309</ele>
        <time>2013-06-30T08:27:15Z</time>
      </trkpt>
      <trkpt lat="46.17498" lon="6.6936">
        <ele>1309</ele>
        <time>2013-06-30T08:27:19Z</time>
      </trkpt>
      <trkpt lat="46.17509" lon="6.69366">
        <ele>1302</ele>
        <time>2013-06-30T08:27:22Z</time>
      </trkpt>
      <trkpt lat="46.17535" lon="6.69376">
        <ele>1299</ele>
        <time>2013-06-30T08:27:28Z</time>
      </trkpt>
      <trkpt lat="46.17549" lon="6.69377">
        <ele>1298</ele>
        <time>2013-06-30T08:27:31Z</time>
      </trkpt>
      <trkpt lat="46.17569" lon="6.69369">
        <ele>1297</ele>
        <time>2013-06-30T08:27:36Z</time>
      </trkpt>
      <trkpt lat="46.17576" lon="6.69367">
        <ele>1297</ele>
        <time>2013-06-30T08:27:41Z</time>
      </trkpt>
      <trkpt lat="46.17575" lon="6.69368">
        <ele>1297</ele>
        <time>2013-06-30T08:27:52Z</time>
      </trkpt>
      <trkpt lat="46.17579" lon="6.69367">
        <ele>1297</ele>
        <time>2013-06-30T08:30:12Z</time>
      </trkpt>
      <trkpt lat="46.17593" lon="6.69361">
        <ele>1288</ele>
        <time>2013-06-30T08:30:17Z</time>
      </trkpt>
      <trkpt lat="46.17615" lon="6.69348">
        <ele>1287</ele>
        <time>2013-06-30T08:30:22Z</time>
      </trkpt>
      <trkpt lat="46.17634" lon="6.6933">
        <ele>1292</ele>
        <time>2013-06-30T08:30:26Z</time>
      </trkpt>
      <trkpt lat="46.17647" lon="6.69299">
        <ele>1292</ele>
        <time>2013-06-30T08:30:30Z</time>
      </trkpt>
      <trkpt lat="46.17647" lon="6.6928">
        <ele>1293</ele>
        <time>2013-06-30T08:30:32Z</time>
      </trkpt>
      <trkpt lat="46.17662" lon="6.69234">
        <ele>1297</ele>
        <time>2013-06-30T08:30:38Z</time>
      </trkpt>
      <trkpt lat="46.17675" lon="6.69237">
        <ele>1287</ele>
        <time>2013-06-30T08:30:40Z</time>
      </trkpt>
      <trkpt lat="46.17693" lon="6.6928">
        <ele>1279</ele>
        <time>2013-06-30T08:30:45Z</time>
      </trkpt>
      <trkpt lat="46.17697" lon="6.693">
        <ele>1278</ele>
        <time>2013-06-30T08:30:48Z</time>
      </trkpt>
      <trkpt lat="46.17701" lon="6.69304">
        <ele>1278</ele>
        <time>2013-06-30T08:30:49Z</time>
      </trkpt>
      <trkpt lat="46.17721" lon="6.69323">
        <ele>1275</ele>
        <time>2013-06-30T08:30:54Z</time>
      </trkpt>
      <trkpt lat="46.1774" lon="6.69319">
        <ele>1273</ele>
        <time>2013-06-30T08:30:58Z</time>
      </trkpt>
      <trkpt lat="46.17769" lon="6.6929">
        <ele>1267</ele>
        <time>2013-06-30T08:31:04Z</time>
      </trkpt>
      <trkpt lat="46.17793" lon="6.69269">
        <ele>1267</ele>
        <time>2013-06-30T08:31:08Z</time>
      </trkpt>
      <trkpt lat="46.17812" lon="6.69248">
        <ele>1271</ele>
        <time>2013-06-30T08:31:11Z</time>
      </trkpt>
      <trkpt lat="46.17843" lon="6.69208">
        <ele>1260</ele>
        <time>2013-06-30T08:31:16Z</time>
      </trkpt>
      <trkpt lat="46.17868" lon="6.69157">
        <ele>1260</ele>
        <time>2013-06-30T08:31:21Z</time>
      </trkpt>
      <trkpt lat="46.1788" lon="6.69103">
        <ele>1257</ele>
        <time>2013-06-30T08:31:26Z</time>
      </trkpt>
      <trkpt lat="46.17881" lon="6.69091">
        <ele>1256</ele>
        <time>2013-06-30T08:31:27Z</time>
      </trkpt>
      <trkpt lat="46.17881" lon="6.69058">
        <ele>1254</ele>
        <time>2013-06-30T08:31:30Z</time>
      </trkpt>
      <trkpt lat="46.17869" lon="6.69019">
        <ele>1254</ele>
        <time>2013-06-30T08:31:34Z</time>
      </trkpt>
      <trkpt lat="46.17864" lon="6.69011">
        <ele>1255</ele>
        <time>2013-06-30T08:31:35Z</time>
      </trkpt>
      <trkpt lat="46.17855" lon="6.68998">
        <ele>1254</ele>
        <time>2013-06-30T08:31:37Z</time>
      </trkpt>
      <trkpt lat="46.17849" lon="6.68967">
        <ele>1252</ele>
        <time>2013-06-30T08:31:41Z</time>
      </trkpt>
      <trkpt lat="46.1785" lon="6.68952">
        <ele>1252</ele>
        <time>2013-06-30T08:31:46Z</time>
      </trkpt>
      <trkpt lat="46.1785" lon="6.68948">
        <ele>1252</ele>
        <time>2013-06-30T08:31:51Z</time>
      </trkpt>
      <trkpt lat="46.1785" lon="6.68934">
        <ele>1252</ele>
        <time>2013-06-30T08:31:55Z</time>
      </trkpt>
      <trkpt lat="46.17848" lon="6.68925">
        <ele>1253</ele>
        <time>2013-06-30T08:31:57Z</time>
      </trkpt>
      <trkpt lat="46.17856" lon="6.68914">
        <ele>1248</ele>
        <time>2013-06-30T08:32:01Z</time>
      </trkpt>
      <trkpt lat="46.1786" lon="6.6891">
        <ele>1247</ele>
        <time>2013-06-30T08:32:02Z</time>
      </trkpt>
      <trkpt lat="46.1788" lon="6.68896">
        <ele>1244</ele>
        <time>2013-06-30T08:32:08Z</time>
      </trkpt>
      <trkpt lat="46.17893" lon="6.68891">
        <ele>1243</ele>
        <time>2013-06-30T08:32:13Z</time>
      </trkpt>
      <trkpt lat="46.17898" lon="6.68886">
        <ele>1242</ele>
        <time>2013-06-30T08:32:15Z</time>
      </trkpt>
      <trkpt lat="46.17904" lon="6.68883">
        <ele>1242</ele>
        <time>2013-06-30T08:32:20Z</time>
      </trkpt>
      <trkpt lat="46.17917" lon="6.68883">
        <ele>1230</ele>
        <time>2013-06-30T08:32:45Z</time>
      </trkpt>
      <trkpt lat="46.17922" lon="6.68884">
        <ele>1230</ele>
        <time>2013-06-30T08:33:05Z</time>
      </trkpt>
      <trkpt lat="46.17925" lon="6.68879">
        <ele>1229</ele>
        <time>2013-06-30T08:33:13Z</time>
      </trkpt>
      <trkpt lat="46.17928" lon="6.68876">
        <ele>1229</ele>
        <time>2013-06-30T08:33:24Z</time>
      </trkpt>
      <trkpt lat="46.17913" lon="6.68877">
        <ele>1241</ele>
        <time>2013-06-30T08:33:39Z</time>
      </trkpt>
      <trkpt lat="46.17911" lon="6.68884">
        <ele>1241</ele>
        <time>2013-06-30T08:33:50Z</time>
      </trkpt>
      <trkpt lat="46.17908" lon="6.68881">
        <ele>1241</ele>
        <time>2013-06-30T08:33:53Z</time>
      </trkpt>
      <trkpt lat="46.17908" lon="6.68868">
        <ele>1241</ele>
        <time>2013-06-30T08:33:57Z</time>
      </trkpt>
      <trkpt lat="46.17919" lon="6.68848">
        <ele>1230</ele>
        <time>2013-06-30T08:34:02Z</time>
      </trkpt>
      <trkpt lat="46.17914" lon="6.68824">
        <ele>1233</ele>
        <time>2013-06-30T08:34:06Z</time>
      </trkpt>
      <trkpt lat="46.17905" lon="6.68818">
        <ele>1232</ele>
        <time>2013-06-30T08:34:09Z</time>
      </trkpt>
      <trkpt lat="46.17891" lon="6.68809">
        <ele>1231</ele>
        <time>2013-06-30T08:34:13Z</time>
      </trkpt>
      <trkpt lat="46.1788" lon="6.68796">
        <ele>1231</ele>
        <time>2013-06-30T08:34:15Z</time>
      </trkpt>
      <trkpt lat="46.17875" lon="6.68793">
        <ele>1231</ele>
        <time>2013-06-30T08:34:19Z</time>
      </trkpt>
      <trkpt lat="46.17885" lon="6.68798">
        <ele>1231</ele>
        <time>2013-06-30T08:34:41Z</time>
      </trkpt>
      <trkpt lat="46.1789" lon="6.688">
        <ele>1231</ele>
        <time>2013-06-30T08:34:52Z</time>
      </trkpt>
      <trkpt lat="46.17884" lon="6.68792">
        <ele>1230</ele>
        <time>2013-06-30T08:35:50Z</time>
      </trkpt>
      <trkpt lat="46.17882" lon="6.68792">
        <ele>1230</ele>
        <time>2013-06-30T08:35:58Z</time>
      </trkpt>
      <trkpt lat="46.17874" lon="6.68792">
        <ele>1231</ele>
        <time>2013-06-30T08:36:02Z</time>
      </trkpt>
      <trkpt lat="46.17863" lon="6.68791">
        <ele>1231</ele>
        <time>2013-06-30T08:36:05Z</time>
      </trkpt>
      <trkpt lat="46.17845" lon="6.68786">
        <ele>1231</ele>
        <time>2013-06-30T08:36:10Z</time>
      </trkpt>
      <trkpt lat="46.17836" lon="6.68773">
        <ele>1229</ele>
        <time>2013-06-30T08:36:15Z</time>
      </trkpt>
      <trkpt lat="46.17837" lon="6.68759">
        <ele>1228</ele>
        <time>2013-06-30T08:36:19Z</time>
      </trkpt>
      <trkpt lat="46.17831" lon="6.68732">
        <ele>1227</ele>
        <time>2013-06-30T08:36:24Z</time>
      </trkpt>
      <trkpt lat="46.17822" lon="6.68706">
        <ele>1224</ele>
        <time>2013-06-30T08:36:29Z</time>
      </trkpt>
      <trkpt lat="46.17808" lon="6.68684">
        <ele>1222</ele>
        <time>2013-06-30T08:36:34Z</time>
      </trkpt>
      <trkpt lat="46.17805" lon="6.68665">
        <ele>1207</ele>
        <time>2013-06-30T08:36:37Z</time>
      </trkpt>
      <trkpt lat="46.17801" lon="6.68635">
        <ele>1205</ele>
        <time>2013-06-30T08:36:43Z</time>
      </trkpt>
      <trkpt lat="46.178" lon="6.68629">
        <ele>1204</ele>
        <time>2013-06-30T08:36:47Z</time>
      </trkpt>
      <trkpt lat="46.17801" lon="6.68628">
        <ele>1204</ele>
        <time>2013-06-30T08:36:48Z</time>
      </trkpt>
      <trkpt lat="46.17812" lon="6.68629">
        <ele>1203</ele>
        <time>2013-06-30T08:36:52Z</time>
      </trkpt>
      <trkpt lat="46.17846" lon="6.68634">
        <ele>1193</ele>
        <time>2013-06-30T08:36:59Z</time>
      </trkpt>
      <trkpt lat="46.1786" lon="6.68634">
        <ele>1193</ele>
        <time>2013-06-30T08:37:02Z</time>
      </trkpt>
      <trkpt lat="46.17888" lon="6.68633">
        <ele>1192</ele>
        <time>2013-06-30T08:37:07Z</time>
      </trkpt>
      <trkpt lat="46.17909" lon="6.68629">
        <ele>1191</ele>
        <time>2013-06-30T08:37:11Z</time>
      </trkpt>
      <trkpt lat="46.17926" lon="6.68623">
        <ele>1184</ele>
        <time>2013-06-30T08:37:16Z</time>
      </trkpt>
      <trkpt lat="46.17934" lon="6.68623">
        <ele>1184</ele>
        <time>2013-06-30T08:37:18Z</time>
      </trkpt>
      <trkpt lat="46.17951" lon="6.68633">
        <ele>1184</ele>
        <time>2013-06-30T08:37:22Z</time>
      </trkpt>
      <trkpt lat="46.17966" lon="6.6865">
        <ele>1185</ele>
        <time>2013-06-30T08:37:25Z</time>
      </trkpt>
      <trkpt lat="46.17983" lon="6.68656">
        <ele>1185</ele>
        <time>2013-06-30T08:37:29Z</time>
      </trkpt>
      <trkpt lat="46.17995" lon="6.6866">
        <ele>1187</ele>
        <time>2013-06-30T08:37:32Z</time>
      </trkpt>
      <trkpt lat="46.18008" lon="6.6867">
        <ele>1190</ele>
        <time>2013-06-30T08:37:36Z</time>
      </trkpt>
      <trkpt lat="46.18019" lon="6.68678">
        <ele>1191</ele>
        <time>2013-06-30T08:37:38Z</time>
      </trkpt>
      <trkpt lat="46.18045" lon="6.68697">
        <ele>1191</ele>
        <time>2013-06-30T08:37:43Z</time>
      </trkpt>
      <trkpt lat="46.1806" lon="6.68704">
        <ele>1190</ele>
        <time>2013-06-30T08:37:46Z</time>
      </trkpt>
      <trkpt lat="46.18089" lon="6.68703">
        <ele>1179</ele>
        <time>2013-06-30T08:37:51Z</time>
      </trkpt>
      <trkpt lat="46.18111" lon="6.68709">
        <ele>1179</ele>
        <time>2013-06-30T08:37:56Z</time>
      </trkpt>
      <trkpt lat="46.18123" lon="6.68708">
        <ele>1178</ele>
        <time>2013-06-30T08:38:00Z</time>
      </trkpt>
      <trkpt lat="46.18131" lon="6.68707">
        <ele>1177</ele>
        <time>2013-06-30T08:38:04Z</time>
      </trkpt>
      <trkpt lat="46.18142" lon="6.68707">
        <ele>1177</ele>
        <time>2013-06-30T08:38:08Z</time>
      </trkpt>
      <trkpt lat="46.1816" lon="6.68708">
        <ele>1176</ele>
        <time>2013-06-30T08:38:14Z</time>
      </trkpt>
      <trkpt lat="46.18174" lon="6.68716">
        <ele>1174</ele>
        <time>2013-06-30T08:38:18Z</time>
      </trkpt>
      <trkpt lat="46.18193" lon="6.68736">
        <ele>1174</ele>
        <time>2013-06-30T08:38:24Z</time>
      </trkpt>
      <trkpt lat="46.18206" lon="6.68756">
        <ele>1175</ele>
        <time>2013-06-30T08:38:30Z</time>
      </trkpt>
      <trkpt lat="46.18211" lon="6.68771">
        <ele>1175</ele>
        <time>2013-06-30T08:38:34Z</time>
      </trkpt>
      <trkpt lat="46.18214" lon="6.68782">
        <ele>1176</ele>
        <time>2013-06-30T08:38:37Z</time>
      </trkpt>
      <trkpt lat="46.18228" lon="6.68798">
        <ele>1176</ele>
        <time>2013-06-30T08:38:43Z</time>
      </trkpt>
      <trkpt lat="46.18239" lon="6.68828">
        <ele>1175</ele>
        <time>2013-06-30T08:38:51Z</time>
      </trkpt>
      <trkpt lat="46.1824" lon="6.68844">
        <ele>1179</ele>
        <time>2013-06-30T08:38:57Z</time>
      </trkpt>
      <trkpt lat="46.1824" lon="6.68847">
        <ele>1180</ele>
        <time>2013-06-30T08:38:58Z</time>
      </trkpt>
      <trkpt lat="46.18249" lon="6.68855">
        <ele>1181</ele>
        <time>2013-06-30T08:39:02Z</time>
      </trkpt>
      <trkpt lat="46.18265" lon="6.68859">
        <ele>1176</ele>
        <time>2013-06-30T08:39:08Z</time>
      </trkpt>
      <trkpt lat="46.18278" lon="6.68863">
        <ele>1175</ele>
        <time>2013-06-30T08:39:13Z</time>
      </trkpt>
      <trkpt lat="46.18295" lon="6.68861">
        <ele>1175</ele>
        <time>2013-06-30T08:39:17Z</time>
      </trkpt>
      <trkpt lat="46.18331" lon="6.68855">
        <ele>1173</ele>
        <time>2013-06-30T08:39:23Z</time>
      </trkpt>
      <trkpt lat="46.18359" lon="6.6885">
        <ele>1166</ele>
        <time>2013-06-30T08:39:28Z</time>
      </trkpt>
      <trkpt lat="46.18383" lon="6.68848">
        <ele>1164</ele>
        <time>2013-06-30T08:39:34Z</time>
      </trkpt>
      <trkpt lat="46.18394" lon="6.68867">
        <ele>1163</ele>
        <time>2013-06-30T08:39:39Z</time>
      </trkpt>
      <trkpt lat="46.18401" lon="6.68878">
        <ele>1162</ele>
        <time>2013-06-30T08:39:42Z</time>
      </trkpt>
      <trkpt lat="46.1842" lon="6.68905">
        <ele>1156</ele>
        <time>2013-06-30T08:39:47Z</time>
      </trkpt>
      <trkpt lat="46.18424" lon="6.68909">
        <ele>1155</ele>
        <time>2013-06-30T08:39:48Z</time>
      </trkpt>
      <trkpt lat="46.18442" lon="6.68927">
        <ele>1147</ele>
        <time>2013-06-30T08:39:52Z</time>
      </trkpt>
      <trkpt lat="46.18447" lon="6.68928">
        <ele>1146</ele>
        <time>2013-06-30T08:39:53Z</time>
      </trkpt>
      <trkpt lat="46.18464" lon="6.68926">
        <ele>1145</ele>
        <time>2013-06-30T08:39:56Z</time>
      </trkpt>
      <trkpt lat="46.18495" lon="6.68933">
        <ele>1146</ele>
        <time>2013-06-30T08:40:01Z</time>
      </trkpt>
      <trkpt lat="46.18506" lon="6.68937">
        <ele>1141</ele>
        <time>2013-06-30T08:40:03Z</time>
      </trkpt>
      <trkpt lat="46.18518" lon="6.68939">
        <ele>1139</ele>
        <time>2013-06-30T08:40:05Z</time>
      </trkpt>
      <trkpt lat="46.18534" lon="6.68947">
        <ele>1136</ele>
        <time>2013-06-30T08:40:08Z</time>
      </trkpt>
      <trkpt lat="46.1856" lon="6.68966">
        <ele>1132</ele>
        <time>2013-06-30T08:40:14Z</time>
      </trkpt>
      <trkpt lat="46.18573" lon="6.68967">
        <ele>1131</ele>
        <time>2013-06-30T08:40:19Z</time>
      </trkpt>
      <trkpt lat="46.18586" lon="6.68972">
        <ele>1125</ele>
        <time>2013-06-30T08:40:25Z</time>
      </trkpt>
      <trkpt lat="46.1859" lon="6.68971">
        <ele>1125</ele>
        <time>2013-06-30T08:40:27Z</time>
      </trkpt>
      <trkpt lat="46.18596" lon="6.68977">
        <ele>1124</ele>
        <time>2013-06-30T08:40:31Z</time>
      </trkpt>
      <trkpt lat="46.18604" lon="6.6899">
        <ele>1123</ele>
        <time>2013-06-30T08:40:37Z</time>
      </trkpt>
      <trkpt lat="46.18607" lon="6.68995">
        <ele>1123</ele>
        <time>2013-06-30T08:40:40Z</time>
      </trkpt>
      <trkpt lat="46.18598" lon="6.69007">
        <ele>1114</ele>
        <time>2013-06-30T08:40:44Z</time>
      </trkpt>
      <trkpt lat="46.18595" lon="6.69011">
        <ele>1114</ele>
        <time>2013-06-30T08:40:45Z</time>
      </trkpt>
      <trkpt lat="46.18574" lon="6.69041">
        <ele>1114</ele>
        <time>2013-06-30T08:40:52Z</time>
      </trkpt>
      <trkpt lat="46.18563" lon="6.6908">
        <ele>1110</ele>
        <time>2013-06-30T08:40:57Z</time>
      </trkpt>
      <trkpt lat="46.18547" lon="6.69134">
        <ele>1101</ele>
        <time>2013-06-30T08:41:04Z</time>
      </trkpt>
      <trkpt lat="46.18521" lon="6.69187">
        <ele>1090</ele>
        <time>2013-06-30T08:41:10Z</time>
      </trkpt>
      <trkpt lat="46.18496" lon="6.69232">
        <ele>1090</ele>
        <time>2013-06-30T08:41:16Z</time>
      </trkpt>
      <trkpt lat="46.18492" lon="6.69238">
        <ele>1089</ele>
        <time>2013-06-30T08:41:17Z</time>
      </trkpt>
      <trkpt lat="46.18467" lon="6.69272">
        <ele>1078</ele>
        <time>2013-06-30T08:41:22Z</time>
      </trkpt>
      <trkpt lat="46.18426" lon="6.69305">
        <ele>1075</ele>
        <time>2013-06-30T08:41:27Z</time>
      </trkpt>
      <trkpt lat="46.18386" lon="6.69337">
        <ele>1068</ele>
        <time>2013-06-30T08:41:32Z</time>
      </trkpt>
      <trkpt lat="46.18352" lon="6.69365">
        <ele>1070</ele>
        <time>2013-06-30T08:41:37Z</time>
      </trkpt>
      <trkpt lat="46.18338" lon="6.69378">
        <ele>1067</ele>
        <time>2013-06-30T08:41:39Z</time>
      </trkpt>
      <trkpt lat="46.18307" lon="6.69425">
        <ele>1058</ele>
        <time>2013-06-30T08:41:44Z</time>
      </trkpt>
      <trkpt lat="46.18278" lon="6.6946">
        <ele>1057</ele>
        <time>2013-06-30T08:41:48Z</time>
      </trkpt>
      <trkpt lat="46.18253" lon="6.695">
        <ele>1053</ele>
        <time>2013-06-30T08:41:52Z</time>
      </trkpt>
      <trkpt lat="46.1823" lon="6.69534">
        <ele>1051</ele>
        <time>2013-06-30T08:41:56Z</time>
      </trkpt>
      <trkpt lat="46.18198" lon="6.69584">
        <ele>1033</ele>
        <time>2013-06-30T08:42:01Z</time>
      </trkpt>
      <trkpt lat="46.18156" lon="6.69661">
        <ele>1038</ele>
        <time>2013-06-30T08:42:08Z</time>
      </trkpt>
      <trkpt lat="46.18144" lon="6.69681">
        <ele>1032</ele>
        <time>2013-06-30T08:42:10Z</time>
      </trkpt>
      <trkpt lat="46.18097" lon="6.69756">
        <ele>1026</ele>
        <time>2013-06-30T08:42:17Z</time>
      </trkpt>
      <trkpt lat="46.18061" lon="6.69802">
        <ele>1031</ele>
        <time>2013-06-30T08:42:22Z</time>
      </trkpt>
      <trkpt lat="46.18047" lon="6.69821">
        <ele>1030</ele>
        <time>2013-06-30T08:42:25Z</time>
      </trkpt>
      <trkpt lat="46.18045" lon="6.69823">
        <ele>1030</ele>
        <time>2013-06-30T08:42:28Z</time>
      </trkpt>
      <trkpt lat="46.18045" lon="6.69828">
        <ele>1030</ele>
        <time>2013-06-30T08:43:58Z</time>
      </trkpt>
      <trkpt lat="46.18048" lon="6.6983">
        <ele>1029</ele>
        <time>2013-06-30T08:44:03Z</time>
      </trkpt>
      <trkpt lat="46.18053" lon="6.69829">
        <ele>1028</ele>
        <time>2013-06-30T08:44:17Z</time>
      </trkpt>
      <trkpt lat="46.1805" lon="6.69829">
        <ele>1029</ele>
        <time>2013-06-30T08:44:29Z</time>
      </trkpt>
      <trkpt lat="46.18049" lon="6.69829">
        <ele>1029</ele>
        <time>2013-06-30T08:44:35Z</time>
      </trkpt>
      <trkpt lat="46.1805" lon="6.69828">
        <ele>1029</ele>
        <time>2013-06-30T08:44:45Z</time>
      </trkpt>
      <trkpt lat="46.1805" lon="6.69828">
        <ele>1029</ele>
        <time>2013-06-30T08:44:51Z</time>
      </trkpt>
      <trkpt lat="46.18054" lon="6.69827">
        <ele>1028</ele>
        <time>2013-06-30T08:44:56Z</time>
      </trkpt>
      <trkpt lat="46.18054" lon="6.69828">
        <ele>1028</ele>
        <time>2013-06-30T08:45:06Z</time>
      </trkpt>
      <trkpt lat="46.18055" lon="6.69827">
        <ele>1027</ele>
        <time>2013-06-30T08:46:26Z</time>
      </trkpt>
      <trkpt lat="46.18049" lon="6.69841">
        <ele>1013</ele>
        <time>2013-06-30T08:46:31Z</time>
      </trkpt>
      <trkpt lat="46.18039" lon="6.69871">
        <ele>1011</ele>
        <time>2013-06-30T08:46:35Z</time>
      </trkpt>
      <trkpt lat="46.18025" lon="6.69905">
        <ele>1008</ele>
        <time>2013-06-30T08:46:39Z</time>
      </trkpt>
      <trkpt lat="46.18024" lon="6.69939">
        <ele>997</ele>
        <time>2013-06-30T08:46:43Z</time>
      </trkpt>
      <trkpt lat="46.18031" lon="6.6995">
        <ele>996</ele>
        <time>2013-06-30T08:46:45Z</time>
      </trkpt>
      <trkpt lat="46.18043" lon="6.6999">
        <ele>993</ele>
        <time>2013-06-30T08:46:50Z</time>
      </trkpt>
      <trkpt lat="46.18039" lon="6.70011">
        <ele>988</ele>
        <time>2013-06-30T08:46:52Z</time>
      </trkpt>
      <trkpt lat="46.18032" lon="6.70042">
        <ele>987</ele>
        <time>2013-06-30T08:46:56Z</time>
      </trkpt>
      <trkpt lat="46.18036" lon="6.70065">
        <ele>986</ele>
        <time>2013-06-30T08:47:00Z</time>
      </trkpt>
      <trkpt lat="46.18043" lon="6.70067">
        <ele>986</ele>
        <time>2013-06-30T08:47:02Z</time>
      </trkpt>
      <trkpt lat="46.18054" lon="6.70065">
        <ele>986</ele>
        <time>2013-06-30T08:47:05Z</time>
      </trkpt>
      <trkpt lat="46.18072" lon="6.70073">
        <ele>984</ele>
        <time>2013-06-30T08:47:09Z</time>
      </trkpt>
      <trkpt lat="46.1808" lon="6.70087">
        <ele>981</ele>
        <time>2013-06-30T08:47:11Z</time>
      </trkpt>
      <trkpt lat="46.18093" lon="6.70107">
        <ele>980</ele>
        <time>2013-06-30T08:47:14Z</time>
      </trkpt>
      <trkpt lat="46.18104" lon="6.70126">
        <ele>979</ele>
        <time>2013-06-30T08:47:19Z</time>
      </trkpt>
      <trkpt lat="46.18113" lon="6.70121">
        <ele>979</ele>
        <time>2013-06-30T08:47:23Z</time>
      </trkpt>
      <trkpt lat="46.18116" lon="6.70117">
        <ele>979</ele>
        <time>2013-06-30T08:47:24Z</time>
      </trkpt>
      <trkpt lat="46.18123" lon="6.70105">
        <ele>979</ele>
        <time>2013-06-30T08:47:27Z</time>
      </trkpt>
      <trkpt lat="46.18138" lon="6.70104">
        <ele>979</ele>
        <time>2013-06-30T08:47:31Z</time>
      </trkpt>
      <trkpt lat="46.1814" lon="6.7012">
        <ele>979</ele>
        <time>2013-06-30T08:47:33Z</time>
      </trkpt>
      <trkpt lat="46.18138" lon="6.702">
        <ele>978</ele>
        <time>2013-06-30T08:47:43Z</time>
      </trkpt>
      <trkpt lat="46.18139" lon="6.7024">
        <ele>977</ele>
        <time>2013-06-30T08:47:48Z</time>
      </trkpt>
      <trkpt lat="46.18138" lon="6.70302">
        <ele>976</ele>
        <time>2013-06-30T08:47:57Z</time>
      </trkpt>
      <trkpt lat="46.1814" lon="6.70332">
        <ele>976</ele>
        <time>2013-06-30T08:48:03Z</time>
      </trkpt>
      <trkpt lat="46.18143" lon="6.70337">
        <ele>977</ele>
        <time>2013-06-30T08:48:05Z</time>
      </trkpt>
      <trkpt lat="46.18153" lon="6.70345">
        <ele>977</ele>
        <time>2013-06-30T08:48:10Z</time>
      </trkpt>
      <trkpt lat="46.18159" lon="6.7035">
        <ele>977</ele>
        <time>2013-06-30T08:48:13Z</time>
      </trkpt>
      <trkpt lat="46.18165" lon="6.7036">
        <ele>977</ele>
        <time>2013-06-30T08:48:19Z</time>
      </trkpt>
      <trkpt lat="46.18167" lon="6.70365">
        <ele>974</ele>
        <time>2013-06-30T08:48:21Z</time>
      </trkpt>
      <trkpt lat="46.18175" lon="6.70376">
        <ele>974</ele>
        <time>2013-06-30T08:48:26Z</time>
      </trkpt>
      <trkpt lat="46.18186" lon="6.70372">
        <ele>974</ele>
        <time>2013-06-30T08:48:30Z</time>
      </trkpt>
      <trkpt lat="46.18191" lon="6.70366">
        <ele>974</ele>
        <time>2013-06-30T08:48:32Z</time>
      </trkpt>
      <trkpt lat="46.18203" lon="6.70346">
        <ele>974</ele>
        <time>2013-06-30T08:48:37Z</time>
      </trkpt>
      <trkpt lat="46.18222" lon="6.70317">
        <ele>974</ele>
        <time>2013-06-30T08:48:44Z</time>
      </trkpt>
      <trkpt lat="46.18228" lon="6.70308">
        <ele>974</ele>
        <time>2013-06-30T08:48:48Z</time>
      </trkpt>
      <trkpt lat="46.18231" lon="6.70299">
        <ele>974</ele>
        <time>2013-06-30T08:48:56Z</time>
      </trkpt>
      <trkpt lat="46.18233" lon="6.70293">
        <ele>974</ele>
        <time>2013-06-30T08:48:59Z</time>
      </trkpt>
      <trkpt lat="46.18241" lon="6.70282">
        <ele>974</ele>
        <time>2013-06-30T08:49:04Z</time>
      </trkpt>
      <trkpt lat="46.18255" lon="6.70265">
        <ele>972</ele>
        <time>2013-06-30T08:49:10Z</time>
      </trkpt>
      <trkpt lat="46.18275" lon="6.70237">
        <ele>971</ele>
        <time>2013-06-30T08:49:17Z</time>
      </trkpt>
      <trkpt lat="46.18278" lon="6.70233">
        <ele>971</ele>
        <time>2013-06-30T08:49:18Z</time>
      </trkpt>
      <trkpt lat="46.18291" lon="6.70235">
        <ele>971</ele>
        <time>2013-06-30T08:49:22Z</time>
      </trkpt>
      <trkpt lat="46.18297" lon="6.70244">
        <ele>971</ele>
        <time>2013-06-30T08:49:24Z</time>
      </trkpt>
      <trkpt lat="46.18322" lon="6.70285">
        <ele>971</ele>
        <time>2013-06-30T08:49:34Z</time>
      </trkpt>
      <trkpt lat="46.18333" lon="6.70306">
        <ele>970</ele>
        <time>2013-06-30T08:49:40Z</time>
      </trkpt>
      <trkpt lat="46.18345" lon="6.70327">
        <ele>966</ele>
        <time>2013-06-30T08:49:47Z</time>
      </trkpt>
      <trkpt lat="46.18353" lon="6.70335">
        <ele>961</ele>
        <time>2013-06-30T08:49:52Z</time>
      </trkpt>
      <trkpt lat="46.18355" lon="6.70334">
        <ele>960</ele>
        <time>2013-06-30T08:49:56Z</time>
      </trkpt>
      <trkpt lat="46.18357" lon="6.70332">
        <ele>965</ele>
        <time>2013-06-30T08:50:07Z</time>
      </trkpt>
      <trkpt lat="46.1836" lon="6.70332">
        <ele>964</ele>
        <time>2013-06-30T08:50:17Z</time>
      </trkpt>
      <trkpt lat="46.18363" lon="6.70334">
        <ele>959</ele>
        <time>2013-06-30T08:50:35Z</time>
      </trkpt>
      <trkpt lat="46.18359" lon="6.7034">
        <ele>959</ele>
        <time>2013-06-30T08:50:44Z</time>
      </trkpt>
      <trkpt lat="46.18353" lon="6.70341">
        <ele>960</ele>
        <time>2013-06-30T08:50:55Z</time>
      </trkpt>
      <trkpt lat="46.18354" lon="6.70343">
        <ele>960</ele>
        <time>2013-06-30T08:51:10Z</time>
      </trkpt>
      <trkpt lat="46.18354" lon="6.70345">
        <ele>960</ele>
        <time>2013-06-30T08:51:22Z</time>
      </trkpt>
      <trkpt lat="46.18363" lon="6.70355">
        <ele>957</ele>
        <time>2013-06-30T08:51:28Z</time>
      </trkpt>
      <trkpt lat="46.18378" lon="6.70379">
        <ele>954</ele>
        <time>2013-06-30T08:51:34Z</time>
      </trkpt>
      <trkpt lat="46.18399" lon="6.70426">
        <ele>947</ele>
        <time>2013-06-30T08:51:44Z</time>
      </trkpt>
      <trkpt lat="46.18425" lon="6.70479">
        <ele>953</ele>
        <time>2013-06-30T08:51:56Z</time>
      </trkpt>
      <trkpt lat="46.18451" lon="6.70531">
        <ele>967</ele>
        <time>2013-06-30T08:52:08Z</time>
      </trkpt>
      <trkpt lat="46.18469" lon="6.70563">
        <ele>972</ele>
        <time>2013-06-30T08:52:16Z</time>
      </trkpt>
      <trkpt lat="46.18501" lon="6.70626">
        <ele>999</ele>
        <time>2013-06-30T08:52:31Z</time>
      </trkpt>
      <trkpt lat="46.18519" lon="6.70662">
        <ele>1004</ele>
        <time>2013-06-30T08:52:40Z</time>
      </trkpt>
      <trkpt lat="46.18536" lon="6.70696">
        <ele>1026</ele>
        <time>2013-06-30T08:52:49Z</time>
      </trkpt>
      <trkpt lat="46.18556" lon="6.70734">
        <ele>1036</ele>
        <time>2013-06-30T08:52:59Z</time>
      </trkpt>
      <trkpt lat="46.18579" lon="6.70778">
        <ele>1062</ele>
        <time>2013-06-30T08:53:11Z</time>
      </trkpt>
      <trkpt lat="46.18602" lon="6.70823">
        <ele>1092</ele>
        <time>2013-06-30T08:53:24Z</time>
      </trkpt>
      <trkpt lat="46.1862" lon="6.70857">
        <ele>1118</ele>
        <time>2013-06-30T08:53:34Z</time>
      </trkpt>
      <trkpt lat="46.18639" lon="6.7089">
        <ele>1128</ele>
        <time>2013-06-30T08:53:44Z</time>
      </trkpt>
      <trkpt lat="46.18654" lon="6.7092">
        <ele>1150</ele>
        <time>2013-06-30T08:53:52Z</time>
      </trkpt>
      <trkpt lat="46.18673" lon="6.70956">
        <ele>1174</ele>
        <time>2013-06-30T08:54:02Z</time>
      </trkpt>
      <trkpt lat="46.18697" lon="6.71002">
        <ele>1195</ele>
        <time>2013-06-30T08:54:15Z</time>
      </trkpt>
      <trkpt lat="46.18714" lon="6.71033">
        <ele>1204</ele>
        <time>2013-06-30T08:54:24Z</time>
      </trkpt>
      <trkpt lat="46.18737" lon="6.71078">
        <ele>1222</ele>
        <time>2013-06-30T08:54:37Z</time>
      </trkpt>
      <trkpt lat="46.18747" lon="6.71096">
        <ele>1234</ele>
        <time>2013-06-30T08:54:42Z</time>
      </trkpt>
      <trkpt lat="46.18761" lon="6.71124">
        <ele>1256</ele>
        <time>2013-06-30T08:54:50Z</time>
      </trkpt>
      <trkpt lat="46.18781" lon="6.71162">
        <ele>1263</ele>
        <time>2013-06-30T08:55:01Z</time>
      </trkpt>
      <trkpt lat="46.18803" lon="6.712">
        <ele>1285</ele>
        <time>2013-06-30T08:55:12Z</time>
      </trkpt>
      <trkpt lat="46.18815" lon="6.71223">
        <ele>1290</ele>
        <time>2013-06-30T08:55:18Z</time>
      </trkpt>
      <trkpt lat="46.18842" lon="6.71274">
        <ele>1319</ele>
        <time>2013-06-30T08:55:32Z</time>
      </trkpt>
      <trkpt lat="46.18868" lon="6.71323">
        <ele>1329</ele>
        <time>2013-06-30T08:55:45Z</time>
      </trkpt>
      <trkpt lat="46.18899" lon="6.7138">
        <ele>1350</ele>
        <time>2013-06-30T08:56:00Z</time>
      </trkpt>
      <trkpt lat="46.18938" lon="6.71455">
        <ele>1374</ele>
        <time>2013-06-30T08:56:20Z</time>
      </trkpt>
      <trkpt lat="46.18962" lon="6.715">
        <ele>1394</ele>
        <time>2013-06-30T08:56:32Z</time>
      </trkpt>
      <trkpt lat="46.18993" lon="6.71558">
        <ele>1403</ele>
        <time>2013-06-30T08:56:47Z</time>
      </trkpt>
      <trkpt lat="46.1902" lon="6.7161">
        <ele>1420</ele>
        <time>2013-06-30T08:57:01Z</time>
      </trkpt>
      <trkpt lat="46.19049" lon="6.71663">
        <ele>1426</ele>
        <time>2013-06-30T08:57:15Z</time>
      </trkpt>
      <trkpt lat="46.19081" lon="6.71723">
        <ele>1443</ele>
        <time>2013-06-30T08:57:31Z</time>
      </trkpt>
      <trkpt lat="46.19094" lon="6.71746">
        <ele>1451</ele>
        <time>2013-06-30T08:57:37Z</time>
      </trkpt>
      <trkpt lat="46.19109" lon="6.7177">
        <ele>1458</ele>
        <time>2013-06-30T08:57:45Z</time>
      </trkpt>
      <trkpt lat="46.19109" lon="6.7177">
        <ele>1458</ele>
        <time>2013-06-30T08:57:50Z</time>
      </trkpt>
      <trkpt lat="46.19108" lon="6.7177">
        <ele>1458</ele>
        <time>2013-06-30T08:58:01Z</time>
      </trkpt>
      <trkpt lat="46.19109" lon="6.71775">
        <ele>1459</ele>
        <time>2013-06-30T08:58:11Z</time>
      </trkpt>
      <trkpt lat="46.19112" lon="6.71782">
        <ele>1459</ele>
        <time>2013-06-30T08:58:19Z</time>
      </trkpt>
      <trkpt lat="46.19111" lon="6.7179">
        <ele>1460</ele>
        <time>2013-06-30T08:58:26Z</time>
      </trkpt>
      <trkpt lat="46.19109" lon="6.71802">
        <ele>1460</ele>
        <time>2013-06-30T08:58:33Z</time>
      </trkpt>
      <trkpt lat="46.19109" lon="6.71804">
        <ele>1460</ele>
        <time>2013-06-30T08:58:36Z</time>
      </trkpt>
      <trkpt lat="46.19106" lon="6.71808">
        <ele>1460</ele>
        <time>2013-06-30T08:58:43Z</time>
      </trkpt>
      <trkpt lat="46.19106" lon="6.7181">
        <ele>1461</ele>
        <time>2013-06-30T08:58:53Z</time>
      </trkpt>
      <trkpt lat="46.19106" lon="6.71811">
        <ele>1461</ele>
        <time>2013-06-30T08:59:22Z</time>
      </trkpt>
      <trkpt lat="46.19104" lon="6.71811">
        <ele>1460</ele>
        <time>2013-06-30T08:59:30Z</time>
      </trkpt>
      <trkpt lat="46.19103" lon="6.71811">
        <ele>1460</ele>
        <time>2013-06-30T08:59:32Z</time>
      </trkpt>
      <trkpt lat="46.19091" lon="6.71801">
        <ele>1460</ele>
        <time>2013-06-30T08:59:38Z</time>
      </trkpt>
      <trkpt lat="46.19087" lon="6.718">
        <ele>1460</ele>
        <time>2013-06-30T08:59:39Z</time>
      </trkpt>
      <trkpt lat="46.19062" lon="6.71799">
        <ele>1454</ele>
        <time>2013-06-30T08:59:45Z</time>
      </trkpt>
      <trkpt lat="46.19047" lon="6.71787">
        <ele>1452</ele>
        <time>2013-06-30T08:59:49Z</time>
      </trkpt>
      <trkpt lat="46.19045" lon="6.71784">
        <ele>1452</ele>
        <time>2013-06-30T08:59:50Z</time>
      </trkpt>
      <trkpt lat="46.19039" lon="6.71777">
        <ele>1451</ele>
        <time>2013-06-30T08:59:58Z</time>
      </trkpt>
      <trkpt lat="46.19039" lon="6.71776">
        <ele>1451</ele>
        <time>2013-06-30T09:00:05Z</time>
      </trkpt>
      <trkpt lat="46.19036" lon="6.71772">
        <ele>1450</ele>
        <time>2013-06-30T09:00:36Z</time>
      </trkpt>
      <trkpt lat="46.19034" lon="6.71771">
        <ele>1450</ele>
        <time>2013-06-30T09:00:51Z</time>
      </trkpt>
      <trkpt lat="46.19033" lon="6.7177">
        <ele>1450</ele>
        <time>2013-06-30T09:00:59Z</time>
      </trkpt>
      <trkpt lat="46.19032" lon="6.7177">
        <ele>1450</ele>
        <time>2013-06-30T09:01:19Z</time>
      </trkpt>
      <trkpt lat="46.1903" lon="6.71769">
        <ele>1450</ele>
        <time>2013-06-30T09:01:28Z</time>
      </trkpt>
      <trkpt lat="46.19029" lon="6.71769">
        <ele>1449</ele>
        <time>2013-06-30T09:01:36Z</time>
      </trkpt>
      <trkpt lat="46.19027" lon="6.71769">
        <ele>1449</ele>
        <time>2013-06-30T09:01:44Z</time>
      </trkpt>
      <trkpt lat="46.19027" lon="6.7177">
        <ele>1449</ele>
        <time>2013-06-30T09:01:56Z</time>
      </trkpt>
      <trkpt lat="46.19027" lon="6.71771">
        <ele>1449</ele>
        <time>2013-06-30T09:02:24Z</time>
      </trkpt>
      <trkpt lat="46.19025" lon="6.71772">
        <ele>1449</ele>
        <time>2013-06-30T09:02:31Z</time>
      </trkpt>
      <trkpt lat="46.19024" lon="6.71774">
        <ele>1449</ele>
        <time>2013-06-30T09:02:44Z</time>
      </trkpt>
      <trkpt lat="46.19023" lon="6.71777">
        <ele>1450</ele>
        <time>2013-06-30T09:02:52Z</time>
      </trkpt>
      <trkpt lat="46.19023" lon="6.71778">
        <ele>1450</ele>
        <time>2013-06-30T09:03:01Z</time>
      </trkpt>
      <trkpt lat="46.19022" lon="6.71778">
        <ele>1450</ele>
        <time>2013-06-30T09:03:20Z</time>
      </trkpt>
      <trkpt lat="46.19023" lon="6.7178">
        <ele>1450</ele>
        <time>2013-06-30T09:03:31Z</time>
      </trkpt>
      <trkpt lat="46.19023" lon="6.71783">
        <ele>1450</ele>
        <time>2013-06-30T09:03:40Z</time>
      </trkpt>
      <trkpt lat="46.19022" lon="6.71785">
        <ele>1450</ele>
        <time>2013-06-30T09:03:50Z</time>
      </trkpt>
      <trkpt lat="46.19022" lon="6.71789">
        <ele>1451</ele>
        <time>2013-06-30T09:03:58Z</time>
      </trkpt>
      <trkpt lat="46.19023" lon="6.71792">
        <ele>1451</ele>
        <time>2013-06-30T09:04:11Z</time>
      </trkpt>
      <trkpt lat="46.19024" lon="6.71795">
        <ele>1451</ele>
        <time>2013-06-30T09:04:18Z</time>
      </trkpt>
      <trkpt lat="46.19025" lon="6.71797">
        <ele>1451</ele>
        <time>2013-06-30T09:04:26Z</time>
      </trkpt>
      <trkpt lat="46.19026" lon="6.718">
        <ele>1452</ele>
        <time>2013-06-30T09:04:34Z</time>
      </trkpt>
      <trkpt lat="46.19025" lon="6.71802">
        <ele>1452</ele>
        <time>2013-06-30T09:04:50Z</time>
      </trkpt>
      <trkpt lat="46.19027" lon="6.71804">
        <ele>1452</ele>
        <time>2013-06-30T09:05:00Z</time>
      </trkpt>
      <trkpt lat="46.19028" lon="6.71804">
        <ele>1452</ele>
        <time>2013-06-30T09:05:13Z</time>
      </trkpt>
      <trkpt lat="46.19028" lon="6.71805">
        <ele>1452</ele>
        <time>2013-06-30T09:05:21Z</time>
      </trkpt>
      <trkpt lat="46.19029" lon="6.71808">
        <ele>1452</ele>
        <time>2013-06-30T09:05:34Z</time>
      </trkpt>
      <trkpt lat="46.1903" lon="6.71811">
        <ele>1452</ele>
        <time>2013-06-30T09:05:43Z</time>
      </trkpt>
      <trkpt lat="46.1903" lon="6.71815">
        <ele>1453</ele>
        <time>2013-06-30T09:05:50Z</time>
      </trkpt>
      <trkpt lat="46.1903" lon="6.71817">
        <ele>1453</ele>
        <time>2013-06-30T09:05:55Z</time>
      </trkpt>
      <trkpt lat="46.19037" lon="6.71833">
        <ele>1454</ele>
        <time>2013-06-30T09:06:00Z</time>
      </trkpt>
      <trkpt lat="46.19046" lon="6.71852">
        <ele>1462</ele>
        <time>2013-06-30T09:06:05Z</time>
      </trkpt>
      <trkpt lat="46.19054" lon="6.71872">
        <ele>1464</ele>
        <time>2013-06-30T09:06:10Z</time>
      </trkpt>
      <trkpt lat="46.19062" lon="6.7189">
        <ele>1466</ele>
        <time>2013-06-30T09:06:15Z</time>
      </trkpt>
      <trkpt lat="46.19071" lon="6.71914">
        <ele>1470</ele>
        <time>2013-06-30T09:06:21Z</time>
      </trkpt>
      <trkpt lat="46.1908" lon="6.71934">
        <ele>1477</ele>
        <time>2013-06-30T09:06:26Z</time>
      </trkpt>
      <trkpt lat="46.1909" lon="6.71955">
        <ele>1486</ele>
        <time>2013-06-30T09:06:31Z</time>
      </trkpt>
      <trkpt lat="46.19099" lon="6.71976">
        <ele>1489</ele>
        <time>2013-06-30T09:06:36Z</time>
      </trkpt>
      <trkpt lat="46.19108" lon="6.71997">
        <ele>1490</ele>
        <time>2013-06-30T09:06:41Z</time>
      </trkpt>
      <trkpt lat="46.19116" lon="6.72017">
        <ele>1501</ele>
        <time>2013-06-30T09:06:46Z</time>
      </trkpt>
      <trkpt lat="46.19127" lon="6.72042">
        <ele>1504</ele>
        <time>2013-06-30T09:06:52Z</time>
      </trkpt>
      <trkpt lat="46.19136" lon="6.72063">
        <ele>1506</ele>
        <time>2013-06-30T09:06:57Z</time>
      </trkpt>
      <trkpt lat="46.19146" lon="6.72088">
        <ele>1518</ele>
        <time>2013-06-30T09:07:03Z</time>
      </trkpt>
      <trkpt lat="46.19157" lon="6.72112">
        <ele>1521</ele>
        <time>2013-06-30T09:07:09Z</time>
      </trkpt>
      <trkpt lat="46.19167" lon="6.72136">
        <ele>1536</ele>
        <time>2013-06-30T09:07:15Z</time>
      </trkpt>
      <trkpt lat="46.19179" lon="6.72164">
        <ele>1539</ele>
        <time>2013-06-30T09:07:22Z</time>
      </trkpt>
      <trkpt lat="46.19191" lon="6.72191">
        <ele>1553</ele>
        <time>2013-06-30T09:07:29Z</time>
      </trkpt>
      <trkpt lat="46.19204" lon="6.72222">
        <ele>1559</ele>
        <time>2013-06-30T09:07:37Z</time>
      </trkpt>
      <trkpt lat="46.19216" lon="6.7225">
        <ele>1574</ele>
        <time>2013-06-30T09:07:44Z</time>
      </trkpt>
      <trkpt lat="46.19228" lon="6.72279">
        <ele>1578</ele>
        <time>2013-06-30T09:07:51Z</time>
      </trkpt>
      <trkpt lat="46.19242" lon="6.72311">
        <ele>1585</ele>
        <time>2013-06-30T09:07:59Z</time>
      </trkpt>
      <trkpt lat="46.1926" lon="6.72355">
        <ele>1604</ele>
        <time>2013-06-30T09:08:10Z</time>
      </trkpt>
      <trkpt lat="46.19274" lon="6.72388">
        <ele>1608</ele>
        <time>2013-06-30T09:08:18Z</time>
      </trkpt>
      <trkpt lat="46.1929" lon="6.72425">
        <ele>1615</ele>
        <time>2013-06-30T09:08:27Z</time>
      </trkpt>
      <trkpt lat="46.19306" lon="6.72462">
        <ele>1618</ele>
        <time>2013-06-30T09:08:36Z</time>
      </trkpt>
      <trkpt lat="46.19321" lon="6.72499">
        <ele>1623</ele>
        <time>2013-06-30T09:08:45Z</time>
      </trkpt>
      <trkpt lat="46.19339" lon="6.72541">
        <ele>1632</ele>
        <time>2013-06-30T09:08:55Z</time>
      </trkpt>
      <trkpt lat="46.19361" lon="6.7259">
        <ele>1637</ele>
        <time>2013-06-30T09:09:07Z</time>
      </trkpt>
      <trkpt lat="46.19382" lon="6.7264">
        <ele>1640</ele>
        <time>2013-06-30T09:09:19Z</time>
      </trkpt>
      <trkpt lat="46.19404" lon="6.72694">
        <ele>1646</ele>
        <time>2013-06-30T09:09:32Z</time>
      </trkpt>
      <trkpt lat="46.19424" lon="6.7274">
        <ele>1656</ele>
        <time>2013-06-30T09:09:43Z</time>
      </trkpt>
      <trkpt lat="46.19453" lon="6.72811">
        <ele>1667</ele>
        <time>2013-06-30T09:10:00Z</time>
      </trkpt>
      <trkpt lat="46.1946" lon="6.72829">
        <ele>1669</ele>
        <time>2013-06-30T09:10:07Z</time>
      </trkpt>
      <trkpt lat="46.19468" lon="6.72848">
        <ele>1676</ele>
        <time>2013-06-30T09:10:17Z</time>
      </trkpt>
      <trkpt lat="46.1948" lon="6.72875">
        <ele>1678</ele>
        <time>2013-06-30T09:10:25Z</time>
      </trkpt>
      <trkpt lat="46.19492" lon="6.72905">
        <ele>1684</ele>
        <time>2013-06-30T09:10:33Z</time>
      </trkpt>
      <trkpt lat="46.19499" lon="6.7292">
        <ele>1689</ele>
        <time>2013-06-30T09:10:38Z</time>
      </trkpt>
      <trkpt lat="46.1951" lon="6.72948">
        <ele>1698</ele>
        <time>2013-06-30T09:10:45Z</time>
      </trkpt>
      <trkpt lat="46.19524" lon="6.72981">
        <ele>1701</ele>
        <time>2013-06-30T09:10:53Z</time>
      </trkpt>
      <trkpt lat="46.19538" lon="6.73014">
        <ele>1709</ele>
        <time>2013-06-30T09:11:01Z</time>
      </trkpt>
      <trkpt lat="46.19552" lon="6.73046">
        <ele>1712</ele>
        <time>2013-06-30T09:11:09Z</time>
      </trkpt>
      <trkpt lat="46.19567" lon="6.73083">
        <ele>1718</ele>
        <time>2013-06-30T09:11:18Z</time>
      </trkpt>
      <trkpt lat="46.19574" lon="6.731">
        <ele>1721</ele>
        <time>2013-06-30T09:11:24Z</time>
      </trkpt>
      <trkpt lat="46.19581" lon="6.73118">
        <ele>1721</ele>
        <time>2013-06-30T09:11:34Z</time>
      </trkpt>
      <trkpt lat="46.19589" lon="6.73137">
        <ele>1733</ele>
        <time>2013-06-30T09:11:45Z</time>
      </trkpt>
      <trkpt lat="46.19601" lon="6.73164">
        <ele>1733</ele>
        <time>2013-06-30T09:11:53Z</time>
      </trkpt>
      <trkpt lat="46.19618" lon="6.73205">
        <ele>1740</ele>
        <time>2013-06-30T09:12:03Z</time>
      </trkpt>
      <trkpt lat="46.19622" lon="6.73218">
        <ele>1740</ele>
        <time>2013-06-30T09:12:08Z</time>
      </trkpt>
      <trkpt lat="46.19623" lon="6.73222">
        <ele>1741</ele>
        <time>2013-06-30T09:12:13Z</time>
      </trkpt>
      <trkpt lat="46.19625" lon="6.73226">
        <ele>1741</ele>
        <time>2013-06-30T09:12:18Z</time>
      </trkpt>
      <trkpt lat="46.19629" lon="6.73237">
        <ele>1741</ele>
        <time>2013-06-30T09:12:21Z</time>
      </trkpt>
      <trkpt lat="46.1963" lon="6.73238">
        <ele>1742</ele>
        <time>2013-06-30T09:12:24Z</time>
      </trkpt>
      <trkpt lat="46.19631" lon="6.73241">
        <ele>1742</ele>
        <time>2013-06-30T09:12:58Z</time>
      </trkpt>
      <trkpt lat="46.19632" lon="6.73261">
        <ele>1743</ele>
        <time>2013-06-30T09:13:04Z</time>
      </trkpt>
      <trkpt lat="46.19627" lon="6.73285">
        <ele>1742</ele>
        <time>2013-06-30T09:13:10Z</time>
      </trkpt>
      <trkpt lat="46.19619" lon="6.73308">
        <ele>1742</ele>
        <time>2013-06-30T09:13:15Z</time>
      </trkpt>
      <trkpt lat="46.19613" lon="6.73326">
        <ele>1742</ele>
        <time>2013-06-30T09:13:18Z</time>
      </trkpt>
      <trkpt lat="46.19605" lon="6.73372">
        <ele>1740</ele>
        <time>2013-06-30T09:13:24Z</time>
      </trkpt>
      <trkpt lat="46.19604" lon="6.7342">
        <ele>1739</ele>
        <time>2013-06-30T09:13:28Z</time>
      </trkpt>
      <trkpt lat="46.19613" lon="6.73481">
        <ele>1738</ele>
        <time>2013-06-30T09:13:33Z</time>
      </trkpt>
      <trkpt lat="46.19622" lon="6.73525">
        <ele>1737</ele>
        <time>2013-06-30T09:13:38Z</time>
      </trkpt>
      <trkpt lat="46.19624" lon="6.73533">
        <ele>1737</ele>
        <time>2013-06-30T09:13:39Z</time>
      </trkpt>
      <trkpt lat="46.19634" lon="6.73561">
        <ele>1738</ele>
        <time>2013-06-30T09:13:43Z</time>
      </trkpt>
      <trkpt lat="46.1966" lon="6.73603">
        <ele>1738</ele>
        <time>2013-06-30T09:13:51Z</time>
      </trkpt>
      <trkpt lat="46.1968" lon="6.73631">
        <ele>1738</ele>
        <time>2013-06-30T09:13:58Z</time>
      </trkpt>
      <trkpt lat="46.19698" lon="6.73655">
        <ele>1738</ele>
        <time>2013-06-30T09:14:05Z</time>
      </trkpt>
      <trkpt lat="46.19704" lon="6.73663">
        <ele>1738</ele>
        <time>2013-06-30T09:14:07Z</time>
      </trkpt>
      <trkpt lat="46.19723" lon="6.73691">
        <ele>1740</ele>
        <time>2013-06-30T09:14:14Z</time>
      </trkpt>
      <trkpt lat="46.19749" lon="6.73726">
        <ele>1743</ele>
        <time>2013-06-30T09:14:23Z</time>
      </trkpt>
      <trkpt lat="46.19767" lon="6.73755">
        <ele>1749</ele>
        <time>2013-06-30T09:14:31Z</time>
      </trkpt>
      <trkpt lat="46.19783" lon="6.73782">
        <ele>1749</ele>
        <time>2013-06-30T09:14:39Z</time>
      </trkpt>
      <trkpt lat="46.198" lon="6.73807">
        <ele>1750</ele>
        <time>2013-06-30T09:14:46Z</time>
      </trkpt>
      <trkpt lat="46.19813" lon="6.73829">
        <ele>1754</ele>
        <time>2013-06-30T09:14:53Z</time>
      </trkpt>
      <trkpt lat="46.19821" lon="6.7385">
        <ele>1753</ele>
        <time>2013-06-30T09:14:59Z</time>
      </trkpt>
      <trkpt lat="46.19834" lon="6.73872">
        <ele>1759</ele>
        <time>2013-06-30T09:15:06Z</time>
      </trkpt>
      <trkpt lat="46.19843" lon="6.73893">
        <ele>1758</ele>
        <time>2013-06-30T09:15:12Z</time>
      </trkpt>
      <trkpt lat="46.19848" lon="6.7391">
        <ele>1757</ele>
        <time>2013-06-30T09:15:17Z</time>
      </trkpt>
      <trkpt lat="46.19855" lon="6.73927">
        <ele>1756</ele>
        <time>2013-06-30T09:15:22Z</time>
      </trkpt>
      <trkpt lat="46.19866" lon="6.7395">
        <ele>1755</ele>
        <time>2013-06-30T09:15:28Z</time>
      </trkpt>
      <trkpt lat="46.19879" lon="6.73973">
        <ele>1755</ele>
        <time>2013-06-30T09:15:35Z</time>
      </trkpt>
      <trkpt lat="46.19891" lon="6.7399">
        <ele>1756</ele>
        <time>2013-06-30T09:15:41Z</time>
      </trkpt>
      <trkpt lat="46.19901" lon="6.74004">
        <ele>1753</ele>
        <time>2013-06-30T09:15:46Z</time>
      </trkpt>
      <trkpt lat="46.19919" lon="6.74027">
        <ele>1753</ele>
        <time>2013-06-30T09:15:54Z</time>
      </trkpt>
      <trkpt lat="46.19938" lon="6.74058">
        <ele>1752</ele>
        <time>2013-06-30T09:16:03Z</time>
      </trkpt>
      <trkpt lat="46.19956" lon="6.74077">
        <ele>1752</ele>
        <time>2013-06-30T09:16:11Z</time>
      </trkpt>
      <trkpt lat="46.19972" lon="6.74092">
        <ele>1755</ele>
        <time>2013-06-30T09:16:18Z</time>
      </trkpt>
      <trkpt lat="46.19977" lon="6.741">
        <ele>1755</ele>
        <time>2013-06-30T09:16:23Z</time>
      </trkpt>
      <trkpt lat="46.1998" lon="6.74105">
        <ele>1755</ele>
        <time>2013-06-30T09:16:29Z</time>
      </trkpt>
      <trkpt lat="46.1998" lon="6.74106">
        <ele>1755</ele>
        <time>2013-06-30T09:16:53Z</time>
      </trkpt>
      <trkpt lat="46.19982" lon="6.74107">
        <ele>1755</ele>
        <time>2013-06-30T09:18:01Z</time>
      </trkpt>
      <trkpt lat="46.19984" lon="6.74108">
        <ele>1756</ele>
        <time>2013-06-30T09:19:06Z</time>
      </trkpt>
      <trkpt lat="46.19989" lon="6.74113">
        <ele>1756</ele>
        <time>2013-06-30T09:19:10Z</time>
      </trkpt>
      <trkpt lat="46.19992" lon="6.7412">
        <ele>1756</ele>
        <time>2013-06-30T09:19:12Z</time>
      </trkpt>
      <trkpt lat="46.20007" lon="6.74155">
        <ele>1756</ele>
        <time>2013-06-30T09:19:17Z</time>
      </trkpt>
      <trkpt lat="46.20015" lon="6.74174">
        <ele>1756</ele>
        <time>2013-06-30T09:19:19Z</time>
      </trkpt>
      <trkpt lat="46.20033" lon="6.74239">
        <ele>1754</ele>
        <time>2013-06-30T09:19:25Z</time>
      </trkpt>
      <trkpt lat="46.2004" lon="6.74256">
        <ele>1755</ele>
        <time>2013-06-30T09:19:28Z</time>
      </trkpt>
      <trkpt lat="46.20038" lon="6.74283">
        <ele>1755</ele>
        <time>2013-06-30T09:19:33Z</time>
      </trkpt>
      <trkpt lat="46.20035" lon="6.74316">
        <ele>1755</ele>
        <time>2013-06-30T09:19:37Z</time>
      </trkpt>
      <trkpt lat="46.20031" lon="6.74374">
        <ele>1751</ele>
        <time>2013-06-30T09:19:43Z</time>
      </trkpt>
      <trkpt lat="46.20044" lon="6.74435">
        <ele>1745</ele>
        <time>2013-06-30T09:19:49Z</time>
      </trkpt>
      <trkpt lat="46.20053" lon="6.74485">
        <ele>1745</ele>
        <time>2013-06-30T09:19:54Z</time>
      </trkpt>
      <trkpt lat="46.20056" lon="6.74509">
        <ele>1741</ele>
        <time>2013-06-30T09:19:56Z</time>
      </trkpt>
      <trkpt lat="46.20057" lon="6.74534">
        <ele>1740</ele>
        <time>2013-06-30T09:19:58Z</time>
      </trkpt>
      <trkpt lat="46.20067" lon="6.7458">
        <ele>1740</ele>
        <time>2013-06-30T09:20:02Z</time>
      </trkpt>
      <trkpt lat="46.2007" lon="6.746">
        <ele>1738</ele>
        <time>2013-06-30T09:20:04Z</time>
      </trkpt>
      <trkpt lat="46.20074" lon="6.7466">
        <ele>1740</ele>
        <time>2013-06-30T09:20:09Z</time>
      </trkpt>
      <trkpt lat="46.20075" lon="6.7467">
        <ele>1740</ele>
        <time>2013-06-30T09:20:10Z</time>
      </trkpt>
      <trkpt lat="46.20081" lon="6.74741">
        <ele>1740</ele>
        <time>2013-06-30T09:20:16Z</time>
      </trkpt>
      <trkpt lat="46.20085" lon="6.74778">
        <ele>1736</ele>
        <time>2013-06-30T09:20:20Z</time>
      </trkpt>
      <trkpt lat="46.2009" lon="6.7482">
        <ele>1738</ele>
        <time>2013-06-30T09:20:26Z</time>
      </trkpt>
      <trkpt lat="46.20093" lon="6.74864">
        <ele>1738</ele>
        <time>2013-06-30T09:20:33Z</time>
      </trkpt>
      <trkpt lat="46.20094" lon="6.74898">
        <ele>1739</ele>
        <time>2013-06-30T09:20:39Z</time>
      </trkpt>
      <trkpt lat="46.20096" lon="6.74926">
        <ele>1742</ele>
        <time>2013-06-30T09:20:45Z</time>
      </trkpt>
      <trkpt lat="46.20097" lon="6.74959">
        <ele>1743</ele>
        <time>2013-06-30T09:20:52Z</time>
      </trkpt>
      <trkpt lat="46.201" lon="6.74979">
        <ele>1743</ele>
        <time>2013-06-30T09:20:57Z</time>
      </trkpt>
      <trkpt lat="46.20105" lon="6.75">
        <ele>1746</ele>
        <time>2013-06-30T09:21:04Z</time>
      </trkpt>
      <trkpt lat="46.20109" lon="6.75016">
        <ele>1747</ele>
        <time>2013-06-30T09:21:10Z</time>
      </trkpt>
      <trkpt lat="46.20111" lon="6.7504">
        <ele>1748</ele>
        <time>2013-06-30T09:21:17Z</time>
      </trkpt>
      <trkpt lat="46.20113" lon="6.75058">
        <ele>1748</ele>
        <time>2013-06-30T09:21:22Z</time>
      </trkpt>
      <trkpt lat="46.20118" lon="6.7509">
        <ele>1749</ele>
        <time>2013-06-30T09:21:30Z</time>
      </trkpt>
      <trkpt lat="46.2012" lon="6.75112">
        <ele>1749</ele>
        <time>2013-06-30T09:21:36Z</time>
      </trkpt>
      <trkpt lat="46.20124" lon="6.75142">
        <ele>1750</ele>
        <time>2013-06-30T09:21:42Z</time>
      </trkpt>
      <trkpt lat="46.20127" lon="6.75162">
        <ele>1750</ele>
        <time>2013-06-30T09:21:46Z</time>
      </trkpt>
      <trkpt lat="46.20128" lon="6.75184">
        <ele>1751</ele>
        <time>2013-06-30T09:21:50Z</time>
      </trkpt>
      <trkpt lat="46.20129" lon="6.75231">
        <ele>1752</ele>
        <time>2013-06-30T09:21:58Z</time>
      </trkpt>
      <trkpt lat="46.20129" lon="6.75263">
        <ele>1755</ele>
        <time>2013-06-30T09:22:04Z</time>
      </trkpt>
      <trkpt lat="46.20129" lon="6.75269">
        <ele>1755</ele>
        <time>2013-06-30T09:22:05Z</time>
      </trkpt>
      <trkpt lat="46.20123" lon="6.75309">
        <ele>1755</ele>
        <time>2013-06-30T09:22:12Z</time>
      </trkpt>
      <trkpt lat="46.20119" lon="6.75348">
        <ele>1757</ele>
        <time>2013-06-30T09:22:19Z</time>
      </trkpt>
      <trkpt lat="46.20119" lon="6.75355">
        <ele>1757</ele>
        <time>2013-06-30T09:22:20Z</time>
      </trkpt>
      <trkpt lat="46.20112" lon="6.75388">
        <ele>1757</ele>
        <time>2013-06-30T09:22:25Z</time>
      </trkpt>
      <trkpt lat="46.20109" lon="6.75407">
        <ele>1756</ele>
        <time>2013-06-30T09:22:28Z</time>
      </trkpt>
      <trkpt lat="46.20106" lon="6.75445">
        <ele>1759</ele>
        <time>2013-06-30T09:22:35Z</time>
      </trkpt>
      <trkpt lat="46.201" lon="6.7547">
        <ele>1759</ele>
        <time>2013-06-30T09:22:40Z</time>
      </trkpt>
      <trkpt lat="46.20095" lon="6.75492">
        <ele>1756</ele>
        <time>2013-06-30T09:22:45Z</time>
      </trkpt>
      <trkpt lat="46.20098" lon="6.75526">
        <ele>1760</ele>
        <time>2013-06-30T09:22:52Z</time>
      </trkpt>
      <trkpt lat="46.201" lon="6.7556">
        <ele>1761</ele>
        <time>2013-06-30T09:22:59Z</time>
      </trkpt>
      <trkpt lat="46.20101" lon="6.75584">
        <ele>1761</ele>
        <time>2013-06-30T09:23:04Z</time>
      </trkpt>
      <trkpt lat="46.201" lon="6.75607">
        <ele>1763</ele>
        <time>2013-06-30T09:23:09Z</time>
      </trkpt>
      <trkpt lat="46.20098" lon="6.75642">
        <ele>1763</ele>
        <time>2013-06-30T09:23:16Z</time>
      </trkpt>
      <trkpt lat="46.20096" lon="6.75674">
        <ele>1762</ele>
        <time>2013-06-30T09:23:22Z</time>
      </trkpt>
      <trkpt lat="46.20089" lon="6.75703">
        <ele>1765</ele>
        <time>2013-06-30T09:23:28Z</time>
      </trkpt>
      <trkpt lat="46.20078" lon="6.75733">
        <ele>1758</ele>
        <time>2013-06-30T09:23:35Z</time>
      </trkpt>
      <trkpt lat="46.20068" lon="6.75754">
        <ele>1760</ele>
        <time>2013-06-30T09:23:41Z</time>
      </trkpt>
      <trkpt lat="46.20056" lon="6.75779">
        <ele>1758</ele>
        <time>2013-06-30T09:23:48Z</time>
      </trkpt>
      <trkpt lat="46.20042" lon="6.75795">
        <ele>1758</ele>
        <time>2013-06-30T09:23:53Z</time>
      </trkpt>
      <trkpt lat="46.20039" lon="6.75799">
        <ele>1757</ele>
        <time>2013-06-30T09:23:54Z</time>
      </trkpt>
      <trkpt lat="46.2003" lon="6.75816">
        <ele>1757</ele>
        <time>2013-06-30T09:23:58Z</time>
      </trkpt>
      <trkpt lat="46.20025" lon="6.75848">
        <ele>1756</ele>
        <time>2013-06-30T09:24:07Z</time>
      </trkpt>
      <trkpt lat="46.20017" lon="6.75884">
        <ele>1756</ele>
        <time>2013-06-30T09:24:17Z</time>
      </trkpt>
      <trkpt lat="46.2001" lon="6.75913">
        <ele>1757</ele>
        <time>2013-06-30T09:24:25Z</time>
      </trkpt>
      <trkpt lat="46.20012" lon="6.7593">
        <ele>1753</ele>
        <time>2013-06-30T09:24:31Z</time>
      </trkpt>
      <trkpt lat="46.20013" lon="6.75932">
        <ele>1752</ele>
        <time>2013-06-30T09:24:36Z</time>
      </trkpt>
      <trkpt lat="46.20013" lon="6.75932">
        <ele>1752</ele>
        <time>2013-06-30T09:25:36Z</time>
      </trkpt>
      <trkpt lat="46.20014" lon="6.75931">
        <ele>1752</ele>
        <time>2013-06-30T09:26:01Z</time>
      </trkpt>
      <trkpt lat="46.20013" lon="6.7593">
        <ele>1752</ele>
        <time>2013-06-30T09:26:35Z</time>
      </trkpt>
      <trkpt lat="46.20012" lon="6.75925">
        <ele>1753</ele>
        <time>2013-06-30T09:28:12Z</time>
      </trkpt>
      <trkpt lat="46.20013" lon="6.75925">
        <ele>1753</ele>
        <time>2013-06-30T09:28:13Z</time>
      </trkpt>
      <trkpt lat="46.20016" lon="6.75925">
        <ele>1753</ele>
        <time>2013-06-30T09:28:16Z</time>
      </trkpt>
      <trkpt lat="46.20027" lon="6.75922">
        <ele>1751</ele>
        <time>2013-06-30T09:28:23Z</time>
      </trkpt>
      <trkpt lat="46.2003" lon="6.7592">
        <ele>1751</ele>
        <time>2013-06-30T09:28:24Z</time>
      </trkpt>
      <trkpt lat="46.20037" lon="6.7593">
        <ele>1749</ele>
        <time>2013-06-30T09:28:27Z</time>
      </trkpt>
      <trkpt lat="46.20036" lon="6.75936">
        <ele>1749</ele>
        <time>2013-06-30T09:28:28Z</time>
      </trkpt>
      <trkpt lat="46.20027" lon="6.75965">
        <ele>1748</ele>
        <time>2013-06-30T09:28:33Z</time>
      </trkpt>
      <trkpt lat="46.20014" lon="6.75994">
        <ele>1750</ele>
        <time>2013-06-30T09:28:38Z</time>
      </trkpt>
      <trkpt lat="46.20026" lon="6.75998">
        <ele>1748</ele>
        <time>2013-06-30T09:28:43Z</time>
      </trkpt>
      <trkpt lat="46.20039" lon="6.76003">
        <ele>1739</ele>
        <time>2013-06-30T09:28:46Z</time>
      </trkpt>
      <trkpt lat="46.20039" lon="6.76016">
        <ele>1739</ele>
        <time>2013-06-30T09:28:48Z</time>
      </trkpt>
      <trkpt lat="46.20038" lon="6.76034">
        <ele>1738</ele>
        <time>2013-06-30T09:28:52Z</time>
      </trkpt>
      <trkpt lat="46.20053" lon="6.76046">
        <ele>1735</ele>
        <time>2013-06-30T09:28:58Z</time>
      </trkpt>
      <trkpt lat="46.20062" lon="6.76061">
        <ele>1731</ele>
        <time>2013-06-30T09:29:02Z</time>
      </trkpt>
      <trkpt lat="46.20066" lon="6.76072">
        <ele>1728</ele>
        <time>2013-06-30T09:29:05Z</time>
      </trkpt>
      <trkpt lat="46.20063" lon="6.76097">
        <ele>1725</ele>
        <time>2013-06-30T09:29:11Z</time>
      </trkpt>
      <trkpt lat="46.20066" lon="6.76116">
        <ele>1725</ele>
        <time>2013-06-30T09:29:14Z</time>
      </trkpt>
      <trkpt lat="46.20065" lon="6.7614">
        <ele>1723</ele>
        <time>2013-06-30T09:29:18Z</time>
      </trkpt>
      <trkpt lat="46.20062" lon="6.76146">
        <ele>1722</ele>
        <time>2013-06-30T09:29:19Z</time>
      </trkpt>
      <trkpt lat="46.2005" lon="6.76189">
        <ele>1720</ele>
        <time>2013-06-30T09:29:25Z</time>
      </trkpt>
      <trkpt lat="46.20047" lon="6.76227">
        <ele>1718</ele>
        <time>2013-06-30T09:29:30Z</time>
      </trkpt>
      <trkpt lat="46.2005" lon="6.76244">
        <ele>1716</ele>
        <time>2013-06-30T09:29:32Z</time>
      </trkpt>
      <trkpt lat="46.20054" lon="6.76291">
        <ele>1711</ele>
        <time>2013-06-30T09:29:37Z</time>
      </trkpt>
      <trkpt lat="46.20053" lon="6.76314">
        <ele>1709</ele>
        <time>2013-06-30T09:29:39Z</time>
      </trkpt>
      <trkpt lat="46.20057" lon="6.76365">
        <ele>1708</ele>
        <time>2013-06-30T09:29:44Z</time>
      </trkpt>
      <trkpt lat="46.20057" lon="6.76375">
        <ele>1708</ele>
        <time>2013-06-30T09:29:45Z</time>
      </trkpt>
      <trkpt lat="46.20059" lon="6.76397">
        <ele>1707</ele>
        <time>2013-06-30T09:29:48Z</time>
      </trkpt>
      <trkpt lat="46.20069" lon="6.76421">
        <ele>1701</ele>
        <time>2013-06-30T09:29:52Z</time>
      </trkpt>
      <trkpt lat="46.20077" lon="6.76445">
        <ele>1705</ele>
        <time>2013-06-30T09:29:56Z</time>
      </trkpt>
      <trkpt lat="46.20075" lon="6.76465">
        <ele>1706</ele>
        <time>2013-06-30T09:29:59Z</time>
      </trkpt>
      <trkpt lat="46.20078" lon="6.76498">
        <ele>1697</ele>
        <time>2013-06-30T09:30:04Z</time>
      </trkpt>
      <trkpt lat="46.20089" lon="6.76504">
        <ele>1689</ele>
        <time>2013-06-30T09:30:07Z</time>
      </trkpt>
      <trkpt lat="46.20091" lon="6.76502">
        <ele>1689</ele>
        <time>2013-06-30T09:30:10Z</time>
      </trkpt>
      <trkpt lat="46.20092" lon="6.76502">
        <ele>1689</ele>
        <time>2013-06-30T09:30:18Z</time>
      </trkpt>
      <trkpt lat="46.20099" lon="6.76501">
        <ele>1686</ele>
        <time>2013-06-30T09:30:34Z</time>
      </trkpt>
      <trkpt lat="46.20099" lon="6.76501">
        <ele>1686</ele>
        <time>2013-06-30T09:30:39Z</time>
      </trkpt>
      <trkpt lat="46.20098" lon="6.7651">
        <ele>1686</ele>
        <time>2013-06-30T09:30:43Z</time>
      </trkpt>
      <trkpt lat="46.20113" lon="6.76535">
        <ele>1682</ele>
        <time>2013-06-30T09:30:47Z</time>
      </trkpt>
      <trkpt lat="46.20122" lon="6.7655">
        <ele>1681</ele>
        <time>2013-06-30T09:30:49Z</time>
      </trkpt>
      <trkpt lat="46.20127" lon="6.7656">
        <ele>1680</ele>
        <time>2013-06-30T09:30:51Z</time>
      </trkpt>
      <trkpt lat="46.20134" lon="6.76594">
        <ele>1676</ele>
        <time>2013-06-30T09:30:56Z</time>
      </trkpt>
      <trkpt lat="46.20131" lon="6.76602">
        <ele>1676</ele>
        <time>2013-06-30T09:30:57Z</time>
      </trkpt>
      <trkpt lat="46.20127" lon="6.7662">
        <ele>1676</ele>
        <time>2013-06-30T09:30:59Z</time>
      </trkpt>
      <trkpt lat="46.20112" lon="6.76676">
        <ele>1670</ele>
        <time>2013-06-30T09:31:05Z</time>
      </trkpt>
      <trkpt lat="46.20105" lon="6.76715">
        <ele>1667</ele>
        <time>2013-06-30T09:31:09Z</time>
      </trkpt>
      <trkpt lat="46.20101" lon="6.76735">
        <ele>1668</ele>
        <time>2013-06-30T09:31:11Z</time>
      </trkpt>
      <trkpt lat="46.20102" lon="6.76788">
        <ele>1663</ele>
        <time>2013-06-30T09:31:16Z</time>
      </trkpt>
      <trkpt lat="46.20097" lon="6.76816">
        <ele>1663</ele>
        <time>2013-06-30T09:31:20Z</time>
      </trkpt>
      <trkpt lat="46.20095" lon="6.76832">
        <ele>1664</ele>
        <time>2013-06-30T09:31:23Z</time>
      </trkpt>
      <trkpt lat="46.20104" lon="6.76828">
        <ele>1663</ele>
        <time>2013-06-30T09:31:26Z</time>
      </trkpt>
      <trkpt lat="46.2011" lon="6.76812">
        <ele>1662</ele>
        <time>2013-06-30T09:31:30Z</time>
      </trkpt>
      <trkpt lat="46.20119" lon="6.76819">
        <ele>1661</ele>
        <time>2013-06-30T09:31:34Z</time>
      </trkpt>
      <trkpt lat="46.20133" lon="6.76839">
        <ele>1663</ele>
        <time>2013-06-30T09:31:39Z</time>
      </trkpt>
      <trkpt lat="46.20144" lon="6.76853">
        <ele>1663</ele>
        <time>2013-06-30T09:31:44Z</time>
      </trkpt>
      <trkpt lat="46.20153" lon="6.76868">
        <ele>1664</ele>
        <time>2013-06-30T09:31:48Z</time>
      </trkpt>
      <trkpt lat="46.20156" lon="6.76871">
        <ele>1664</ele>
        <time>2013-06-30T09:31:49Z</time>
      </trkpt>
      <trkpt lat="46.20172" lon="6.76872">
        <ele>1656</ele>
        <time>2013-06-30T09:31:53Z</time>
      </trkpt>
      <trkpt lat="46.2019" lon="6.76877">
        <ele>1656</ele>
        <time>2013-06-30T09:31:58Z</time>
      </trkpt>
      <trkpt lat="46.20201" lon="6.76876">
        <ele>1656</ele>
        <time>2013-06-30T09:32:02Z</time>
      </trkpt>
      <trkpt lat="46.20213" lon="6.76882">
        <ele>1656</ele>
        <time>2013-06-30T09:32:08Z</time>
      </trkpt>
      <trkpt lat="46.2023" lon="6.76887">
        <ele>1656</ele>
        <time>2013-06-30T09:32:12Z</time>
      </trkpt>
      <trkpt lat="46.20258" lon="6.76885">
        <ele>1652</ele>
        <time>2013-06-30T09:32:19Z</time>
      </trkpt>
      <trkpt lat="46.20265" lon="6.76883">
        <ele>1652</ele>
        <time>2013-06-30T09:32:23Z</time>
      </trkpt>
      <trkpt lat="46.20277" lon="6.76881">
        <ele>1651</ele>
        <time>2013-06-30T09:32:29Z</time>
      </trkpt>
      <trkpt lat="46.20287" lon="6.76878">
        <ele>1651</ele>
        <time>2013-06-30T09:32:35Z</time>
      </trkpt>
      <trkpt lat="46.20292" lon="6.76876">
        <ele>1650</ele>
        <time>2013-06-30T09:32:38Z</time>
      </trkpt>
      <trkpt lat="46.20309" lon="6.76873">
        <ele>1650</ele>
        <time>2013-06-30T09:32:43Z</time>
      </trkpt>
      <trkpt lat="46.2032" lon="6.76871">
        <ele>1650</ele>
        <time>2013-06-30T09:32:48Z</time>
      </trkpt>
      <trkpt lat="46.20327" lon="6.76873">
        <ele>1650</ele>
        <time>2013-06-30T09:32:53Z</time>
      </trkpt>
      <trkpt lat="46.2034" lon="6.76873">
        <ele>1650</ele>
        <time>2013-06-30T09:33:00Z</time>
      </trkpt>
      <trkpt lat="46.20349" lon="6.76869">
        <ele>1649</ele>
        <time>2013-06-30T09:33:05Z</time>
      </trkpt>
      <trkpt lat="46.20352" lon="6.76869">
        <ele>1649</ele>
        <time>2013-06-30T09:33:07Z</time>
      </trkpt>
      <trkpt lat="46.20361" lon="6.76868">
        <ele>1649</ele>
        <time>2013-06-30T09:33:12Z</time>
      </trkpt>
      <trkpt lat="46.20368" lon="6.76867">
        <ele>1649</ele>
        <time>2013-06-30T09:33:19Z</time>
      </trkpt>
      <trkpt lat="46.20375" lon="6.76866">
        <ele>1649</ele>
        <time>2013-06-30T09:33:26Z</time>
      </trkpt>
      <trkpt lat="46.20382" lon="6.76865">
        <ele>1649</ele>
        <time>2013-06-30T09:33:31Z</time>
      </trkpt>
      <trkpt lat="46.20385" lon="6.76864">
        <ele>1649</ele>
        <time>2013-06-30T09:33:35Z</time>
      </trkpt>
      <trkpt lat="46.2039" lon="6.76861">
        <ele>1648</ele>
        <time>2013-06-30T09:33:41Z</time>
      </trkpt>
      <trkpt lat="46.20389" lon="6.76857">
        <ele>1648</ele>
        <time>2013-06-30T09:33:58Z</time>
      </trkpt>
      <trkpt lat="46.20393" lon="6.76855">
        <ele>1648</ele>
        <time>2013-06-30T09:34:03Z</time>
      </trkpt>
      <trkpt lat="46.20402" lon="6.76851">
        <ele>1647</ele>
        <time>2013-06-30T09:34:08Z</time>
      </trkpt>
      <trkpt lat="46.20411" lon="6.76845">
        <ele>1645</ele>
        <time>2013-06-30T09:34:13Z</time>
      </trkpt>
      <trkpt lat="46.20414" lon="6.76844">
        <ele>1645</ele>
        <time>2013-06-30T09:34:17Z</time>
      </trkpt>
      <trkpt lat="46.20417" lon="6.76844">
        <ele>1645</ele>
        <time>2013-06-30T09:34:26Z</time>
      </trkpt>
      <trkpt lat="46.20421" lon="6.76841">
        <ele>1643</ele>
        <time>2013-06-30T09:34:32Z</time>
      </trkpt>
      <trkpt lat="46.20426" lon="6.76838">
        <ele>1642</ele>
        <time>2013-06-30T09:34:37Z</time>
      </trkpt>
      <trkpt lat="46.20433" lon="6.7684">
        <ele>1643</ele>
        <time>2013-06-30T09:34:41Z</time>
      </trkpt>
      <trkpt lat="46.20444" lon="6.76845">
        <ele>1642</ele>
        <time>2013-06-30T09:34:47Z</time>
      </trkpt>
      <trkpt lat="46.20451" lon="6.76853">
        <ele>1642</ele>
        <time>2013-06-30T09:34:52Z</time>
      </trkpt>
      <trkpt lat="46.20458" lon="6.76856">
        <ele>1642</ele>
        <time>2013-06-30T09:34:58Z</time>
      </trkpt>
      <trkpt lat="46.20468" lon="6.76857">
        <ele>1641</ele>
        <time>2013-06-30T09:35:02Z</time>
      </trkpt>
      <trkpt lat="46.20479" lon="6.76859">
        <ele>1641</ele>
        <time>2013-06-30T09:35:08Z</time>
      </trkpt>
      <trkpt lat="46.20481" lon="6.76857">
        <ele>1641</ele>
        <time>2013-06-30T09:35:16Z</time>
      </trkpt>
      <trkpt lat="46.20483" lon="6.76855">
        <ele>1640</ele>
        <time>2013-06-30T09:35:43Z</time>
      </trkpt>
      <trkpt lat="46.20482" lon="6.7686">
        <ele>1641</ele>
        <time>2013-06-30T09:36:54Z</time>
      </trkpt>
      <trkpt lat="46.2048" lon="6.76858">
        <ele>1641</ele>
        <time>2013-06-30T09:37:18Z</time>
      </trkpt>
      <trkpt lat="46.20481" lon="6.76859">
        <ele>1641</ele>
        <time>2013-06-30T09:37:43Z</time>
      </trkpt>
      <trkpt lat="46.2048" lon="6.76856">
        <ele>1641</ele>
        <time>2013-06-30T09:38:01Z</time>
      </trkpt>
      <trkpt lat="46.20482" lon="6.76857">
        <ele>1641</ele>
        <time>2013-06-30T09:39:00Z</time>
      </trkpt>
      <trkpt lat="46.20477" lon="6.76854">
        <ele>1641</ele>
        <time>2013-06-30T09:39:52Z</time>
      </trkpt>
      <trkpt lat="46.20478" lon="6.76855">
        <ele>1641</ele>
        <time>2013-06-30T09:39:53Z</time>
      </trkpt>
      <trkpt lat="46.20485" lon="6.76867">
        <ele>1641</ele>
        <time>2013-06-30T09:39:58Z</time>
      </trkpt>
      <trkpt lat="46.2049" lon="6.76898">
        <ele>1641</ele>
        <time>2013-06-30T09:40:04Z</time>
      </trkpt>
      <trkpt lat="46.2049" lon="6.76924">
        <ele>1641</ele>
        <time>2013-06-30T09:40:09Z</time>
      </trkpt>
      <trkpt lat="46.20493" lon="6.76953">
        <ele>1644</ele>
        <time>2013-06-30T09:40:14Z</time>
      </trkpt>
      <trkpt lat="46.20494" lon="6.76975">
        <ele>1643</ele>
        <time>2013-06-30T09:40:19Z</time>
      </trkpt>
      <trkpt lat="46.20495" lon="6.76995">
        <ele>1640</ele>
        <time>2013-06-30T09:40:24Z</time>
      </trkpt>
      <trkpt lat="46.20494" lon="6.77002">
        <ele>1639</ele>
        <time>2013-06-30T09:40:26Z</time>
      </trkpt>
      <trkpt lat="46.20498" lon="6.77028">
        <ele>1642</ele>
        <time>2013-06-30T09:40:32Z</time>
      </trkpt>
      <trkpt lat="46.20502" lon="6.7705">
        <ele>1624</ele>
        <time>2013-06-30T09:40:36Z</time>
      </trkpt>
      <trkpt lat="46.20508" lon="6.77081">
        <ele>1627</ele>
        <time>2013-06-30T09:40:40Z</time>
      </trkpt>
      <trkpt lat="46.20508" lon="6.77099">
        <ele>1623</ele>
        <time>2013-06-30T09:40:43Z</time>
      </trkpt>
      <trkpt lat="46.20504" lon="6.77115">
        <ele>1620</ele>
        <time>2013-06-30T09:40:46Z</time>
      </trkpt>
      <trkpt lat="46.20499" lon="6.77146">
        <ele>1634</ele>
        <time>2013-06-30T09:40:51Z</time>
      </trkpt>
      <trkpt lat="46.20492" lon="6.7718">
        <ele>1631</ele>
        <time>2013-06-30T09:40:57Z</time>
      </trkpt>
      <trkpt lat="46.20486" lon="6.77201">
        <ele>1633</ele>
        <time>2013-06-30T09:41:03Z</time>
      </trkpt>
      <trkpt lat="46.20481" lon="6.7721">
        <ele>1634</ele>
        <time>2013-06-30T09:41:07Z</time>
      </trkpt>
      <trkpt lat="46.20483" lon="6.77215">
        <ele>1634</ele>
        <time>2013-06-30T09:41:13Z</time>
      </trkpt>
      <trkpt lat="46.20488" lon="6.77215">
        <ele>1633</ele>
        <time>2013-06-30T09:41:19Z</time>
      </trkpt>
      <trkpt lat="46.2049" lon="6.77215">
        <ele>1633</ele>
        <time>2013-06-30T09:41:29Z</time>
      </trkpt>
      <trkpt lat="46.20491" lon="6.77217">
        <ele>1633</ele>
        <time>2013-06-30T09:41:45Z</time>
      </trkpt>
      <trkpt lat="46.20483" lon="6.77219">
        <ele>1633</ele>
        <time>2013-06-30T09:42:24Z</time>
      </trkpt>
      <trkpt lat="46.20483" lon="6.77219">
        <ele>1633</ele>
        <time>2013-06-30T09:42:37Z</time>
      </trkpt>
      <trkpt lat="46.20486" lon="6.77231">
        <ele>1632</ele>
        <time>2013-06-30T09:42:42Z</time>
      </trkpt>
      <trkpt lat="46.20489" lon="6.77239">
        <ele>1630</ele>
        <time>2013-06-30T09:42:46Z</time>
      </trkpt>
      <trkpt lat="46.20488" lon="6.77255">
        <ele>1626</ele>
        <time>2013-06-30T09:42:50Z</time>
      </trkpt>
      <trkpt lat="46.20485" lon="6.77261">
        <ele>1626</ele>
        <time>2013-06-30T09:42:51Z</time>
      </trkpt>
      <trkpt lat="46.20475" lon="6.7729">
        <ele>1626</ele>
        <time>2013-06-30T09:42:56Z</time>
      </trkpt>
      <trkpt lat="46.20466" lon="6.77324">
        <ele>1624</ele>
        <time>2013-06-30T09:43:01Z</time>
      </trkpt>
      <trkpt lat="46.2046" lon="6.77337">
        <ele>1614</ele>
        <time>2013-06-30T09:43:03Z</time>
      </trkpt>
      <trkpt lat="46.20447" lon="6.77364">
        <ele>1613</ele>
        <time>2013-06-30T09:43:07Z</time>
      </trkpt>
      <trkpt lat="46.20428" lon="6.7739">
        <ele>1612</ele>
        <time>2013-06-30T09:43:12Z</time>
      </trkpt>
      <trkpt lat="46.2042" lon="6.77405">
        <ele>1611</ele>
        <time>2013-06-30T09:43:14Z</time>
      </trkpt>
      <trkpt lat="46.20396" lon="6.7743">
        <ele>1615</ele>
        <time>2013-06-30T09:43:19Z</time>
      </trkpt>
      <trkpt lat="46.2038" lon="6.77456">
        <ele>1616</ele>
        <time>2013-06-30T09:43:25Z</time>
      </trkpt>
      <trkpt lat="46.20372" lon="6.77476">
        <ele>1616</ele>
        <time>2013-06-30T09:43:30Z</time>
      </trkpt>
      <trkpt lat="46.2037" lon="6.77487">
        <ele>1616</ele>
        <time>2013-06-30T09:43:34Z</time>
      </trkpt>
      <trkpt lat="46.20374" lon="6.77492">
        <ele>1614</ele>
        <time>2013-06-30T09:43:40Z</time>
      </trkpt>
      <trkpt lat="46.20374" lon="6.77496">
        <ele>1614</ele>
        <time>2013-06-30T09:43:43Z</time>
      </trkpt>
      <trkpt lat="46.2037" lon="6.77506">
        <ele>1608</ele>
        <time>2013-06-30T09:43:49Z</time>
      </trkpt>
      <trkpt lat="46.20367" lon="6.77522">
        <ele>1608</ele>
        <time>2013-06-30T09:43:54Z</time>
      </trkpt>
      <trkpt lat="46.20369" lon="6.77533">
        <ele>1607</ele>
        <time>2013-06-30T09:43:57Z</time>
      </trkpt>
      <trkpt lat="46.20368" lon="6.77564">
        <ele>1606</ele>
        <time>2013-06-30T09:44:05Z</time>
      </trkpt>
      <trkpt lat="46.20365" lon="6.77593">
        <ele>1604</ele>
        <time>2013-06-30T09:44:09Z</time>
      </trkpt>
      <trkpt lat="46.20365" lon="6.77602">
        <ele>1604</ele>
        <time>2013-06-30T09:44:10Z</time>
      </trkpt>
      <trkpt lat="46.2037" lon="6.7763">
        <ele>1603</ele>
        <time>2013-06-30T09:44:15Z</time>
      </trkpt>
      <trkpt lat="46.20371" lon="6.77632">
        <ele>1603</ele>
        <time>2013-06-30T09:44:16Z</time>
      </trkpt>
      <trkpt lat="46.20377" lon="6.77637">
        <ele>1601</ele>
        <time>2013-06-30T09:44:20Z</time>
      </trkpt>
      <trkpt lat="46.20388" lon="6.77654">
        <ele>1599</ele>
        <time>2013-06-30T09:44:26Z</time>
      </trkpt>
      <trkpt lat="46.20389" lon="6.77666">
        <ele>1599</ele>
        <time>2013-06-30T09:44:29Z</time>
      </trkpt>
      <trkpt lat="46.2038" lon="6.77693">
        <ele>1599</ele>
        <time>2013-06-30T09:44:35Z</time>
      </trkpt>
      <trkpt lat="46.20372" lon="6.77713">
        <ele>1599</ele>
        <time>2013-06-30T09:44:40Z</time>
      </trkpt>
      <trkpt lat="46.2036" lon="6.77732">
        <ele>1601</ele>
        <time>2013-06-30T09:44:47Z</time>
      </trkpt>
      <trkpt lat="46.20347" lon="6.77754">
        <ele>1603</ele>
        <time>2013-06-30T09:44:53Z</time>
      </trkpt>
      <trkpt lat="46.20335" lon="6.77776">
        <ele>1601</ele>
        <time>2013-06-30T09:44:58Z</time>
      </trkpt>
      <trkpt lat="46.2033" lon="6.77807">
        <ele>1617</ele>
        <time>2013-06-30T09:45:04Z</time>
      </trkpt>
      <trkpt lat="46.20331" lon="6.77822">
        <ele>1613</ele>
        <time>2013-06-30T09:45:08Z</time>
      </trkpt>
      <trkpt lat="46.20341" lon="6.77842">
        <ele>1603</ele>
        <time>2013-06-30T09:45:13Z</time>
      </trkpt>
      <trkpt lat="46.20345" lon="6.77862">
        <ele>1600</ele>
        <time>2013-06-30T09:45:17Z</time>
      </trkpt>
      <trkpt lat="46.20348" lon="6.77883">
        <ele>1599</ele>
        <time>2013-06-30T09:45:22Z</time>
      </trkpt>
      <trkpt lat="46.20347" lon="6.77906">
        <ele>1602</ele>
        <time>2013-06-30T09:45:27Z</time>
      </trkpt>
      <trkpt lat="46.20342" lon="6.7792">
        <ele>1604</ele>
        <time>2013-06-30T09:45:31Z</time>
      </trkpt>
      <trkpt lat="46.20326" lon="6.77926">
        <ele>1609</ele>
        <time>2013-06-30T09:45:35Z</time>
      </trkpt>
      <trkpt lat="46.20302" lon="6.77946">
        <ele>1610</ele>
        <time>2013-06-30T09:45:41Z</time>
      </trkpt>
      <trkpt lat="46.20291" lon="6.77975">
        <ele>1609</ele>
        <time>2013-06-30T09:45:46Z</time>
      </trkpt>
      <trkpt lat="46.20289" lon="6.78013">
        <ele>1601</ele>
        <time>2013-06-30T09:45:52Z</time>
      </trkpt>
      <trkpt lat="46.20291" lon="6.78031">
        <ele>1600</ele>
        <time>2013-06-30T09:45:55Z</time>
      </trkpt>
      <trkpt lat="46.2028" lon="6.78045">
        <ele>1600</ele>
        <time>2013-06-30T09:45:59Z</time>
      </trkpt>
      <trkpt lat="46.20271" lon="6.78049">
        <ele>1600</ele>
        <time>2013-06-30T09:46:03Z</time>
      </trkpt>
      <trkpt lat="46.20264" lon="6.78062">
        <ele>1600</ele>
        <time>2013-06-30T09:46:08Z</time>
      </trkpt>
      <trkpt lat="46.20256" lon="6.78072">
        <ele>1599</ele>
        <time>2013-06-30T09:46:12Z</time>
      </trkpt>
      <trkpt lat="46.2024" lon="6.78093">
        <ele>1603</ele>
        <time>2013-06-30T09:46:19Z</time>
      </trkpt>
      <trkpt lat="46.20234" lon="6.7811">
        <ele>1605</ele>
        <time>2013-06-30T09:46:23Z</time>
      </trkpt>
      <trkpt lat="46.20227" lon="6.78125">
        <ele>1605</ele>
        <time>2013-06-30T09:46:27Z</time>
      </trkpt>
      <trkpt lat="46.2022" lon="6.78156">
        <ele>1604</ele>
        <time>2013-06-30T09:46:34Z</time>
      </trkpt>
      <trkpt lat="46.20213" lon="6.78179">
        <ele>1598</ele>
        <time>2013-06-30T09:46:40Z</time>
      </trkpt>
      <trkpt lat="46.20201" lon="6.78195">
        <ele>1600</ele>
        <time>2013-06-30T09:46:45Z</time>
      </trkpt>
      <trkpt lat="46.20192" lon="6.78207">
        <ele>1600</ele>
        <time>2013-06-30T09:46:49Z</time>
      </trkpt>
      <trkpt lat="46.2018" lon="6.7822">
        <ele>1601</ele>
        <time>2013-06-30T09:46:53Z</time>
      </trkpt>
      <trkpt lat="46.20176" lon="6.78231">
        <ele>1602</ele>
        <time>2013-06-30T09:46:56Z</time>
      </trkpt>
      <trkpt lat="46.20158" lon="6.78255">
        <ele>1608</ele>
        <time>2013-06-30T09:47:02Z</time>
      </trkpt>
      <trkpt lat="46.20143" lon="6.78275">
        <ele>1609</ele>
        <time>2013-06-30T09:47:07Z</time>
      </trkpt>
      <trkpt lat="46.20126" lon="6.78288">
        <ele>1610</ele>
        <time>2013-06-30T09:47:12Z</time>
      </trkpt>
      <trkpt lat="46.20118" lon="6.78313">
        <ele>1608</ele>
        <time>2013-06-30T09:47:17Z</time>
      </trkpt>
      <trkpt lat="46.20112" lon="6.78343">
        <ele>1597</ele>
        <time>2013-06-30T09:47:23Z</time>
      </trkpt>
      <trkpt lat="46.20101" lon="6.78369">
        <ele>1596</ele>
        <time>2013-06-30T09:47:29Z</time>
      </trkpt>
      <trkpt lat="46.20087" lon="6.78405">
        <ele>1597</ele>
        <time>2013-06-30T09:47:36Z</time>
      </trkpt>
      <trkpt lat="46.2008" lon="6.7843">
        <ele>1602</ele>
        <time>2013-06-30T09:47:41Z</time>
      </trkpt>
      <trkpt lat="46.20071" lon="6.78454">
        <ele>1603</ele>
        <time>2013-06-30T09:47:46Z</time>
      </trkpt>
      <trkpt lat="46.20063" lon="6.78476">
        <ele>1602</ele>
        <time>2013-06-30T09:47:51Z</time>
      </trkpt>
      <trkpt lat="46.20055" lon="6.78501">
        <ele>1594</ele>
        <time>2013-06-30T09:47:56Z</time>
      </trkpt>
      <trkpt lat="46.20043" lon="6.78524">
        <ele>1595</ele>
        <time>2013-06-30T09:48:01Z</time>
      </trkpt>
      <trkpt lat="46.20035" lon="6.78551">
        <ele>1594</ele>
        <time>2013-06-30T09:48:06Z</time>
      </trkpt>
      <trkpt lat="46.20026" lon="6.78572">
        <ele>1593</ele>
        <time>2013-06-30T09:48:10Z</time>
      </trkpt>
      <trkpt lat="46.20009" lon="6.78591">
        <ele>1591</ele>
        <time>2013-06-30T09:48:15Z</time>
      </trkpt>
      <trkpt lat="46.19997" lon="6.78591">
        <ele>1594</ele>
        <time>2013-06-30T09:48:18Z</time>
      </trkpt>
      <trkpt lat="46.1998" lon="6.78583">
        <ele>1600</ele>
        <time>2013-06-30T09:48:22Z</time>
      </trkpt>
      <trkpt lat="46.19954" lon="6.78586">
        <ele>1593</ele>
        <time>2013-06-30T09:48:27Z</time>
      </trkpt>
      <trkpt lat="46.19933" lon="6.78589">
        <ele>1595</ele>
        <time>2013-06-30T09:48:31Z</time>
      </trkpt>
      <trkpt lat="46.19923" lon="6.7859">
        <ele>1596</ele>
        <time>2013-06-30T09:48:33Z</time>
      </trkpt>
      <trkpt lat="46.19903" lon="6.78606">
        <ele>1597</ele>
        <time>2013-06-30T09:48:38Z</time>
      </trkpt>
      <trkpt lat="46.19901" lon="6.78613">
        <ele>1597</ele>
        <time>2013-06-30T09:48:41Z</time>
      </trkpt>
      <trkpt lat="46.19895" lon="6.78633">
        <ele>1595</ele>
        <time>2013-06-30T09:48:48Z</time>
      </trkpt>
      <trkpt lat="46.19894" lon="6.78635">
        <ele>1595</ele>
        <time>2013-06-30T09:48:49Z</time>
      </trkpt>
      <trkpt lat="46.19892" lon="6.78638">
        <ele>1595</ele>
        <time>2013-06-30T09:48:52Z</time>
      </trkpt>
      <trkpt lat="46.19889" lon="6.78647">
        <ele>1594</ele>
        <time>2013-06-30T09:48:56Z</time>
      </trkpt>
      <trkpt lat="46.19883" lon="6.78666">
        <ele>1594</ele>
        <time>2013-06-30T09:49:01Z</time>
      </trkpt>
      <trkpt lat="46.19879" lon="6.7868">
        <ele>1589</ele>
        <time>2013-06-30T09:49:03Z</time>
      </trkpt>
      <trkpt lat="46.19876" lon="6.78719">
        <ele>1588</ele>
        <time>2013-06-30T09:49:08Z</time>
      </trkpt>
      <trkpt lat="46.19876" lon="6.78735">
        <ele>1588</ele>
        <time>2013-06-30T09:49:10Z</time>
      </trkpt>
      <trkpt lat="46.19884" lon="6.78757">
        <ele>1589</ele>
        <time>2013-06-30T09:49:14Z</time>
      </trkpt>
      <trkpt lat="46.19899" lon="6.78759">
        <ele>1588</ele>
        <time>2013-06-30T09:49:18Z</time>
      </trkpt>
      <trkpt lat="46.19907" lon="6.78758">
        <ele>1587</ele>
        <time>2013-06-30T09:49:20Z</time>
      </trkpt>
      <trkpt lat="46.19931" lon="6.78763">
        <ele>1590</ele>
        <time>2013-06-30T09:49:27Z</time>
      </trkpt>
      <trkpt lat="46.19951" lon="6.7876">
        <ele>1592</ele>
        <time>2013-06-30T09:49:33Z</time>
      </trkpt>
      <trkpt lat="46.19966" lon="6.78757">
        <ele>1593</ele>
        <time>2013-06-30T09:49:38Z</time>
      </trkpt>
      <trkpt lat="46.19986" lon="6.78749">
        <ele>1590</ele>
        <time>2013-06-30T09:49:46Z</time>
      </trkpt>
      <trkpt lat="46.19999" lon="6.78734">
        <ele>1590</ele>
        <time>2013-06-30T09:49:54Z</time>
      </trkpt>
      <trkpt lat="46.2001" lon="6.78724">
        <ele>1591</ele>
        <time>2013-06-30T09:50:01Z</time>
      </trkpt>
      <trkpt lat="46.20026" lon="6.78721">
        <ele>1591</ele>
        <time>2013-06-30T09:50:08Z</time>
      </trkpt>
      <trkpt lat="46.20048" lon="6.78722">
        <ele>1591</ele>
        <time>2013-06-30T09:50:17Z</time>
      </trkpt>
      <trkpt lat="46.20066" lon="6.7872">
        <ele>1592</ele>
        <time>2013-06-30T09:50:23Z</time>
      </trkpt>
      <trkpt lat="46.20082" lon="6.78723">
        <ele>1592</ele>
        <time>2013-06-30T09:50:28Z</time>
      </trkpt>
      <trkpt lat="46.20103" lon="6.78728">
        <ele>1592</ele>
        <time>2013-06-30T09:50:34Z</time>
      </trkpt>
      <trkpt lat="46.20124" lon="6.7874">
        <ele>1591</ele>
        <time>2013-06-30T09:50:40Z</time>
      </trkpt>
      <trkpt lat="46.20137" lon="6.78743">
        <ele>1591</ele>
        <time>2013-06-30T09:50:45Z</time>
      </trkpt>
      <trkpt lat="46.20139" lon="6.78744">
        <ele>1591</ele>
        <time>2013-06-30T09:50:49Z</time>
      </trkpt>
      <trkpt lat="46.20137" lon="6.78744">
        <ele>1591</ele>
        <time>2013-06-30T09:53:33Z</time>
      </trkpt>
      <trkpt lat="46.20138" lon="6.78743">
        <ele>1591</ele>
        <time>2013-06-30T09:53:41Z</time>
      </trkpt>
      <trkpt lat="46.20147" lon="6.7874">
        <ele>1591</ele>
        <time>2013-06-30T09:53:45Z</time>
      </trkpt>
      <trkpt lat="46.20155" lon="6.78738">
        <ele>1591</ele>
        <time>2013-06-30T09:53:47Z</time>
      </trkpt>
      <trkpt lat="46.20185" lon="6.78742">
        <ele>1587</ele>
        <time>2013-06-30T09:53:54Z</time>
      </trkpt>
      <trkpt lat="46.2021" lon="6.78748">
        <ele>1586</ele>
        <time>2013-06-30T09:53:59Z</time>
      </trkpt>
      <trkpt lat="46.2023" lon="6.78748">
        <ele>1585</ele>
        <time>2013-06-30T09:54:02Z</time>
      </trkpt>
      <trkpt lat="46.2026" lon="6.7873">
        <ele>1584</ele>
        <time>2013-06-30T09:54:06Z</time>
      </trkpt>
      <trkpt lat="46.20322" lon="6.78672">
        <ele>1579</ele>
        <time>2013-06-30T09:54:14Z</time>
      </trkpt>
      <trkpt lat="46.20345" lon="6.78652">
        <ele>1578</ele>
        <time>2013-06-30T09:54:17Z</time>
      </trkpt>
      <trkpt lat="46.20382" lon="6.78607">
        <ele>1579</ele>
        <time>2013-06-30T09:54:23Z</time>
      </trkpt>
      <trkpt lat="46.20391" lon="6.78591">
        <ele>1579</ele>
        <time>2013-06-30T09:54:25Z</time>
      </trkpt>
      <trkpt lat="46.20399" lon="6.78575">
        <ele>1572</ele>
        <time>2013-06-30T09:54:27Z</time>
      </trkpt>
      <trkpt lat="46.20425" lon="6.78552">
        <ele>1579</ele>
        <time>2013-06-30T09:54:32Z</time>
      </trkpt>
      <trkpt lat="46.2044" lon="6.78542">
        <ele>1579</ele>
        <time>2013-06-30T09:54:35Z</time>
      </trkpt>
      <trkpt lat="46.20453" lon="6.78532">
        <ele>1580</ele>
        <time>2013-06-30T09:54:38Z</time>
      </trkpt>
      <trkpt lat="46.20474" lon="6.78499">
        <ele>1569</ele>
        <time>2013-06-30T09:54:43Z</time>
      </trkpt>
      <trkpt lat="46.20496" lon="6.78472">
        <ele>1568</ele>
        <time>2013-06-30T09:54:47Z</time>
      </trkpt>
      <trkpt lat="46.20507" lon="6.7846">
        <ele>1577</ele>
        <time>2013-06-30T09:54:49Z</time>
      </trkpt>
      <trkpt lat="46.20522" lon="6.7844">
        <ele>1575</ele>
        <time>2013-06-30T09:54:52Z</time>
      </trkpt>
      <trkpt lat="46.20539" lon="6.78393">
        <ele>1564</ele>
        <time>2013-06-30T09:54:57Z</time>
      </trkpt>
      <trkpt lat="46.20539" lon="6.7838">
        <ele>1563</ele>
        <time>2013-06-30T09:54:58Z</time>
      </trkpt>
      <trkpt lat="46.20548" lon="6.78316">
        <ele>1555</ele>
        <time>2013-06-30T09:55:03Z</time>
      </trkpt>
      <trkpt lat="46.20553" lon="6.78304">
        <ele>1555</ele>
        <time>2013-06-30T09:55:04Z</time>
      </trkpt>
      <trkpt lat="46.2057" lon="6.78269">
        <ele>1552</ele>
        <time>2013-06-30T09:55:07Z</time>
      </trkpt>
      <trkpt lat="46.20597" lon="6.78227">
        <ele>1547</ele>
        <time>2013-06-30T09:55:11Z</time>
      </trkpt>
      <trkpt lat="46.20639" lon="6.78165">
        <ele>1537</ele>
        <time>2013-06-30T09:55:17Z</time>
      </trkpt>
      <trkpt lat="46.20654" lon="6.78135">
        <ele>1535</ele>
        <time>2013-06-30T09:55:20Z</time>
      </trkpt>
      <trkpt lat="46.20679" lon="6.78106">
        <ele>1534</ele>
        <time>2013-06-30T09:55:24Z</time>
      </trkpt>
      <trkpt lat="46.20686" lon="6.78101">
        <ele>1534</ele>
        <time>2013-06-30T09:55:25Z</time>
      </trkpt>
      <trkpt lat="46.20702" lon="6.78074">
        <ele>1529</ele>
        <time>2013-06-30T09:55:28Z</time>
      </trkpt>
      <trkpt lat="46.20721" lon="6.78025">
        <ele>1527</ele>
        <time>2013-06-30T09:55:32Z</time>
      </trkpt>
      <trkpt lat="46.2074" lon="6.77975">
        <ele>1519</ele>
        <time>2013-06-30T09:55:36Z</time>
      </trkpt>
      <trkpt lat="46.20756" lon="6.77916">
        <ele>1515</ele>
        <time>2013-06-30T09:55:42Z</time>
      </trkpt>
      <trkpt lat="46.20761" lon="6.77898">
        <ele>1517</ele>
        <time>2013-06-30T09:55:46Z</time>
      </trkpt>
      <trkpt lat="46.20762" lon="6.77897">
        <ele>1517</ele>
        <time>2013-06-30T09:55:49Z</time>
      </trkpt>
      <trkpt lat="46.20758" lon="6.77897">
        <ele>1517</ele>
        <time>2013-06-30T09:56:25Z</time>
      </trkpt>
      <trkpt lat="46.20757" lon="6.77898">
        <ele>1517</ele>
        <time>2013-06-30T09:56:42Z</time>
      </trkpt>
      <trkpt lat="46.20757" lon="6.77897">
        <ele>1517</ele>
        <time>2013-06-30T09:58:35Z</time>
      </trkpt>
      <trkpt lat="46.20758" lon="6.77892">
        <ele>1517</ele>
        <time>2013-06-30T09:59:06Z</time>
      </trkpt>
      <trkpt lat="46.2076" lon="6.77873">
        <ele>1517</ele>
        <time>2013-06-30T09:59:11Z</time>
      </trkpt>
      <trkpt lat="46.20765" lon="6.77855">
        <ele>1515</ele>
        <time>2013-06-30T09:59:14Z</time>
      </trkpt>
      <trkpt lat="46.20767" lon="6.77833">
        <ele>1510</ele>
        <time>2013-06-30T09:59:17Z</time>
      </trkpt>
      <trkpt lat="46.20775" lon="6.77791">
        <ele>1511</ele>
        <time>2013-06-30T09:59:22Z</time>
      </trkpt>
      <trkpt lat="46.20795" lon="6.7774">
        <ele>1507</ele>
        <time>2013-06-30T09:59:28Z</time>
      </trkpt>
      <trkpt lat="46.20799" lon="6.77732">
        <ele>1508</ele>
        <time>2013-06-30T09:59:29Z</time>
      </trkpt>
      <trkpt lat="46.2081" lon="6.77701">
        <ele>1507</ele>
        <time>2013-06-30T09:59:34Z</time>
      </trkpt>
      <trkpt lat="46.20813" lon="6.77693">
        <ele>1507</ele>
        <time>2013-06-30T09:59:36Z</time>
      </trkpt>
      <trkpt lat="46.20827" lon="6.77655">
        <ele>1505</ele>
        <time>2013-06-30T09:59:44Z</time>
      </trkpt>
      <trkpt lat="46.20836" lon="6.77625">
        <ele>1510</ele>
        <time>2013-06-30T09:59:50Z</time>
      </trkpt>
      <trkpt lat="46.20837" lon="6.7762">
        <ele>1509</ele>
        <time>2013-06-30T09:59:51Z</time>
      </trkpt>
      <trkpt lat="46.20829" lon="6.77609">
        <ele>1502</ele>
        <time>2013-06-30T09:59:56Z</time>
      </trkpt>
      <trkpt lat="46.2082" lon="6.77615">
        <ele>1502</ele>
        <time>2013-06-30T09:59:59Z</time>
      </trkpt>
      <trkpt lat="46.20799" lon="6.77627">
        <ele>1503</ele>
        <time>2013-06-30T10:00:06Z</time>
      </trkpt>
      <trkpt lat="46.20782" lon="6.77652">
        <ele>1502</ele>
        <time>2013-06-30T10:00:13Z</time>
      </trkpt>
      <trkpt lat="46.20766" lon="6.77681">
        <ele>1503</ele>
        <time>2013-06-30T10:00:20Z</time>
      </trkpt>
      <trkpt lat="46.20759" lon="6.7769">
        <ele>1503</ele>
        <time>2013-06-30T10:00:23Z</time>
      </trkpt>
      <trkpt lat="46.2074" lon="6.77702">
        <ele>1500</ele>
        <time>2013-06-30T10:00:31Z</time>
      </trkpt>
      <trkpt lat="46.2073" lon="6.7771">
        <ele>1500</ele>
        <time>2013-06-30T10:00:37Z</time>
      </trkpt>
      <trkpt lat="46.20725" lon="6.77723">
        <ele>1500</ele>
        <time>2013-06-30T10:00:43Z</time>
      </trkpt>
      <trkpt lat="46.20724" lon="6.77725">
        <ele>1500</ele>
        <time>2013-06-30T10:00:49Z</time>
      </trkpt>
      <trkpt lat="46.20723" lon="6.77726">
        <ele>1500</ele>
        <time>2013-06-30T10:01:00Z</time>
      </trkpt>
      <trkpt lat="46.20722" lon="6.77726">
        <ele>1500</ele>
        <time>2013-06-30T10:02:00Z</time>
      </trkpt>
      <trkpt lat="46.20723" lon="6.77723">
        <ele>1500</ele>
        <time>2013-06-30T10:02:58Z</time>
      </trkpt>
      <trkpt lat="46.2072" lon="6.77718">
        <ele>1500</ele>
        <time>2013-06-30T10:03:24Z</time>
      </trkpt>
      <trkpt lat="46.20723" lon="6.77713">
        <ele>1500</ele>
        <time>2013-06-30T10:03:42Z</time>
      </trkpt>
      <trkpt lat="46.20724" lon="6.77712">
        <ele>1500</ele>
        <time>2013-06-30T10:03:54Z</time>
      </trkpt>
      <trkpt lat="46.20725" lon="6.77713">
        <ele>1500</ele>
        <time>2013-06-30T10:04:14Z</time>
      </trkpt>
      <trkpt lat="46.20725" lon="6.77713">
        <ele>1500</ele>
        <time>2013-06-30T10:04:40Z</time>
      </trkpt>
      <trkpt lat="46.20725" lon="6.77713">
        <ele>1500</ele>
        <time>2013-06-30T10:04:49Z</time>
      </trkpt>
      <trkpt lat="46.20727" lon="6.7771">
        <ele>1500</ele>
        <time>2013-06-30T10:05:02Z</time>
      </trkpt>
      <trkpt lat="46.20727" lon="6.7771">
        <ele>1500</ele>
        <time>2013-06-30T10:05:14Z</time>
      </trkpt>
      <trkpt lat="46.20728" lon="6.77709">
        <ele>1500</ele>
        <time>2013-06-30T10:05:37Z</time>
      </trkpt>
      <trkpt lat="46.20727" lon="6.77709">
        <ele>1500</ele>
        <time>2013-06-30T10:05:49Z</time>
      </trkpt>
      <trkpt lat="46.20729" lon="6.77708">
        <ele>1500</ele>
        <time>2013-06-30T10:05:59Z</time>
      </trkpt>
      <trkpt lat="46.2073" lon="6.77709">
        <ele>1500</ele>
        <time>2013-06-30T10:06:17Z</time>
      </trkpt>
      <trkpt lat="46.2073" lon="6.77708">
        <ele>1500</ele>
        <time>2013-06-30T10:06:27Z</time>
      </trkpt>
      <trkpt lat="46.20731" lon="6.77708">
        <ele>1500</ele>
        <time>2013-06-30T10:06:36Z</time>
      </trkpt>
      <trkpt lat="46.20732" lon="6.77708">
        <ele>1500</ele>
        <time>2013-06-30T10:06:48Z</time>
      </trkpt>
      <trkpt lat="46.20733" lon="6.77707">
        <ele>1500</ele>
        <time>2013-06-30T10:07:07Z</time>
      </trkpt>
      <trkpt lat="46.20734" lon="6.77706">
        <ele>1500</ele>
        <time>2013-06-30T10:07:19Z</time>
      </trkpt>
      <trkpt lat="46.20735" lon="6.77706">
        <ele>1500</ele>
        <time>2013-06-30T10:07:28Z</time>
      </trkpt>
      <trkpt lat="46.20735" lon="6.77704">
        <ele>1500</ele>
        <time>2013-06-30T10:07:56Z</time>
      </trkpt>
      <trkpt lat="46.20738" lon="6.77703">
        <ele>1500</ele>
        <time>2013-06-30T10:08:21Z</time>
      </trkpt>
      <trkpt lat="46.2074" lon="6.777">
        <ele>1500</ele>
        <time>2013-06-30T10:08:30Z</time>
      </trkpt>
      <trkpt lat="46.20741" lon="6.77699">
        <ele>1500</ele>
        <time>2013-06-30T10:08:53Z</time>
      </trkpt>
      <trkpt lat="46.2074" lon="6.77699">
        <ele>1500</ele>
        <time>2013-06-30T10:09:11Z</time>
      </trkpt>
      <trkpt lat="46.20741" lon="6.77696">
        <ele>1500</ele>
        <time>2013-06-30T10:09:19Z</time>
      </trkpt>
      <trkpt lat="46.20741" lon="6.77695">
        <ele>1500</ele>
        <time>2013-06-30T10:09:32Z</time>
      </trkpt>
      <trkpt lat="46.20741" lon="6.77692">
        <ele>1500</ele>
        <time>2013-06-30T10:09:46Z</time>
      </trkpt>
      <trkpt lat="46.20741" lon="6.7769">
        <ele>1500</ele>
        <time>2013-06-30T10:09:57Z</time>
      </trkpt>
      <trkpt lat="46.20741" lon="6.77683">
        <ele>1500</ele>
        <time>2013-06-30T10:10:17Z</time>
      </trkpt>
      <trkpt lat="46.2074" lon="6.77682">
        <ele>1500</ele>
        <time>2013-06-30T10:10:26Z</time>
      </trkpt>
      <trkpt lat="46.20739" lon="6.77681">
        <ele>1500</ele>
        <time>2013-06-30T10:10:45Z</time>
      </trkpt>
      <trkpt lat="46.20738" lon="6.77679">
        <ele>1500</ele>
        <time>2013-06-30T10:10:56Z</time>
      </trkpt>
      <trkpt lat="46.20739" lon="6.77678">
        <ele>1500</ele>
        <time>2013-06-30T10:11:11Z</time>
      </trkpt>
      <trkpt lat="46.20738" lon="6.77678">
        <ele>1500</ele>
        <time>2013-06-30T10:11:19Z</time>
      </trkpt>
      <trkpt lat="46.20738" lon="6.77678">
        <ele>1500</ele>
        <time>2013-06-30T10:11:29Z</time>
      </trkpt>
      <trkpt lat="46.20736" lon="6.7768">
        <ele>1500</ele>
        <time>2013-06-30T10:11:58Z</time>
      </trkpt>
      <trkpt lat="46.20735" lon="6.7768">
        <ele>1500</ele>
        <time>2013-06-30T10:12:05Z</time>
      </trkpt>
      <trkpt lat="46.20733" lon="6.7768">
        <ele>1500</ele>
        <time>2013-06-30T10:12:13Z</time>
      </trkpt>
      <trkpt lat="46.20731" lon="6.7768">
        <ele>1500</ele>
        <time>2013-06-30T10:12:20Z</time>
      </trkpt>
      <trkpt lat="46.20728" lon="6.7768">
        <ele>1500</ele>
        <time>2013-06-30T10:12:28Z</time>
      </trkpt>
      <trkpt lat="46.20727" lon="6.77681">
        <ele>1500</ele>
        <time>2013-06-30T10:12:34Z</time>
      </trkpt>
      <trkpt lat="46.20712" lon="6.77676">
        <ele>1501</ele>
        <time>2013-06-30T10:12:39Z</time>
      </trkpt>
      <trkpt lat="46.20699" lon="6.77671">
        <ele>1501</ele>
        <time>2013-06-30T10:12:43Z</time>
      </trkpt>
      <trkpt lat="46.20686" lon="6.77666">
        <ele>1505</ele>
        <time>2013-06-30T10:12:47Z</time>
      </trkpt>
      <trkpt lat="46.20669" lon="6.7766">
        <ele>1504</ele>
        <time>2013-06-30T10:12:52Z</time>
      </trkpt>
      <trkpt lat="46.20653" lon="6.77654">
        <ele>1511</ele>
        <time>2013-06-30T10:12:57Z</time>
      </trkpt>
      <trkpt lat="46.20634" lon="6.77647">
        <ele>1515</ele>
        <time>2013-06-30T10:13:03Z</time>
      </trkpt>
      <trkpt lat="46.20615" lon="6.7764">
        <ele>1518</ele>
        <time>2013-06-30T10:13:09Z</time>
      </trkpt>
      <trkpt lat="46.20596" lon="6.77633">
        <ele>1520</ele>
        <time>2013-06-30T10:13:15Z</time>
      </trkpt>
      <trkpt lat="46.20573" lon="6.77625">
        <ele>1535</ele>
        <time>2013-06-30T10:13:22Z</time>
      </trkpt>
      <trkpt lat="46.20529" lon="6.77609">
        <ele>1542</ele>
        <time>2013-06-30T10:13:36Z</time>
      </trkpt>
      <trkpt lat="46.20497" lon="6.77597">
        <ele>1558</ele>
        <time>2013-06-30T10:13:46Z</time>
      </trkpt>
      <trkpt lat="46.20468" lon="6.77587">
        <ele>1566</ele>
        <time>2013-06-30T10:13:55Z</time>
      </trkpt>
      <trkpt lat="46.20437" lon="6.77576">
        <ele>1576</ele>
        <time>2013-06-30T10:14:05Z</time>
      </trkpt>
      <trkpt lat="46.2041" lon="6.77566">
        <ele>1594</ele>
        <time>2013-06-30T10:14:14Z</time>
      </trkpt>
      <trkpt lat="46.20379" lon="6.77555">
        <ele>1603</ele>
        <time>2013-06-30T10:14:24Z</time>
      </trkpt>
      <trkpt lat="46.20345" lon="6.77544">
        <ele>1611</ele>
        <time>2013-06-30T10:14:35Z</time>
      </trkpt>
      <trkpt lat="46.20306" lon="6.7753">
        <ele>1639</ele>
        <time>2013-06-30T10:14:48Z</time>
      </trkpt>
      <trkpt lat="46.20267" lon="6.77516">
        <ele>1649</ele>
        <time>2013-06-30T10:15:01Z</time>
      </trkpt>
      <trkpt lat="46.20247" lon="6.77509">
        <ele>1664</ele>
        <time>2013-06-30T10:15:08Z</time>
      </trkpt>
      <trkpt lat="46.20246" lon="6.77508">
        <ele>1665</ele>
        <time>2013-06-30T10:15:12Z</time>
      </trkpt>
      <trkpt lat="46.20244" lon="6.77507">
        <ele>1665</ele>
        <time>2013-06-30T10:15:39Z</time>
      </trkpt>
      <trkpt lat="46.20233" lon="6.77503">
        <ele>1667</ele>
        <time>2013-06-30T10:15:48Z</time>
      </trkpt>
      <trkpt lat="46.20215" lon="6.77498">
        <ele>1674</ele>
        <time>2013-06-30T10:15:57Z</time>
      </trkpt>
      <trkpt lat="46.20196" lon="6.77491">
        <ele>1679</ele>
        <time>2013-06-30T10:16:05Z</time>
      </trkpt>
      <trkpt lat="46.20167" lon="6.77481">
        <ele>1683</ele>
        <time>2013-06-30T10:16:14Z</time>
      </trkpt>
      <trkpt lat="46.20138" lon="6.77471">
        <ele>1696</ele>
        <time>2013-06-30T10:16:23Z</time>
      </trkpt>
      <trkpt lat="46.201" lon="6.77457">
        <ele>1701</ele>
        <time>2013-06-30T10:16:35Z</time>
      </trkpt>
      <trkpt lat="46.2006" lon="6.77443">
        <ele>1717</ele>
        <time>2013-06-30T10:16:48Z</time>
      </trkpt>
      <trkpt lat="46.20018" lon="6.77429">
        <ele>1726</ele>
        <time>2013-06-30T10:17:01Z</time>
      </trkpt>
      <trkpt lat="46.19976" lon="6.77414">
        <ele>1742</ele>
        <time>2013-06-30T10:17:14Z</time>
      </trkpt>
      <trkpt lat="46.19934" lon="6.774">
        <ele>1749</ele>
        <time>2013-06-30T10:17:27Z</time>
      </trkpt>
      <trkpt lat="46.19902" lon="6.77389">
        <ele>1766</ele>
        <time>2013-06-30T10:17:37Z</time>
      </trkpt>
      <trkpt lat="46.19874" lon="6.77379">
        <ele>1772</ele>
        <time>2013-06-30T10:17:46Z</time>
      </trkpt>
      <trkpt lat="46.19836" lon="6.77365">
        <ele>1780</ele>
        <time>2013-06-30T10:17:58Z</time>
      </trkpt>
      <trkpt lat="46.19794" lon="6.77351">
        <ele>1807</ele>
        <time>2013-06-30T10:18:12Z</time>
      </trkpt>
      <trkpt lat="46.19766" lon="6.77341">
        <ele>1821</ele>
        <time>2013-06-30T10:18:22Z</time>
      </trkpt>
      <trkpt lat="46.19744" lon="6.77333">
        <ele>1844</ele>
        <time>2013-06-30T10:18:32Z</time>
      </trkpt>
      <trkpt lat="46.19744" lon="6.77333">
        <ele>1839</ele>
        <time>2013-06-30T10:18:46Z</time>
      </trkpt>
      <trkpt lat="46.19741" lon="6.77332">
        <ele>1845</ele>
        <time>2013-06-30T10:19:16Z</time>
      </trkpt>
      <trkpt lat="46.19726" lon="6.77327">
        <ele>1851</ele>
        <time>2013-06-30T10:19:27Z</time>
      </trkpt>
      <trkpt lat="46.19707" lon="6.7732">
        <ele>1856</ele>
        <time>2013-06-30T10:19:37Z</time>
      </trkpt>
      <trkpt lat="46.19695" lon="6.77317">
        <ele>1858</ele>
        <time>2013-06-30T10:19:43Z</time>
      </trkpt>
      <trkpt lat="46.19693" lon="6.77318">
        <ele>1858</ele>
        <time>2013-06-30T10:19:49Z</time>
      </trkpt>
      <trkpt lat="46.19691" lon="6.77315">
        <ele>1858</ele>
        <time>2013-06-30T10:19:54Z</time>
      </trkpt>
      <trkpt lat="46.19682" lon="6.77313">
        <ele>1860</ele>
        <time>2013-06-30T10:19:59Z</time>
      </trkpt>
      <trkpt lat="46.1968" lon="6.77314">
        <ele>1860</ele>
        <time>2013-06-30T10:20:02Z</time>
      </trkpt>
      <trkpt lat="46.1968" lon="6.77315">
        <ele>1860</ele>
        <time>2013-06-30T10:20:17Z</time>
      </trkpt>
      <trkpt lat="46.1968" lon="6.77315">
        <ele>1860</ele>
        <time>2013-06-30T10:20:47Z</time>
      </trkpt>
      <trkpt lat="46.1968" lon="6.77316">
        <ele>1860</ele>
        <time>2013-06-30T10:20:57Z</time>
      </trkpt>
      <trkpt lat="46.19675" lon="6.77318">
        <ele>1861</ele>
        <time>2013-06-30T10:21:14Z</time>
      </trkpt>
      <trkpt lat="46.19656" lon="6.77327">
        <ele>1865</ele>
        <time>2013-06-30T10:21:19Z</time>
      </trkpt>
      <trkpt lat="46.19643" lon="6.77334">
        <ele>1863</ele>
        <time>2013-06-30T10:21:22Z</time>
      </trkpt>
      <trkpt lat="46.19626" lon="6.77331">
        <ele>1864</ele>
        <time>2013-06-30T10:21:27Z</time>
      </trkpt>
      <trkpt lat="46.19619" lon="6.77326">
        <ele>1864</ele>
        <time>2013-06-30T10:21:29Z</time>
      </trkpt>
      <trkpt lat="46.19585" lon="6.77317">
        <ele>1865</ele>
        <time>2013-06-30T10:21:35Z</time>
      </trkpt>
      <trkpt lat="46.19578" lon="6.77316">
        <ele>1861</ele>
        <time>2013-06-30T10:21:36Z</time>
      </trkpt>
      <trkpt lat="46.19536" lon="6.77306">
        <ele>1855</ele>
        <time>2013-06-30T10:21:42Z</time>
      </trkpt>
      <trkpt lat="46.19482" lon="6.77302">
        <ele>1845</ele>
        <time>2013-06-30T10:21:50Z</time>
      </trkpt>
      <trkpt lat="46.1945" lon="6.77291">
        <ele>1841</ele>
        <time>2013-06-30T10:21:55Z</time>
      </trkpt>
      <trkpt lat="46.19436" lon="6.77285">
        <ele>1840</ele>
        <time>2013-06-30T10:21:57Z</time>
      </trkpt>
      <trkpt lat="46.19411" lon="6.77282">
        <ele>1834</ele>
        <time>2013-06-30T10:22:02Z</time>
      </trkpt>
      <trkpt lat="46.19406" lon="6.7727">
        <ele>1834</ele>
        <time>2013-06-30T10:22:06Z</time>
      </trkpt>
      <trkpt lat="46.19413" lon="6.77258">
        <ele>1834</ele>
        <time>2013-06-30T10:22:09Z</time>
      </trkpt>
      <trkpt lat="46.19435" lon="6.77223">
        <ele>1834</ele>
        <time>2013-06-30T10:22:17Z</time>
      </trkpt>
      <trkpt lat="46.19456" lon="6.77189">
        <ele>1833</ele>
        <time>2013-06-30T10:22:23Z</time>
      </trkpt>
      <trkpt lat="46.1948" lon="6.77141">
        <ele>1830</ele>
        <time>2013-06-30T10:22:30Z</time>
      </trkpt>
      <trkpt lat="46.19483" lon="6.77134">
        <ele>1830</ele>
        <time>2013-06-30T10:22:31Z</time>
      </trkpt>
      <trkpt lat="46.19503" lon="6.77074">
        <ele>1829</ele>
        <time>2013-06-30T10:22:39Z</time>
      </trkpt>
      <trkpt lat="46.19511" lon="6.77051">
        <ele>1828</ele>
        <time>2013-06-30T10:22:42Z</time>
      </trkpt>
      <trkpt lat="46.1953" lon="6.76998">
        <ele>1824</ele>
        <time>2013-06-30T10:22:49Z</time>
      </trkpt>
      <trkpt lat="46.19543" lon="6.76938">
        <ele>1823</ele>
        <time>2013-06-30T10:22:56Z</time>
      </trkpt>
      <trkpt lat="46.19545" lon="6.76898">
        <ele>1821</ele>
        <time>2013-06-30T10:23:01Z</time>
      </trkpt>
      <trkpt lat="46.1955" lon="6.76866">
        <ele>1821</ele>
        <time>2013-06-30T10:23:05Z</time>
      </trkpt>
      <trkpt lat="46.19562" lon="6.76839">
        <ele>1820</ele>
        <time>2013-06-30T10:23:09Z</time>
      </trkpt>
      <trkpt lat="46.19585" lon="6.76817">
        <ele>1818</ele>
        <time>2013-06-30T10:23:14Z</time>
      </trkpt>
      <trkpt lat="46.19616" lon="6.76796">
        <ele>1817</ele>
        <time>2013-06-30T10:23:20Z</time>
      </trkpt>
      <trkpt lat="46.1962" lon="6.76793">
        <ele>1817</ele>
        <time>2013-06-30T10:23:21Z</time>
      </trkpt>
      <trkpt lat="46.19629" lon="6.76772">
        <ele>1817</ele>
        <time>2013-06-30T10:23:25Z</time>
      </trkpt>
      <trkpt lat="46.19628" lon="6.76764">
        <ele>1816</ele>
        <time>2013-06-30T10:23:26Z</time>
      </trkpt>
      <trkpt lat="46.19633" lon="6.76721">
        <ele>1806</ele>
        <time>2013-06-30T10:23:31Z</time>
      </trkpt>
      <trkpt lat="46.19654" lon="6.76694">
        <ele>1804</ele>
        <time>2013-06-30T10:23:35Z</time>
      </trkpt>
      <trkpt lat="46.1967" lon="6.7669">
        <ele>1806</ele>
        <time>2013-06-30T10:23:37Z</time>
      </trkpt>
      <trkpt lat="46.1971" lon="6.76688">
        <ele>1808</ele>
        <time>2013-06-30T10:23:42Z</time>
      </trkpt>
      <trkpt lat="46.19733" lon="6.76685">
        <ele>1808</ele>
        <time>2013-06-30T10:23:45Z</time>
      </trkpt>
      <trkpt lat="46.19761" lon="6.76673">
        <ele>1808</ele>
        <time>2013-06-30T10:23:50Z</time>
      </trkpt>
      <trkpt lat="46.19765" lon="6.76671">
        <ele>1808</ele>
        <time>2013-06-30T10:23:51Z</time>
      </trkpt>
      <trkpt lat="46.19764" lon="6.7666">
        <ele>1801</ele>
        <time>2013-06-30T10:23:54Z</time>
      </trkpt>
      <trkpt lat="46.19756" lon="6.76662">
        <ele>1803</ele>
        <time>2013-06-30T10:23:56Z</time>
      </trkpt>
      <trkpt lat="46.19733" lon="6.76675">
        <ele>1807</ele>
        <time>2013-06-30T10:24:01Z</time>
      </trkpt>
      <trkpt lat="46.19716" lon="6.7668">
        <ele>1808</ele>
        <time>2013-06-30T10:24:05Z</time>
      </trkpt>
      <trkpt lat="46.19683" lon="6.7668">
        <ele>1806</ele>
        <time>2013-06-30T10:24:13Z</time>
      </trkpt>
      <trkpt lat="46.19686" lon="6.76672">
        <ele>1805</ele>
        <time>2013-06-30T10:24:17Z</time>
      </trkpt>
      <trkpt lat="46.19701" lon="6.76669">
        <ele>1806</ele>
        <time>2013-06-30T10:24:20Z</time>
      </trkpt>
      <trkpt lat="46.19708" lon="6.76667">
        <ele>1807</ele>
        <time>2013-06-30T10:24:21Z</time>
      </trkpt>
      <trkpt lat="46.19757" lon="6.76636">
        <ele>1797</ele>
        <time>2013-06-30T10:24:27Z</time>
      </trkpt>
      <trkpt lat="46.19797" lon="6.76607">
        <ele>1793</ele>
        <time>2013-06-30T10:24:32Z</time>
      </trkpt>
      <trkpt lat="46.19835" lon="6.76579">
        <ele>1787</ele>
        <time>2013-06-30T10:24:37Z</time>
      </trkpt>
      <trkpt lat="46.19858" lon="6.76541">
        <ele>1780</ele>
        <time>2013-06-30T10:24:42Z</time>
      </trkpt>
      <trkpt lat="46.19864" lon="6.76522">
        <ele>1779</ele>
        <time>2013-06-30T10:24:44Z</time>
      </trkpt>
      <trkpt lat="46.19869" lon="6.76502">
        <ele>1779</ele>
        <time>2013-06-30T10:24:46Z</time>
      </trkpt>
      <trkpt lat="46.19876" lon="6.76459">
        <ele>1775</ele>
        <time>2013-06-30T10:24:50Z</time>
      </trkpt>
      <trkpt lat="46.19878" lon="6.76436">
        <ele>1775</ele>
        <time>2013-06-30T10:24:52Z</time>
      </trkpt>
      <trkpt lat="46.19885" lon="6.76366">
        <ele>1772</ele>
        <time>2013-06-30T10:24:58Z</time>
      </trkpt>
      <trkpt lat="46.19886" lon="6.76304">
        <ele>1768</ele>
        <time>2013-06-30T10:25:04Z</time>
      </trkpt>
      <trkpt lat="46.19888" lon="6.76239">
        <ele>1764</ele>
        <time>2013-06-30T10:25:10Z</time>
      </trkpt>
      <trkpt lat="46.19891" lon="6.76187">
        <ele>1763</ele>
        <time>2013-06-30T10:25:14Z</time>
      </trkpt>
      <trkpt lat="46.19897" lon="6.76159">
        <ele>1761</ele>
        <time>2013-06-30T10:25:16Z</time>
      </trkpt>
      <trkpt lat="46.19918" lon="6.76098">
        <ele>1761</ele>
        <time>2013-06-30T10:25:21Z</time>
      </trkpt>
      <trkpt lat="46.19931" lon="6.76057">
        <ele>1757</ele>
        <time>2013-06-30T10:25:25Z</time>
      </trkpt>
      <trkpt lat="46.19943" lon="6.76018">
        <ele>1756</ele>
        <time>2013-06-30T10:25:29Z</time>
      </trkpt>
      <trkpt lat="46.19946" lon="6.76009">
        <ele>1755</ele>
        <time>2013-06-30T10:25:30Z</time>
      </trkpt>
      <trkpt lat="46.19952" lon="6.7599">
        <ele>1754</ele>
        <time>2013-06-30T10:25:32Z</time>
      </trkpt>
      <trkpt lat="46.19966" lon="6.75938">
        <ele>1754</ele>
        <time>2013-06-30T10:25:37Z</time>
      </trkpt>
      <trkpt lat="46.19982" lon="6.7589">
        <ele>1753</ele>
        <time>2013-06-30T10:25:42Z</time>
      </trkpt>
      <trkpt lat="46.20003" lon="6.7585">
        <ele>1756</ele>
        <time>2013-06-30T10:25:47Z</time>
      </trkpt>
      <trkpt lat="46.20017" lon="6.75827">
        <ele>1756</ele>
        <time>2013-06-30T10:25:51Z</time>
      </trkpt>
      <trkpt lat="46.20029" lon="6.75814">
        <ele>1757</ele>
        <time>2013-06-30T10:25:55Z</time>
      </trkpt>
      <trkpt lat="46.20048" lon="6.75791">
        <ele>1758</ele>
        <time>2013-06-30T10:26:00Z</time>
      </trkpt>
      <trkpt lat="46.20067" lon="6.75775">
        <ele>1759</ele>
        <time>2013-06-30T10:26:06Z</time>
      </trkpt>
      <trkpt lat="46.20077" lon="6.75765">
        <ele>1760</ele>
        <time>2013-06-30T10:26:11Z</time>
      </trkpt>
      <trkpt lat="46.20081" lon="6.75757">
        <ele>1762</ele>
        <time>2013-06-30T10:26:16Z</time>
      </trkpt>
      <trkpt lat="46.20083" lon="6.75754">
        <ele>1763</ele>
        <time>2013-06-30T10:26:23Z</time>
      </trkpt>
      <trkpt lat="46.20095" lon="6.75737">
        <ele>1765</ele>
        <time>2013-06-30T10:26:30Z</time>
      </trkpt>
      <trkpt lat="46.20108" lon="6.75718">
        <ele>1766</ele>
        <time>2013-06-30T10:26:37Z</time>
      </trkpt>
      <trkpt lat="46.20116" lon="6.757">
        <ele>1767</ele>
        <time>2013-06-30T10:26:43Z</time>
      </trkpt>
      <trkpt lat="46.20123" lon="6.75682">
        <ele>1768</ele>
        <time>2013-06-30T10:26:49Z</time>
      </trkpt>
      <trkpt lat="46.20129" lon="6.75661">
        <ele>1768</ele>
        <time>2013-06-30T10:26:56Z</time>
      </trkpt>
      <trkpt lat="46.20137" lon="6.75647">
        <ele>1769</ele>
        <time>2013-06-30T10:27:02Z</time>
      </trkpt>
      <trkpt lat="46.20142" lon="6.75641">
        <ele>1770</ele>
        <time>2013-06-30T10:27:05Z</time>
      </trkpt>
      <trkpt lat="46.20148" lon="6.75621">
        <ele>1770</ele>
        <time>2013-06-30T10:27:11Z</time>
      </trkpt>
      <trkpt lat="46.20151" lon="6.75609">
        <ele>1770</ele>
        <time>2013-06-30T10:27:15Z</time>
      </trkpt>
      <trkpt lat="46.20157" lon="6.75587">
        <ele>1773</ele>
        <time>2013-06-30T10:27:21Z</time>
      </trkpt>
      <trkpt lat="46.2016" lon="6.75558">
        <ele>1769</ele>
        <time>2013-06-30T10:27:27Z</time>
      </trkpt>
      <trkpt lat="46.20164" lon="6.75543">
        <ele>1768</ele>
        <time>2013-06-30T10:27:32Z</time>
      </trkpt>
      <trkpt lat="46.20169" lon="6.75522">
        <ele>1775</ele>
        <time>2013-06-30T10:27:38Z</time>
      </trkpt>
      <trkpt lat="46.20173" lon="6.75497">
        <ele>1774</ele>
        <time>2013-06-30T10:27:44Z</time>
      </trkpt>
      <trkpt lat="46.20175" lon="6.75464">
        <ele>1774</ele>
        <time>2013-06-30T10:27:51Z</time>
      </trkpt>
      <trkpt lat="46.20168" lon="6.75429">
        <ele>1773</ele>
        <time>2013-06-30T10:27:56Z</time>
      </trkpt>
      <trkpt lat="46.20166" lon="6.75422">
        <ele>1770</ele>
        <time>2013-06-30T10:27:57Z</time>
      </trkpt>
      <trkpt lat="46.20161" lon="6.75406">
        <ele>1767</ele>
        <time>2013-06-30T10:27:59Z</time>
      </trkpt>
      <trkpt lat="46.20151" lon="6.75354">
        <ele>1762</ele>
        <time>2013-06-30T10:28:04Z</time>
      </trkpt>
      <trkpt lat="46.20149" lon="6.75342">
        <ele>1762</ele>
        <time>2013-06-30T10:28:05Z</time>
      </trkpt>
      <trkpt lat="46.20146" lon="6.75264">
        <ele>1757</ele>
        <time>2013-06-30T10:28:11Z</time>
      </trkpt>
      <trkpt lat="46.20153" lon="6.75218">
        <ele>1755</ele>
        <time>2013-06-30T10:28:16Z</time>
      </trkpt>
      <trkpt lat="46.20155" lon="6.75189">
        <ele>1755</ele>
        <time>2013-06-30T10:28:22Z</time>
      </trkpt>
      <trkpt lat="46.20158" lon="6.7517">
        <ele>1757</ele>
        <time>2013-06-30T10:28:28Z</time>
      </trkpt>
      <trkpt lat="46.20162" lon="6.75152">
        <ele>1756</ele>
        <time>2013-06-30T10:28:34Z</time>
      </trkpt>
      <trkpt lat="46.20167" lon="6.75138">
        <ele>1752</ele>
        <time>2013-06-30T10:28:40Z</time>
      </trkpt>
      <trkpt lat="46.2017" lon="6.75122">
        <ele>1751</ele>
        <time>2013-06-30T10:28:46Z</time>
      </trkpt>
      <trkpt lat="46.20167" lon="6.75102">
        <ele>1753</ele>
        <time>2013-06-30T10:28:51Z</time>
      </trkpt>
      <trkpt lat="46.20161" lon="6.75074">
        <ele>1757</ele>
        <time>2013-06-30T10:28:58Z</time>
      </trkpt>
      <trkpt lat="46.20156" lon="6.7505">
        <ele>1752</ele>
        <time>2013-06-30T10:29:05Z</time>
      </trkpt>
      <trkpt lat="46.20147" lon="6.75007">
        <ele>1751</ele>
        <time>2013-06-30T10:29:12Z</time>
      </trkpt>
      <trkpt lat="46.20136" lon="6.74951">
        <ele>1744</ele>
        <time>2013-06-30T10:29:18Z</time>
      </trkpt>
      <trkpt lat="46.20125" lon="6.74896">
        <ele>1737</ele>
        <time>2013-06-30T10:29:24Z</time>
      </trkpt>
      <trkpt lat="46.20119" lon="6.74863">
        <ele>1736</ele>
        <time>2013-06-30T10:29:27Z</time>
      </trkpt>
      <trkpt lat="46.20108" lon="6.74805">
        <ele>1734</ele>
        <time>2013-06-30T10:29:33Z</time>
      </trkpt>
      <trkpt lat="46.20106" lon="6.74757">
        <ele>1735</ele>
        <time>2013-06-30T10:29:38Z</time>
      </trkpt>
      <trkpt lat="46.20102" lon="6.74712">
        <ele>1732</ele>
        <time>2013-06-30T10:29:44Z</time>
      </trkpt>
      <trkpt lat="46.20102" lon="6.747">
        <ele>1733</ele>
        <time>2013-06-30T10:29:46Z</time>
      </trkpt>
      <trkpt lat="46.20098" lon="6.74674">
        <ele>1736</ele>
        <time>2013-06-30T10:29:50Z</time>
      </trkpt>
      <trkpt lat="46.20096" lon="6.74647">
        <ele>1733</ele>
        <time>2013-06-30T10:29:54Z</time>
      </trkpt>
      <trkpt lat="46.20092" lon="6.74614">
        <ele>1732</ele>
        <time>2013-06-30T10:30:00Z</time>
      </trkpt>
      <trkpt lat="46.20086" lon="6.74583">
        <ele>1740</ele>
        <time>2013-06-30T10:30:08Z</time>
      </trkpt>
      <trkpt lat="46.20084" lon="6.74564">
        <ele>1734</ele>
        <time>2013-06-30T10:30:15Z</time>
      </trkpt>
      <trkpt lat="46.2008" lon="6.74543">
        <ele>1741</ele>
        <time>2013-06-30T10:30:23Z</time>
      </trkpt>
      <trkpt lat="46.20077" lon="6.74524">
        <ele>1742</ele>
        <time>2013-06-30T10:30:30Z</time>
      </trkpt>
      <trkpt lat="46.20073" lon="6.74509">
        <ele>1744</ele>
        <time>2013-06-30T10:30:36Z</time>
      </trkpt>
      <trkpt lat="46.2007" lon="6.74491">
        <ele>1746</ele>
        <time>2013-06-30T10:30:43Z</time>
      </trkpt>
      <trkpt lat="46.20068" lon="6.74477">
        <ele>1745</ele>
        <time>2013-06-30T10:30:49Z</time>
      </trkpt>
      <trkpt lat="46.20064" lon="6.74462">
        <ele>1745</ele>
        <time>2013-06-30T10:30:55Z</time>
      </trkpt>
      <trkpt lat="46.20061" lon="6.74446">
        <ele>1745</ele>
        <time>2013-06-30T10:31:02Z</time>
      </trkpt>
      <trkpt lat="46.20061" lon="6.74429">
        <ele>1745</ele>
        <time>2013-06-30T10:31:09Z</time>
      </trkpt>
      <trkpt lat="46.20064" lon="6.74409">
        <ele>1749</ele>
        <time>2013-06-30T10:31:17Z</time>
      </trkpt>
      <trkpt lat="46.20066" lon="6.74388">
        <ele>1750</ele>
        <time>2013-06-30T10:31:24Z</time>
      </trkpt>
      <trkpt lat="46.20066" lon="6.74385">
        <ele>1750</ele>
        <time>2013-06-30T10:31:25Z</time>
      </trkpt>
      <trkpt lat="46.20068" lon="6.74374">
        <ele>1751</ele>
        <time>2013-06-30T10:31:29Z</time>
      </trkpt>
      <trkpt lat="46.20066" lon="6.74356">
        <ele>1753</ele>
        <time>2013-06-30T10:31:35Z</time>
      </trkpt>
      <trkpt lat="46.20068" lon="6.74341">
        <ele>1754</ele>
        <time>2013-06-30T10:31:40Z</time>
      </trkpt>
      <trkpt lat="46.20069" lon="6.74335">
        <ele>1754</ele>
        <time>2013-06-30T10:31:42Z</time>
      </trkpt>
      <trkpt lat="46.20064" lon="6.74316">
        <ele>1755</ele>
        <time>2013-06-30T10:31:47Z</time>
      </trkpt>
      <trkpt lat="46.20062" lon="6.74311">
        <ele>1755</ele>
        <time>2013-06-30T10:31:48Z</time>
      </trkpt>
      <trkpt lat="46.20049" lon="6.74284">
        <ele>1755</ele>
        <time>2013-06-30T10:31:54Z</time>
      </trkpt>
      <trkpt lat="46.20036" lon="6.74256">
        <ele>1755</ele>
        <time>2013-06-30T10:32:00Z</time>
      </trkpt>
      <trkpt lat="46.20032" lon="6.74246">
        <ele>1754</ele>
        <time>2013-06-30T10:32:02Z</time>
      </trkpt>
      <trkpt lat="46.20024" lon="6.74221">
        <ele>1754</ele>
        <time>2013-06-30T10:32:07Z</time>
      </trkpt>
      <trkpt lat="46.20021" lon="6.74213">
        <ele>1754</ele>
        <time>2013-06-30T10:32:09Z</time>
      </trkpt>
      <trkpt lat="46.20022" lon="6.74207">
        <ele>1754</ele>
        <time>2013-06-30T10:32:14Z</time>
      </trkpt>
      <trkpt lat="46.20023" lon="6.74207">
        <ele>1754</ele>
        <time>2013-06-30T10:32:22Z</time>
      </trkpt>
      <trkpt lat="46.20035" lon="6.74205">
        <ele>1754</ele>
        <time>2013-06-30T10:32:27Z</time>
      </trkpt>
      <trkpt lat="46.2006" lon="6.74221">
        <ele>1754</ele>
        <time>2013-06-30T10:32:33Z</time>
      </trkpt>
      <trkpt lat="46.20082" lon="6.74244">
        <ele>1755</ele>
        <time>2013-06-30T10:32:37Z</time>
      </trkpt>
      <trkpt lat="46.201" lon="6.74245">
        <ele>1748</ele>
        <time>2013-06-30T10:32:40Z</time>
      </trkpt>
      <trkpt lat="46.20133" lon="6.74224">
        <ele>1741</ele>
        <time>2013-06-30T10:32:46Z</time>
      </trkpt>
      <trkpt lat="46.20143" lon="6.7421">
        <ele>1740</ele>
        <time>2013-06-30T10:32:50Z</time>
      </trkpt>
      <trkpt lat="46.20151" lon="6.742">
        <ele>1740</ele>
        <time>2013-06-30T10:32:55Z</time>
      </trkpt>
      <trkpt lat="46.20159" lon="6.74188">
        <ele>1738</ele>
        <time>2013-06-30T10:32:59Z</time>
      </trkpt>
      <trkpt lat="46.20171" lon="6.7417">
        <ele>1732</ele>
        <time>2013-06-30T10:33:04Z</time>
      </trkpt>
      <trkpt lat="46.20185" lon="6.74156">
        <ele>1727</ele>
        <time>2013-06-30T10:33:09Z</time>
      </trkpt>
      <trkpt lat="46.20188" lon="6.74154">
        <ele>1726</ele>
        <time>2013-06-30T10:33:10Z</time>
      </trkpt>
      <trkpt lat="46.20209" lon="6.74141">
        <ele>1722</ele>
        <time>2013-06-30T10:33:15Z</time>
      </trkpt>
      <trkpt lat="46.20216" lon="6.74142">
        <ele>1722</ele>
        <time>2013-06-30T10:33:17Z</time>
      </trkpt>
      <trkpt lat="46.20238" lon="6.74148">
        <ele>1720</ele>
        <time>2013-06-30T10:33:24Z</time>
      </trkpt>
      <trkpt lat="46.20245" lon="6.74147">
        <ele>1720</ele>
        <time>2013-06-30T10:33:28Z</time>
      </trkpt>
      <trkpt lat="46.20248" lon="6.74146">
        <ele>1720</ele>
        <time>2013-06-30T10:33:35Z</time>
      </trkpt>
      <trkpt lat="46.20252" lon="6.74143">
        <ele>1711</ele>
        <time>2013-06-30T10:33:40Z</time>
      </trkpt>
      <trkpt lat="46.20256" lon="6.7414">
        <ele>1710</ele>
        <time>2013-06-30T10:33:53Z</time>
      </trkpt>
      <trkpt lat="46.2026" lon="6.74139">
        <ele>1710</ele>
        <time>2013-06-30T10:34:01Z</time>
      </trkpt>
      <trkpt lat="46.20268" lon="6.74136">
        <ele>1709</ele>
        <time>2013-06-30T10:34:08Z</time>
      </trkpt>
      <trkpt lat="46.20274" lon="6.74136">
        <ele>1708</ele>
        <time>2013-06-30T10:34:13Z</time>
      </trkpt>
      <trkpt lat="46.20283" lon="6.74136">
        <ele>1707</ele>
        <time>2013-06-30T10:34:18Z</time>
      </trkpt>
      <trkpt lat="46.20295" lon="6.74135">
        <ele>1705</ele>
        <time>2013-06-30T10:34:24Z</time>
      </trkpt>
      <trkpt lat="46.20308" lon="6.74135">
        <ele>1704</ele>
        <time>2013-06-30T10:34:29Z</time>
      </trkpt>
      <trkpt lat="46.20317" lon="6.74134">
        <ele>1703</ele>
        <time>2013-06-30T10:34:34Z</time>
      </trkpt>
      <trkpt lat="46.20327" lon="6.74133">
        <ele>1702</ele>
        <time>2013-06-30T10:34:40Z</time>
      </trkpt>
      <trkpt lat="46.20336" lon="6.74133">
        <ele>1687</ele>
        <time>2013-06-30T10:34:47Z</time>
      </trkpt>
      <trkpt lat="46.20345" lon="6.74135">
        <ele>1686</ele>
        <time>2013-06-30T10:34:52Z</time>
      </trkpt>
      <trkpt lat="46.20351" lon="6.74139">
        <ele>1686</ele>
        <time>2013-06-30T10:34:56Z</time>
      </trkpt>
      <trkpt lat="46.20355" lon="6.74138">
        <ele>1685</ele>
        <time>2013-06-30T10:34:59Z</time>
      </trkpt>
      <trkpt lat="46.20357" lon="6.74135">
        <ele>1684</ele>
        <time>2013-06-30T10:35:05Z</time>
      </trkpt>
      <trkpt lat="46.20356" lon="6.74134">
        <ele>1684</ele>
        <time>2013-06-30T10:35:18Z</time>
      </trkpt>
      <trkpt lat="46.20356" lon="6.74133">
        <ele>1684</ele>
        <time>2013-06-30T10:35:27Z</time>
      </trkpt>
      <trkpt lat="46.20354" lon="6.74128">
        <ele>1684</ele>
        <time>2013-06-30T10:35:40Z</time>
      </trkpt>
      <trkpt lat="46.20351" lon="6.74114">
        <ele>1684</ele>
        <time>2013-06-30T10:35:47Z</time>
      </trkpt>
      <trkpt lat="46.2035" lon="6.74112">
        <ele>1685</ele>
        <time>2013-06-30T10:35:49Z</time>
      </trkpt>
      <trkpt lat="46.20344" lon="6.74101">
        <ele>1686</ele>
        <time>2013-06-30T10:35:55Z</time>
      </trkpt>
      <trkpt lat="46.20339" lon="6.74092">
        <ele>1689</ele>
        <time>2013-06-30T10:35:59Z</time>
      </trkpt>
      <trkpt lat="46.20331" lon="6.74082">
        <ele>1692</ele>
        <time>2013-06-30T10:36:05Z</time>
      </trkpt>
      <trkpt lat="46.20325" lon="6.74073">
        <ele>1690</ele>
        <time>2013-06-30T10:36:10Z</time>
      </trkpt>
      <trkpt lat="46.20318" lon="6.74062">
        <ele>1688</ele>
        <time>2013-06-30T10:36:15Z</time>
      </trkpt>
      <trkpt lat="46.20311" lon="6.74056">
        <ele>1687</ele>
        <time>2013-06-30T10:36:21Z</time>
      </trkpt>
      <trkpt lat="46.20301" lon="6.74051">
        <ele>1687</ele>
        <time>2013-06-30T10:36:27Z</time>
      </trkpt>
      <trkpt lat="46.20296" lon="6.74048">
        <ele>1687</ele>
        <time>2013-06-30T10:36:31Z</time>
      </trkpt>
      <trkpt lat="46.20285" lon="6.74042">
        <ele>1687</ele>
        <time>2013-06-30T10:36:36Z</time>
      </trkpt>
      <trkpt lat="46.20276" lon="6.74035">
        <ele>1686</ele>
        <time>2013-06-30T10:36:40Z</time>
      </trkpt>
      <trkpt lat="46.20267" lon="6.7403">
        <ele>1686</ele>
        <time>2013-06-30T10:36:44Z</time>
      </trkpt>
      <trkpt lat="46.20254" lon="6.74017">
        <ele>1683</ele>
        <time>2013-06-30T10:36:50Z</time>
      </trkpt>
      <trkpt lat="46.20245" lon="6.74012">
        <ele>1688</ele>
        <time>2013-06-30T10:36:55Z</time>
      </trkpt>
      <trkpt lat="46.20239" lon="6.74008">
        <ele>1688</ele>
        <time>2013-06-30T10:36:58Z</time>
      </trkpt>
      <trkpt lat="46.20233" lon="6.74004">
        <ele>1689</ele>
        <time>2013-06-30T10:37:03Z</time>
      </trkpt>
      <trkpt lat="46.20227" lon="6.74002">
        <ele>1691</ele>
        <time>2013-06-30T10:37:07Z</time>
      </trkpt>
      <trkpt lat="46.20215" lon="6.73997">
        <ele>1673</ele>
        <time>2013-06-30T10:37:12Z</time>
      </trkpt>
      <trkpt lat="46.20202" lon="6.73992">
        <ele>1675</ele>
        <time>2013-06-30T10:37:17Z</time>
      </trkpt>
      <trkpt lat="46.20193" lon="6.73981">
        <ele>1675</ele>
        <time>2013-06-30T10:37:21Z</time>
      </trkpt>
      <trkpt lat="46.20183" lon="6.73971">
        <ele>1674</ele>
        <time>2013-06-30T10:37:26Z</time>
      </trkpt>
      <trkpt lat="46.20173" lon="6.73962">
        <ele>1672</ele>
        <time>2013-06-30T10:37:30Z</time>
      </trkpt>
      <trkpt lat="46.20159" lon="6.73951">
        <ele>1685</ele>
        <time>2013-06-30T10:37:35Z</time>
      </trkpt>
      <trkpt lat="46.20142" lon="6.73936">
        <ele>1685</ele>
        <time>2013-06-30T10:37:40Z</time>
      </trkpt>
      <trkpt lat="46.20126" lon="6.73914">
        <ele>1680</ele>
        <time>2013-06-30T10:37:46Z</time>
      </trkpt>
      <trkpt lat="46.20128" lon="6.73892">
        <ele>1679</ele>
        <time>2013-06-30T10:37:52Z</time>
      </trkpt>
      <trkpt lat="46.20128" lon="6.73874">
        <ele>1679</ele>
        <time>2013-06-30T10:37:56Z</time>
      </trkpt>
      <trkpt lat="46.20142" lon="6.73844">
        <ele>1673</ele>
        <time>2013-06-30T10:38:03Z</time>
      </trkpt>
      <trkpt lat="46.20149" lon="6.73816">
        <ele>1676</ele>
        <time>2013-06-30T10:38:09Z</time>
      </trkpt>
      <trkpt lat="46.20153" lon="6.73792">
        <ele>1680</ele>
        <time>2013-06-30T10:38:15Z</time>
      </trkpt>
      <trkpt lat="46.20165" lon="6.73768">
        <ele>1681</ele>
        <time>2013-06-30T10:38:22Z</time>
      </trkpt>
      <trkpt lat="46.20174" lon="6.73748">
        <ele>1672</ele>
        <time>2013-06-30T10:38:28Z</time>
      </trkpt>
      <trkpt lat="46.20181" lon="6.73723">
        <ele>1666</ele>
        <time>2013-06-30T10:38:35Z</time>
      </trkpt>
      <trkpt lat="46.20183" lon="6.73694">
        <ele>1668</ele>
        <time>2013-06-30T10:38:43Z</time>
      </trkpt>
      <trkpt lat="46.20183" lon="6.73669">
        <ele>1674</ele>
        <time>2013-06-30T10:38:51Z</time>
      </trkpt>
      <trkpt lat="46.20183" lon="6.73665">
        <ele>1675</ele>
        <time>2013-06-30T10:38:53Z</time>
      </trkpt>
      <trkpt lat="46.20177" lon="6.73651">
        <ele>1674</ele>
        <time>2013-06-30T10:38:59Z</time>
      </trkpt>
      <trkpt lat="46.20175" lon="6.73633">
        <ele>1670</ele>
        <time>2013-06-30T10:39:03Z</time>
      </trkpt>
      <trkpt lat="46.20176" lon="6.73626">
        <ele>1669</ele>
        <time>2013-06-30T10:39:05Z</time>
      </trkpt>
      <trkpt lat="46.20179" lon="6.73614">
        <ele>1668</ele>
        <time>2013-06-30T10:39:08Z</time>
      </trkpt>
      <trkpt lat="46.20172" lon="6.73578">
        <ele>1674</ele>
        <time>2013-06-30T10:39:14Z</time>
      </trkpt>
      <trkpt lat="46.20172" lon="6.73573">
        <ele>1672</ele>
        <time>2013-06-30T10:39:16Z</time>
      </trkpt>
      <trkpt lat="46.20177" lon="6.73567">
        <ele>1668</ele>
        <time>2013-06-30T10:39:20Z</time>
      </trkpt>
      <trkpt lat="46.20181" lon="6.73559">
        <ele>1664</ele>
        <time>2013-06-30T10:39:24Z</time>
      </trkpt>
      <trkpt lat="46.20173" lon="6.73538">
        <ele>1663</ele>
        <time>2013-06-30T10:39:30Z</time>
      </trkpt>
      <trkpt lat="46.20165" lon="6.7352">
        <ele>1675</ele>
        <time>2013-06-30T10:39:34Z</time>
      </trkpt>
      <trkpt lat="46.20154" lon="6.73499">
        <ele>1668</ele>
        <time>2013-06-30T10:39:39Z</time>
      </trkpt>
      <trkpt lat="46.20146" lon="6.73481">
        <ele>1666</ele>
        <time>2013-06-30T10:39:42Z</time>
      </trkpt>
      <trkpt lat="46.20128" lon="6.73454">
        <ele>1663</ele>
        <time>2013-06-30T10:39:48Z</time>
      </trkpt>
      <trkpt lat="46.20124" lon="6.73449">
        <ele>1663</ele>
        <time>2013-06-30T10:39:50Z</time>
      </trkpt>
      <trkpt lat="46.20113" lon="6.73426">
        <ele>1661</ele>
        <time>2013-06-30T10:39:55Z</time>
      </trkpt>
      <trkpt lat="46.20099" lon="6.73408">
        <ele>1647</ele>
        <time>2013-06-30T10:39:59Z</time>
      </trkpt>
      <trkpt lat="46.20087" lon="6.73381">
        <ele>1640</ele>
        <time>2013-06-30T10:40:04Z</time>
      </trkpt>
      <trkpt lat="46.20075" lon="6.7338">
        <ele>1644</ele>
        <time>2013-06-30T10:40:07Z</time>
      </trkpt>
      <trkpt lat="46.20067" lon="6.73378">
        <ele>1644</ele>
        <time>2013-06-30T10:40:09Z</time>
      </trkpt>
      <trkpt lat="46.20043" lon="6.73373">
        <ele>1642</ele>
        <time>2013-06-30T10:40:15Z</time>
      </trkpt>
      <trkpt lat="46.20035" lon="6.73371">
        <ele>1642</ele>
        <time>2013-06-30T10:40:17Z</time>
      </trkpt>
      <trkpt lat="46.20011" lon="6.73372">
        <ele>1641</ele>
        <time>2013-06-30T10:40:23Z</time>
      </trkpt>
      <trkpt lat="46.20001" lon="6.73375">
        <ele>1641</ele>
        <time>2013-06-30T10:40:28Z</time>
      </trkpt>
      <trkpt lat="46.19993" lon="6.73374">
        <ele>1639</ele>
        <time>2013-06-30T10:40:31Z</time>
      </trkpt>
      <trkpt lat="46.19973" lon="6.73361">
        <ele>1637</ele>
        <time>2013-06-30T10:40:36Z</time>
      </trkpt>
      <trkpt lat="46.1995" lon="6.73359">
        <ele>1637</ele>
        <time>2013-06-30T10:40:42Z</time>
      </trkpt>
      <trkpt lat="46.19937" lon="6.73351">
        <ele>1636</ele>
        <time>2013-06-30T10:40:46Z</time>
      </trkpt>
      <trkpt lat="46.19933" lon="6.73349">
        <ele>1636</ele>
        <time>2013-06-30T10:40:49Z</time>
      </trkpt>
      <trkpt lat="46.1993" lon="6.73345">
        <ele>1635</ele>
        <time>2013-06-30T10:40:54Z</time>
      </trkpt>
      <trkpt lat="46.19928" lon="6.73341">
        <ele>1634</ele>
        <time>2013-06-30T10:40:59Z</time>
      </trkpt>
      <trkpt lat="46.19926" lon="6.73338">
        <ele>1634</ele>
        <time>2013-06-30T10:41:05Z</time>
      </trkpt>
      <trkpt lat="46.19923" lon="6.73333">
        <ele>1633</ele>
        <time>2013-06-30T10:41:12Z</time>
      </trkpt>
      <trkpt lat="46.19921" lon="6.7333">
        <ele>1630</ele>
        <time>2013-06-30T10:41:19Z</time>
      </trkpt>
      <trkpt lat="46.19918" lon="6.73322">
        <ele>1630</ele>
        <time>2013-06-30T10:41:23Z</time>
      </trkpt>
      <trkpt lat="46.19908" lon="6.733">
        <ele>1637</ele>
        <time>2013-06-30T10:41:30Z</time>
      </trkpt>
      <trkpt lat="46.199" lon="6.73284">
        <ele>1637</ele>
        <time>2013-06-30T10:41:35Z</time>
      </trkpt>
      <trkpt lat="46.19898" lon="6.73277">
        <ele>1637</ele>
        <time>2013-06-30T10:41:37Z</time>
      </trkpt>
      <trkpt lat="46.19887" lon="6.73263">
        <ele>1638</ele>
        <time>2013-06-30T10:41:42Z</time>
      </trkpt>
      <trkpt lat="46.19885" lon="6.73253">
        <ele>1638</ele>
        <time>2013-06-30T10:41:44Z</time>
      </trkpt>
      <trkpt lat="46.19878" lon="6.73234">
        <ele>1638</ele>
        <time>2013-06-30T10:41:49Z</time>
      </trkpt>
      <trkpt lat="46.19876" lon="6.73226">
        <ele>1639</ele>
        <time>2013-06-30T10:41:53Z</time>
      </trkpt>
      <trkpt lat="46.19876" lon="6.73221">
        <ele>1639</ele>
        <time>2013-06-30T10:41:58Z</time>
      </trkpt>
      <trkpt lat="46.19876" lon="6.73211">
        <ele>1639</ele>
        <time>2013-06-30T10:42:05Z</time>
      </trkpt>
      <trkpt lat="46.19879" lon="6.73202">
        <ele>1638</ele>
        <time>2013-06-30T10:42:12Z</time>
      </trkpt>
      <trkpt lat="46.19879" lon="6.73198">
        <ele>1638</ele>
        <time>2013-06-30T10:42:15Z</time>
      </trkpt>
      <trkpt lat="46.19881" lon="6.73188">
        <ele>1637</ele>
        <time>2013-06-30T10:42:23Z</time>
      </trkpt>
      <trkpt lat="46.19882" lon="6.73186">
        <ele>1637</ele>
        <time>2013-06-30T10:42:28Z</time>
      </trkpt>
      <trkpt lat="46.19886" lon="6.73178">
        <ele>1636</ele>
        <time>2013-06-30T10:42:35Z</time>
      </trkpt>
      <trkpt lat="46.19887" lon="6.73167">
        <ele>1634</ele>
        <time>2013-06-30T10:42:44Z</time>
      </trkpt>
      <trkpt lat="46.19887" lon="6.73164">
        <ele>1635</ele>
        <time>2013-06-30T10:42:51Z</time>
      </trkpt>
      <trkpt lat="46.19889" lon="6.73162">
        <ele>1634</ele>
        <time>2013-06-30T10:42:56Z</time>
      </trkpt>
      <trkpt lat="46.19891" lon="6.73155">
        <ele>1634</ele>
        <time>2013-06-30T10:43:08Z</time>
      </trkpt>
      <trkpt lat="46.19891" lon="6.73153">
        <ele>1634</ele>
        <time>2013-06-30T10:43:14Z</time>
      </trkpt>
      <trkpt lat="46.19888" lon="6.73136">
        <ele>1636</ele>
        <time>2013-06-30T10:43:19Z</time>
      </trkpt>
      <trkpt lat="46.19887" lon="6.73121">
        <ele>1636</ele>
        <time>2013-06-30T10:43:23Z</time>
      </trkpt>
      <trkpt lat="46.19889" lon="6.73101">
        <ele>1635</ele>
        <time>2013-06-30T10:43:30Z</time>
      </trkpt>
      <trkpt lat="46.1989" lon="6.73086">
        <ele>1634</ele>
        <time>2013-06-30T10:43:36Z</time>
      </trkpt>
      <trkpt lat="46.19889" lon="6.7306">
        <ele>1636</ele>
        <time>2013-06-30T10:43:45Z</time>
      </trkpt>
      <trkpt lat="46.1989" lon="6.73041">
        <ele>1636</ele>
        <time>2013-06-30T10:43:52Z</time>
      </trkpt>
      <trkpt lat="46.19891" lon="6.73021">
        <ele>1636</ele>
        <time>2013-06-30T10:43:57Z</time>
      </trkpt>
      <trkpt lat="46.19891" lon="6.73018">
        <ele>1636</ele>
        <time>2013-06-30T10:44:00Z</time>
      </trkpt>
      <trkpt lat="46.19891" lon="6.73014">
        <ele>1636</ele>
        <time>2013-06-30T10:44:04Z</time>
      </trkpt>
      <trkpt lat="46.19889" lon="6.72995">
        <ele>1637</ele>
        <time>2013-06-30T10:44:15Z</time>
      </trkpt>
      <trkpt lat="46.19889" lon="6.72986">
        <ele>1638</ele>
        <time>2013-06-30T10:44:21Z</time>
      </trkpt>
      <trkpt lat="46.19886" lon="6.72968">
        <ele>1639</ele>
        <time>2013-06-30T10:44:31Z</time>
      </trkpt>
      <trkpt lat="46.19885" lon="6.7295">
        <ele>1639</ele>
        <time>2013-06-30T10:44:40Z</time>
      </trkpt>
      <trkpt lat="46.19883" lon="6.72937">
        <ele>1640</ele>
        <time>2013-06-30T10:44:47Z</time>
      </trkpt>
      <trkpt lat="46.1988" lon="6.72923">
        <ele>1640</ele>
        <time>2013-06-30T10:44:55Z</time>
      </trkpt>
      <trkpt lat="46.19878" lon="6.72907">
        <ele>1644</ele>
        <time>2013-06-30T10:45:04Z</time>
      </trkpt>
      <trkpt lat="46.19877" lon="6.72896">
        <ele>1645</ele>
        <time>2013-06-30T10:45:12Z</time>
      </trkpt>
      <trkpt lat="46.19878" lon="6.72884">
        <ele>1646</ele>
        <time>2013-06-30T10:45:20Z</time>
      </trkpt>
      <trkpt lat="46.1988" lon="6.72877">
        <ele>1646</ele>
        <time>2013-06-30T10:45:26Z</time>
      </trkpt>
      <trkpt lat="46.19884" lon="6.72866">
        <ele>1645</ele>
        <time>2013-06-30T10:45:34Z</time>
      </trkpt>
      <trkpt lat="46.19887" lon="6.72858">
        <ele>1645</ele>
        <time>2013-06-30T10:45:40Z</time>
      </trkpt>
      <trkpt lat="46.19894" lon="6.72839">
        <ele>1643</ele>
        <time>2013-06-30T10:45:52Z</time>
      </trkpt>
      <trkpt lat="46.19897" lon="6.72823">
        <ele>1645</ele>
        <time>2013-06-30T10:46:02Z</time>
      </trkpt>
      <trkpt lat="46.19898" lon="6.7281">
        <ele>1646</ele>
        <time>2013-06-30T10:46:09Z</time>
      </trkpt>
      <trkpt lat="46.19901" lon="6.72792">
        <ele>1646</ele>
        <time>2013-06-30T10:46:19Z</time>
      </trkpt>
      <trkpt lat="46.19903" lon="6.72785">
        <ele>1646</ele>
        <time>2013-06-30T10:46:25Z</time>
      </trkpt>
      <trkpt lat="46.199" lon="6.72768">
        <ele>1644</ele>
        <time>2013-06-30T10:46:31Z</time>
      </trkpt>
      <trkpt lat="46.19897" lon="6.72746">
        <ele>1642</ele>
        <time>2013-06-30T10:46:38Z</time>
      </trkpt>
      <trkpt lat="46.19894" lon="6.72734">
        <ele>1644</ele>
        <time>2013-06-30T10:46:43Z</time>
      </trkpt>
      <trkpt lat="46.19892" lon="6.72718">
        <ele>1645</ele>
        <time>2013-06-30T10:46:48Z</time>
      </trkpt>
      <trkpt lat="46.19888" lon="6.727">
        <ele>1646</ele>
        <time>2013-06-30T10:46:54Z</time>
      </trkpt>
      <trkpt lat="46.19885" lon="6.72675">
        <ele>1645</ele>
        <time>2013-06-30T10:47:02Z</time>
      </trkpt>
      <trkpt lat="46.1988" lon="6.72659">
        <ele>1641</ele>
        <time>2013-06-30T10:47:08Z</time>
      </trkpt>
      <trkpt lat="46.19875" lon="6.72644">
        <ele>1642</ele>
        <time>2013-06-30T10:47:14Z</time>
      </trkpt>
      <trkpt lat="46.19879" lon="6.72634">
        <ele>1641</ele>
        <time>2013-06-30T10:47:19Z</time>
      </trkpt>
      <trkpt lat="46.1988" lon="6.72634">
        <ele>1641</ele>
        <time>2013-06-30T10:47:27Z</time>
      </trkpt>
      <trkpt lat="46.19886" lon="6.72631">
        <ele>1640</ele>
        <time>2013-06-30T10:48:02Z</time>
      </trkpt>
      <trkpt lat="46.19896" lon="6.72615">
        <ele>1639</ele>
        <time>2013-06-30T10:48:07Z</time>
      </trkpt>
      <trkpt lat="46.19904" lon="6.72592">
        <ele>1638</ele>
        <time>2013-06-30T10:48:12Z</time>
      </trkpt>
      <trkpt lat="46.19908" lon="6.72581">
        <ele>1635</ele>
        <time>2013-06-30T10:48:14Z</time>
      </trkpt>
      <trkpt lat="46.19911" lon="6.72562">
        <ele>1634</ele>
        <time>2013-06-30T10:48:17Z</time>
      </trkpt>
      <trkpt lat="46.1991" lon="6.72533">
        <ele>1633</ele>
        <time>2013-06-30T10:48:22Z</time>
      </trkpt>
      <trkpt lat="46.19912" lon="6.72515">
        <ele>1634</ele>
        <time>2013-06-30T10:48:27Z</time>
      </trkpt>
      <trkpt lat="46.19915" lon="6.72508">
        <ele>1634</ele>
        <time>2013-06-30T10:48:31Z</time>
      </trkpt>
      <trkpt lat="46.19915" lon="6.72508">
        <ele>1634</ele>
        <time>2013-06-30T10:48:32Z</time>
      </trkpt>
      <trkpt lat="46.19917" lon="6.72497">
        <ele>1636</ele>
        <time>2013-06-30T10:48:37Z</time>
      </trkpt>
      <trkpt lat="46.19921" lon="6.72485">
        <ele>1637</ele>
        <time>2013-06-30T10:48:42Z</time>
      </trkpt>
      <trkpt lat="46.19922" lon="6.72484">
        <ele>1637</ele>
        <time>2013-06-30T10:48:43Z</time>
      </trkpt>
      <trkpt lat="46.19931" lon="6.72475">
        <ele>1638</ele>
        <time>2013-06-30T10:48:49Z</time>
      </trkpt>
      <trkpt lat="46.19944" lon="6.72459">
        <ele>1639</ele>
        <time>2013-06-30T10:48:55Z</time>
      </trkpt>
      <trkpt lat="46.19957" lon="6.72441">
        <ele>1640</ele>
        <time>2013-06-30T10:49:00Z</time>
      </trkpt>
      <trkpt lat="46.19968" lon="6.72416">
        <ele>1637</ele>
        <time>2013-06-30T10:49:05Z</time>
      </trkpt>
      <trkpt lat="46.19976" lon="6.72398">
        <ele>1637</ele>
        <time>2013-06-30T10:49:09Z</time>
      </trkpt>
      <trkpt lat="46.19982" lon="6.72367">
        <ele>1635</ele>
        <time>2013-06-30T10:49:15Z</time>
      </trkpt>
      <trkpt lat="46.19987" lon="6.72343">
        <ele>1635</ele>
        <time>2013-06-30T10:49:20Z</time>
      </trkpt>
      <trkpt lat="46.19988" lon="6.72339">
        <ele>1635</ele>
        <time>2013-06-30T10:49:21Z</time>
      </trkpt>
      <trkpt lat="46.19985" lon="6.72319">
        <ele>1631</ele>
        <time>2013-06-30T10:49:25Z</time>
      </trkpt>
      <trkpt lat="46.19978" lon="6.72289">
        <ele>1628</ele>
        <time>2013-06-30T10:49:31Z</time>
      </trkpt>
      <trkpt lat="46.19976" lon="6.72281">
        <ele>1627</ele>
        <time>2013-06-30T10:49:35Z</time>
      </trkpt>
      <trkpt lat="46.19974" lon="6.72274">
        <ele>1627</ele>
        <time>2013-06-30T10:49:46Z</time>
      </trkpt>
      <trkpt lat="46.19967" lon="6.72258">
        <ele>1626</ele>
        <time>2013-06-30T10:49:51Z</time>
      </trkpt>
      <trkpt lat="46.19961" lon="6.72259">
        <ele>1625</ele>
        <time>2013-06-30T10:49:54Z</time>
      </trkpt>
      <trkpt lat="46.19953" lon="6.72289">
        <ele>1625</ele>
        <time>2013-06-30T10:50:00Z</time>
      </trkpt>
      <trkpt lat="46.19942" lon="6.72311">
        <ele>1625</ele>
        <time>2013-06-30T10:50:04Z</time>
      </trkpt>
      <trkpt lat="46.19939" lon="6.72315">
        <ele>1625</ele>
        <time>2013-06-30T10:50:05Z</time>
      </trkpt>
      <trkpt lat="46.19926" lon="6.72307">
        <ele>1624</ele>
        <time>2013-06-30T10:50:10Z</time>
      </trkpt>
      <trkpt lat="46.19928" lon="6.72296">
        <ele>1624</ele>
        <time>2013-06-30T10:50:13Z</time>
      </trkpt>
      <trkpt lat="46.19931" lon="6.7227">
        <ele>1622</ele>
        <time>2013-06-30T10:50:17Z</time>
      </trkpt>
      <trkpt lat="46.19932" lon="6.72208">
        <ele>1615</ele>
        <time>2013-06-30T10:50:25Z</time>
      </trkpt>
      <trkpt lat="46.19934" lon="6.72185">
        <ele>1613</ele>
        <time>2013-06-30T10:50:30Z</time>
      </trkpt>
      <trkpt lat="46.19937" lon="6.72165">
        <ele>1606</ele>
        <time>2013-06-30T10:50:35Z</time>
      </trkpt>
      <trkpt lat="46.1993" lon="6.72159">
        <ele>1606</ele>
        <time>2013-06-30T10:50:39Z</time>
      </trkpt>
      <trkpt lat="46.19927" lon="6.72159">
        <ele>1605</ele>
        <time>2013-06-30T10:50:40Z</time>
      </trkpt>
      <trkpt lat="46.19922" lon="6.7216">
        <ele>1605</ele>
        <time>2013-06-30T10:50:42Z</time>
      </trkpt>
      <trkpt lat="46.19912" lon="6.72172">
        <ele>1603</ele>
        <time>2013-06-30T10:50:47Z</time>
      </trkpt>
      <trkpt lat="46.19907" lon="6.72171">
        <ele>1603</ele>
        <time>2013-06-30T10:50:51Z</time>
      </trkpt>
      <trkpt lat="46.19914" lon="6.72154">
        <ele>1598</ele>
        <time>2013-06-30T10:50:56Z</time>
      </trkpt>
      <trkpt lat="46.19915" lon="6.7215">
        <ele>1596</ele>
        <time>2013-06-30T10:50:57Z</time>
      </trkpt>
      <trkpt lat="46.19928" lon="6.72127">
        <ele>1604</ele>
        <time>2013-06-30T10:51:02Z</time>
      </trkpt>
      <trkpt lat="46.19941" lon="6.721">
        <ele>1603</ele>
        <time>2013-06-30T10:51:06Z</time>
      </trkpt>
      <trkpt lat="46.19953" lon="6.7208">
        <ele>1597</ele>
        <time>2013-06-30T10:51:10Z</time>
      </trkpt>
      <trkpt lat="46.19964" lon="6.72054">
        <ele>1598</ele>
        <time>2013-06-30T10:51:16Z</time>
      </trkpt>
      <trkpt lat="46.19975" lon="6.72027">
        <ele>1597</ele>
        <time>2013-06-30T10:51:21Z</time>
      </trkpt>
      <trkpt lat="46.19987" lon="6.72011">
        <ele>1597</ele>
        <time>2013-06-30T10:51:25Z</time>
      </trkpt>
      <trkpt lat="46.20003" lon="6.71997">
        <ele>1598</ele>
        <time>2013-06-30T10:51:30Z</time>
      </trkpt>
      <trkpt lat="46.20022" lon="6.71973">
        <ele>1595</ele>
        <time>2013-06-30T10:51:35Z</time>
      </trkpt>
      <trkpt lat="46.20026" lon="6.71967">
        <ele>1595</ele>
        <time>2013-06-30T10:51:36Z</time>
      </trkpt>
      <trkpt lat="46.20047" lon="6.71946">
        <ele>1594</ele>
        <time>2013-06-30T10:51:42Z</time>
      </trkpt>
      <trkpt lat="46.20055" lon="6.71934">
        <ele>1594</ele>
        <time>2013-06-30T10:51:45Z</time>
      </trkpt>
      <trkpt lat="46.20068" lon="6.71916">
        <ele>1587</ele>
        <time>2013-06-30T10:51:50Z</time>
      </trkpt>
      <trkpt lat="46.2008" lon="6.71902">
        <ele>1587</ele>
        <time>2013-06-30T10:51:54Z</time>
      </trkpt>
      <trkpt lat="46.20089" lon="6.71885">
        <ele>1584</ele>
        <time>2013-06-30T10:51:58Z</time>
      </trkpt>
      <trkpt lat="46.20095" lon="6.71862">
        <ele>1582</ele>
        <time>2013-06-30T10:52:03Z</time>
      </trkpt>
      <trkpt lat="46.20099" lon="6.71845">
        <ele>1581</ele>
        <time>2013-06-30T10:52:06Z</time>
      </trkpt>
      <trkpt lat="46.20103" lon="6.71814">
        <ele>1570</ele>
        <time>2013-06-30T10:52:11Z</time>
      </trkpt>
      <trkpt lat="46.20101" lon="6.71795">
        <ele>1568</ele>
        <time>2013-06-30T10:52:15Z</time>
      </trkpt>
      <trkpt lat="46.20098" lon="6.71772">
        <ele>1567</ele>
        <time>2013-06-30T10:52:20Z</time>
      </trkpt>
      <trkpt lat="46.2009" lon="6.71755">
        <ele>1569</ele>
        <time>2013-06-30T10:52:24Z</time>
      </trkpt>
      <trkpt lat="46.20084" lon="6.71736">
        <ele>1562</ele>
        <time>2013-06-30T10:52:28Z</time>
      </trkpt>
      <trkpt lat="46.20077" lon="6.71713">
        <ele>1561</ele>
        <time>2013-06-30T10:52:32Z</time>
      </trkpt>
      <trkpt lat="46.20076" lon="6.71707">
        <ele>1560</ele>
        <time>2013-06-30T10:52:33Z</time>
      </trkpt>
      <trkpt lat="46.20067" lon="6.71675">
        <ele>1558</ele>
        <time>2013-06-30T10:52:38Z</time>
      </trkpt>
      <trkpt lat="46.20064" lon="6.71663">
        <ele>1553</ele>
        <time>2013-06-30T10:52:40Z</time>
      </trkpt>
      <trkpt lat="46.20055" lon="6.71637">
        <ele>1550</ele>
        <time>2013-06-30T10:52:45Z</time>
      </trkpt>
      <trkpt lat="46.20053" lon="6.71611">
        <ele>1548</ele>
        <time>2013-06-30T10:52:50Z</time>
      </trkpt>
      <trkpt lat="46.20053" lon="6.71599">
        <ele>1548</ele>
        <time>2013-06-30T10:52:52Z</time>
      </trkpt>
      <trkpt lat="46.20048" lon="6.71566">
        <ele>1542</ele>
        <time>2013-06-30T10:52:57Z</time>
      </trkpt>
      <trkpt lat="46.20048" lon="6.71551">
        <ele>1541</ele>
        <time>2013-06-30T10:52:59Z</time>
      </trkpt>
      <trkpt lat="46.20046" lon="6.71525">
        <ele>1540</ele>
        <time>2013-06-30T10:53:04Z</time>
      </trkpt>
      <trkpt lat="46.20037" lon="6.7151">
        <ele>1539</ele>
        <time>2013-06-30T10:53:08Z</time>
      </trkpt>
      <trkpt lat="46.20029" lon="6.71491">
        <ele>1534</ele>
        <time>2013-06-30T10:53:13Z</time>
      </trkpt>
      <trkpt lat="46.20021" lon="6.71465">
        <ele>1533</ele>
        <time>2013-06-30T10:53:18Z</time>
      </trkpt>
      <trkpt lat="46.20019" lon="6.71461">
        <ele>1532</ele>
        <time>2013-06-30T10:53:19Z</time>
      </trkpt>
      <trkpt lat="46.20018" lon="6.7145">
        <ele>1532</ele>
        <time>2013-06-30T10:53:24Z</time>
      </trkpt>
      <trkpt lat="46.2002" lon="6.71448">
        <ele>1531</ele>
        <time>2013-06-30T10:53:26Z</time>
      </trkpt>
      <trkpt lat="46.20021" lon="6.71431">
        <ele>1531</ele>
        <time>2013-06-30T10:53:31Z</time>
      </trkpt>
      <trkpt lat="46.20026" lon="6.71419">
        <ele>1530</ele>
        <time>2013-06-30T10:53:35Z</time>
      </trkpt>
      <trkpt lat="46.20026" lon="6.71414">
        <ele>1524</ele>
        <time>2013-06-30T10:53:37Z</time>
      </trkpt>
      <trkpt lat="46.20028" lon="6.71394">
        <ele>1522</ele>
        <time>2013-06-30T10:53:42Z</time>
      </trkpt>
      <trkpt lat="46.20029" lon="6.71364">
        <ele>1520</ele>
        <time>2013-06-30T10:53:48Z</time>
      </trkpt>
      <trkpt lat="46.20022" lon="6.71337">
        <ele>1518</ele>
        <time>2013-06-30T10:53:53Z</time>
      </trkpt>
      <trkpt lat="46.20014" lon="6.71323">
        <ele>1510</ele>
        <time>2013-06-30T10:53:58Z</time>
      </trkpt>
      <trkpt lat="46.20008" lon="6.71311">
        <ele>1508</ele>
        <time>2013-06-30T10:54:03Z</time>
      </trkpt>
      <trkpt lat="46.20002" lon="6.71298">
        <ele>1506</ele>
        <time>2013-06-30T10:54:09Z</time>
      </trkpt>
      <trkpt lat="46.19999" lon="6.71283">
        <ele>1501</ele>
        <time>2013-06-30T10:54:16Z</time>
      </trkpt>
      <trkpt lat="46.19998" lon="6.71281">
        <ele>1501</ele>
        <time>2013-06-30T10:54:17Z</time>
      </trkpt>
      <trkpt lat="46.1999" lon="6.71271">
        <ele>1500</ele>
        <time>2013-06-30T10:54:23Z</time>
      </trkpt>
      <trkpt lat="46.19987" lon="6.71262">
        <ele>1499</ele>
        <time>2013-06-30T10:54:30Z</time>
      </trkpt>
      <trkpt lat="46.19985" lon="6.71258">
        <ele>1499</ele>
        <time>2013-06-30T10:54:32Z</time>
      </trkpt>
      <trkpt lat="46.19981" lon="6.71247">
        <ele>1490</ele>
        <time>2013-06-30T10:54:37Z</time>
      </trkpt>
      <trkpt lat="46.19976" lon="6.71231">
        <ele>1487</ele>
        <time>2013-06-30T10:54:44Z</time>
      </trkpt>
      <trkpt lat="46.19975" lon="6.71223">
        <ele>1485</ele>
        <time>2013-06-30T10:54:48Z</time>
      </trkpt>
      <trkpt lat="46.19978" lon="6.71223">
        <ele>1485</ele>
        <time>2013-06-30T10:54:53Z</time>
      </trkpt>
      <trkpt lat="46.19978" lon="6.71218">
        <ele>1485</ele>
        <time>2013-06-30T10:55:04Z</time>
      </trkpt>
      <trkpt lat="46.19976" lon="6.71213">
        <ele>1483</ele>
        <time>2013-06-30T10:55:09Z</time>
      </trkpt>
      <trkpt lat="46.1997" lon="6.712">
        <ele>1481</ele>
        <time>2013-06-30T10:55:15Z</time>
      </trkpt>
      <trkpt lat="46.19966" lon="6.71188">
        <ele>1480</ele>
        <time>2013-06-30T10:55:20Z</time>
      </trkpt>
      <trkpt lat="46.19962" lon="6.71172">
        <ele>1478</ele>
        <time>2013-06-30T10:55:25Z</time>
      </trkpt>
      <trkpt lat="46.19962" lon="6.71168">
        <ele>1478</ele>
        <time>2013-06-30T10:55:30Z</time>
      </trkpt>
      <trkpt lat="46.19959" lon="6.71163">
        <ele>1467</ele>
        <time>2013-06-30T10:55:35Z</time>
      </trkpt>
      <trkpt lat="46.1996" lon="6.71165">
        <ele>1467</ele>
        <time>2013-06-30T10:55:43Z</time>
      </trkpt>
      <trkpt lat="46.19957" lon="6.71161">
        <ele>1467</ele>
        <time>2013-06-30T10:55:50Z</time>
      </trkpt>
      <trkpt lat="46.19956" lon="6.7116">
        <ele>1467</ele>
        <time>2013-06-30T10:55:51Z</time>
      </trkpt>
      <trkpt lat="46.19955" lon="6.71151">
        <ele>1466</ele>
        <time>2013-06-30T10:55:55Z</time>
      </trkpt>
      <trkpt lat="46.19951" lon="6.71127">
        <ele>1464</ele>
        <time>2013-06-30T10:56:03Z</time>
      </trkpt>
      <trkpt lat="46.19952" lon="6.71118">
        <ele>1463</ele>
        <time>2013-06-30T10:56:09Z</time>
      </trkpt>
      <trkpt lat="46.19953" lon="6.71108">
        <ele>1462</ele>
        <time>2013-06-30T10:56:13Z</time>
      </trkpt>
      <trkpt lat="46.19954" lon="6.71098">
        <ele>1462</ele>
        <time>2013-06-30T10:56:18Z</time>
      </trkpt>
      <trkpt lat="46.19954" lon="6.71084">
        <ele>1461</ele>
        <time>2013-06-30T10:56:25Z</time>
      </trkpt>
      <trkpt lat="46.19954" lon="6.71078">
        <ele>1453</ele>
        <time>2013-06-30T10:56:38Z</time>
      </trkpt>
      <trkpt lat="46.19952" lon="6.71073">
        <ele>1453</ele>
        <time>2013-06-30T10:56:49Z</time>
      </trkpt>
      <trkpt lat="46.19953" lon="6.71073">
        <ele>1453</ele>
        <time>2013-06-30T10:57:00Z</time>
      </trkpt>
      <trkpt lat="46.19952" lon="6.71071">
        <ele>1453</ele>
        <time>2013-06-30T10:57:12Z</time>
      </trkpt>
      <trkpt lat="46.19953" lon="6.71066">
        <ele>1453</ele>
        <time>2013-06-30T10:57:16Z</time>
      </trkpt>
      <trkpt lat="46.1995" lon="6.71056">
        <ele>1452</ele>
        <time>2013-06-30T10:57:23Z</time>
      </trkpt>
      <trkpt lat="46.19949" lon="6.71047">
        <ele>1452</ele>
        <time>2013-06-30T10:57:28Z</time>
      </trkpt>
      <trkpt lat="46.19946" lon="6.71036">
        <ele>1451</ele>
        <time>2013-06-30T10:57:33Z</time>
      </trkpt>
      <trkpt lat="46.19946" lon="6.7103">
        <ele>1451</ele>
        <time>2013-06-30T10:57:39Z</time>
      </trkpt>
      <trkpt lat="46.19944" lon="6.71025">
        <ele>1451</ele>
        <time>2013-06-30T10:57:45Z</time>
      </trkpt>
      <trkpt lat="46.19944" lon="6.71023">
        <ele>1451</ele>
        <time>2013-06-30T10:57:54Z</time>
      </trkpt>
      <trkpt lat="46.19945" lon="6.71021">
        <ele>1450</ele>
        <time>2013-06-30T10:58:33Z</time>
      </trkpt>
      <trkpt lat="46.19939" lon="6.71028">
        <ele>1451</ele>
        <time>2013-06-30T10:58:39Z</time>
      </trkpt>
      <trkpt lat="46.19938" lon="6.7103">
        <ele>1451</ele>
        <time>2013-06-30T10:58:44Z</time>
      </trkpt>
      <trkpt lat="46.19932" lon="6.71033">
        <ele>1451</ele>
        <time>2013-06-30T10:59:04Z</time>
      </trkpt>
      <trkpt lat="46.19931" lon="6.71035">
        <ele>1451</ele>
        <time>2013-06-30T10:59:10Z</time>
      </trkpt>
      <trkpt lat="46.19931" lon="6.71038">
        <ele>1451</ele>
        <time>2013-06-30T10:59:16Z</time>
      </trkpt>
      <trkpt lat="46.19928" lon="6.71042">
        <ele>1452</ele>
        <time>2013-06-30T10:59:23Z</time>
      </trkpt>
      <trkpt lat="46.19926" lon="6.71045">
        <ele>1452</ele>
        <time>2013-06-30T10:59:29Z</time>
      </trkpt>
      <trkpt lat="46.19924" lon="6.7105">
        <ele>1452</ele>
        <time>2013-06-30T10:59:36Z</time>
      </trkpt>
      <trkpt lat="46.19921" lon="6.71052">
        <ele>1452</ele>
        <time>2013-06-30T10:59:41Z</time>
      </trkpt>
      <trkpt lat="46.19917" lon="6.71054">
        <ele>1453</ele>
        <time>2013-06-30T10:59:47Z</time>
      </trkpt>
      <trkpt lat="46.19915" lon="6.7106">
        <ele>1443</ele>
        <time>2013-06-30T10:59:53Z</time>
      </trkpt>
      <trkpt lat="46.19914" lon="6.71061">
        <ele>1443</ele>
        <time>2013-06-30T10:59:58Z</time>
      </trkpt>
      <trkpt lat="46.19907" lon="6.71068">
        <ele>1444</ele>
        <time>2013-06-30T11:00:03Z</time>
      </trkpt>
      <trkpt lat="46.19905" lon="6.71071">
        <ele>1444</ele>
        <time>2013-06-30T11:00:05Z</time>
      </trkpt>
      <trkpt lat="46.19902" lon="6.71076">
        <ele>1444</ele>
        <time>2013-06-30T11:00:09Z</time>
      </trkpt>
      <trkpt lat="46.19898" lon="6.71088">
        <ele>1448</ele>
        <time>2013-06-30T11:00:16Z</time>
      </trkpt>
      <trkpt lat="46.19892" lon="6.711">
        <ele>1445</ele>
        <time>2013-06-30T11:00:21Z</time>
      </trkpt>
      <trkpt lat="46.19886" lon="6.71111">
        <ele>1444</ele>
        <time>2013-06-30T11:00:26Z</time>
      </trkpt>
      <trkpt lat="46.19883" lon="6.71119">
        <ele>1443</ele>
        <time>2013-06-30T11:00:31Z</time>
      </trkpt>
      <trkpt lat="46.19881" lon="6.71123">
        <ele>1444</ele>
        <time>2013-06-30T11:00:33Z</time>
      </trkpt>
      <trkpt lat="46.1988" lon="6.71129">
        <ele>1444</ele>
        <time>2013-06-30T11:00:35Z</time>
      </trkpt>
      <trkpt lat="46.19873" lon="6.71141">
        <ele>1443</ele>
        <time>2013-06-30T11:00:41Z</time>
      </trkpt>
      <trkpt lat="46.19871" lon="6.71154">
        <ele>1443</ele>
        <time>2013-06-30T11:00:48Z</time>
      </trkpt>
      <trkpt lat="46.1987" lon="6.71162">
        <ele>1442</ele>
        <time>2013-06-30T11:00:54Z</time>
      </trkpt>
      <trkpt lat="46.1987" lon="6.71167">
        <ele>1450</ele>
        <time>2013-06-30T11:01:01Z</time>
      </trkpt>
      <trkpt lat="46.19867" lon="6.71174">
        <ele>1449</ele>
        <time>2013-06-30T11:01:07Z</time>
      </trkpt>
      <trkpt lat="46.19863" lon="6.71189">
        <ele>1449</ele>
        <time>2013-06-30T11:01:15Z</time>
      </trkpt>
      <trkpt lat="46.19859" lon="6.712">
        <ele>1449</ele>
        <time>2013-06-30T11:01:22Z</time>
      </trkpt>
      <trkpt lat="46.19858" lon="6.71206">
        <ele>1449</ele>
        <time>2013-06-30T11:01:27Z</time>
      </trkpt>
      <trkpt lat="46.19856" lon="6.71219">
        <ele>1449</ele>
        <time>2013-06-30T11:01:36Z</time>
      </trkpt>
      <trkpt lat="46.19853" lon="6.71224">
        <ele>1448</ele>
        <time>2013-06-30T11:01:41Z</time>
      </trkpt>
      <trkpt lat="46.19852" lon="6.71221">
        <ele>1448</ele>
        <time>2013-06-30T11:01:45Z</time>
      </trkpt>
      <trkpt lat="46.19851" lon="6.71202">
        <ele>1447</ele>
        <time>2013-06-30T11:01:52Z</time>
      </trkpt>
      <trkpt lat="46.19849" lon="6.712">
        <ele>1446</ele>
        <time>2013-06-30T11:01:55Z</time>
      </trkpt>
      <trkpt lat="46.19843" lon="6.71216">
        <ele>1446</ele>
        <time>2013-06-30T11:02:01Z</time>
      </trkpt>
      <trkpt lat="46.19833" lon="6.71228">
        <ele>1421</ele>
        <time>2013-06-30T11:02:06Z</time>
      </trkpt>
      <trkpt lat="46.19826" lon="6.71249">
        <ele>1428</ele>
        <time>2013-06-30T11:02:11Z</time>
      </trkpt>
      <trkpt lat="46.19822" lon="6.71275">
        <ele>1426</ele>
        <time>2013-06-30T11:02:16Z</time>
      </trkpt>
      <trkpt lat="46.19816" lon="6.71298">
        <ele>1426</ele>
        <time>2013-06-30T11:02:21Z</time>
      </trkpt>
      <trkpt lat="46.198" lon="6.71321">
        <ele>1425</ele>
        <time>2013-06-30T11:02:26Z</time>
      </trkpt>
      <trkpt lat="46.19792" lon="6.71327">
        <ele>1422</ele>
        <time>2013-06-30T11:02:29Z</time>
      </trkpt>
      <trkpt lat="46.19777" lon="6.71329">
        <ele>1417</ele>
        <time>2013-06-30T11:02:33Z</time>
      </trkpt>
      <trkpt lat="46.19771" lon="6.71325">
        <ele>1415</ele>
        <time>2013-06-30T11:02:35Z</time>
      </trkpt>
      <trkpt lat="46.19761" lon="6.71298">
        <ele>1414</ele>
        <time>2013-06-30T11:02:40Z</time>
      </trkpt>
      <trkpt lat="46.19756" lon="6.71276">
        <ele>1411</ele>
        <time>2013-06-30T11:02:44Z</time>
      </trkpt>
      <trkpt lat="46.19756" lon="6.71271">
        <ele>1409</ele>
        <time>2013-06-30T11:02:45Z</time>
      </trkpt>
      <trkpt lat="46.19759" lon="6.71234">
        <ele>1402</ele>
        <time>2013-06-30T11:02:51Z</time>
      </trkpt>
      <trkpt lat="46.19759" lon="6.71208">
        <ele>1403</ele>
        <time>2013-06-30T11:02:56Z</time>
      </trkpt>
      <trkpt lat="46.19763" lon="6.7118">
        <ele>1398</ele>
        <time>2013-06-30T11:03:01Z</time>
      </trkpt>
      <trkpt lat="46.19758" lon="6.71162">
        <ele>1390</ele>
        <time>2013-06-30T11:03:05Z</time>
      </trkpt>
      <trkpt lat="46.19755" lon="6.71129">
        <ele>1393</ele>
        <time>2013-06-30T11:03:12Z</time>
      </trkpt>
      <trkpt lat="46.19755" lon="6.71097">
        <ele>1386</ele>
        <time>2013-06-30T11:03:18Z</time>
      </trkpt>
      <trkpt lat="46.19749" lon="6.7107">
        <ele>1369</ele>
        <time>2013-06-30T11:03:23Z</time>
      </trkpt>
      <trkpt lat="46.19745" lon="6.71043">
        <ele>1363</ele>
        <time>2013-06-30T11:03:29Z</time>
      </trkpt>
      <trkpt lat="46.19745" lon="6.71032">
        <ele>1363</ele>
        <time>2013-06-30T11:03:31Z</time>
      </trkpt>
      <trkpt lat="46.19736" lon="6.71027">
        <ele>1362</ele>
        <time>2013-06-30T11:03:35Z</time>
      </trkpt>
      <trkpt lat="46.19733" lon="6.71044">
        <ele>1361</ele>
        <time>2013-06-30T11:03:39Z</time>
      </trkpt>
      <trkpt lat="46.19721" lon="6.71059">
        <ele>1360</ele>
        <time>2013-06-30T11:03:44Z</time>
      </trkpt>
      <trkpt lat="46.19696" lon="6.71067">
        <ele>1355</ele>
        <time>2013-06-30T11:03:50Z</time>
      </trkpt>
      <trkpt lat="46.19683" lon="6.71046">
        <ele>1353</ele>
        <time>2013-06-30T11:03:55Z</time>
      </trkpt>
      <trkpt lat="46.19684" lon="6.71018">
        <ele>1350</ele>
        <time>2013-06-30T11:04:01Z</time>
      </trkpt>
      <trkpt lat="46.19682" lon="6.70996">
        <ele>1343</ele>
        <time>2013-06-30T11:04:06Z</time>
      </trkpt>
      <trkpt lat="46.19682" lon="6.70975">
        <ele>1345</ele>
        <time>2013-06-30T11:04:10Z</time>
      </trkpt>
      <trkpt lat="46.19685" lon="6.70953">
        <ele>1345</ele>
        <time>2013-06-30T11:04:15Z</time>
      </trkpt>
      <trkpt lat="46.19687" lon="6.70933">
        <ele>1342</ele>
        <time>2013-06-30T11:04:20Z</time>
      </trkpt>
      <trkpt lat="46.19686" lon="6.70912">
        <ele>1336</ele>
        <time>2013-06-30T11:04:24Z</time>
      </trkpt>
      <trkpt lat="46.19679" lon="6.70895">
        <ele>1336</ele>
        <time>2013-06-30T11:04:28Z</time>
      </trkpt>
      <trkpt lat="46.19673" lon="6.70869">
        <ele>1334</ele>
        <time>2013-06-30T11:04:33Z</time>
      </trkpt>
      <trkpt lat="46.1967" lon="6.70837">
        <ele>1322</ele>
        <time>2013-06-30T11:04:39Z</time>
      </trkpt>
      <trkpt lat="46.19666" lon="6.70815">
        <ele>1305</ele>
        <time>2013-06-30T11:04:43Z</time>
      </trkpt>
      <trkpt lat="46.19666" lon="6.70785">
        <ele>1300</ele>
        <time>2013-06-30T11:04:48Z</time>
      </trkpt>
      <trkpt lat="46.19664" lon="6.70755">
        <ele>1306</ele>
        <time>2013-06-30T11:04:53Z</time>
      </trkpt>
      <trkpt lat="46.19658" lon="6.70723">
        <ele>1293</ele>
        <time>2013-06-30T11:04:59Z</time>
      </trkpt>
      <trkpt lat="46.19656" lon="6.70715">
        <ele>1291</ele>
        <time>2013-06-30T11:05:01Z</time>
      </trkpt>
      <trkpt lat="46.19643" lon="6.70704">
        <ele>1288</ele>
        <time>2013-06-30T11:05:05Z</time>
      </trkpt>
      <trkpt lat="46.19642" lon="6.70702">
        <ele>1287</ele>
        <time>2013-06-30T11:05:09Z</time>
      </trkpt>
      <trkpt lat="46.19641" lon="6.70699">
        <ele>1287</ele>
        <time>2013-06-30T11:05:17Z</time>
      </trkpt>
      <trkpt lat="46.19638" lon="6.70685">
        <ele>1286</ele>
        <time>2013-06-30T11:05:22Z</time>
      </trkpt>
      <trkpt lat="46.19638" lon="6.70681">
        <ele>1286</ele>
        <time>2013-06-30T11:05:23Z</time>
      </trkpt>
      <trkpt lat="46.1964" lon="6.70656">
        <ele>1281</ele>
        <time>2013-06-30T11:05:29Z</time>
      </trkpt>
      <trkpt lat="46.19639" lon="6.70642">
        <ele>1280</ele>
        <time>2013-06-30T11:05:31Z</time>
      </trkpt>
      <trkpt lat="46.19638" lon="6.70615">
        <ele>1277</ele>
        <time>2013-06-30T11:05:35Z</time>
      </trkpt>
      <trkpt lat="46.19639" lon="6.70597">
        <ele>1278</ele>
        <time>2013-06-30T11:05:38Z</time>
      </trkpt>
      <trkpt lat="46.19639" lon="6.7058">
        <ele>1273</ele>
        <time>2013-06-30T11:05:42Z</time>
      </trkpt>
      <trkpt lat="46.19629" lon="6.70598">
        <ele>1275</ele>
        <time>2013-06-30T11:05:46Z</time>
      </trkpt>
      <trkpt lat="46.19616" lon="6.70616">
        <ele>1273</ele>
        <time>2013-06-30T11:05:50Z</time>
      </trkpt>
      <trkpt lat="46.1961" lon="6.7061">
        <ele>1271</ele>
        <time>2013-06-30T11:05:52Z</time>
      </trkpt>
      <trkpt lat="46.19609" lon="6.7059">
        <ele>1269</ele>
        <time>2013-06-30T11:05:55Z</time>
      </trkpt>
      <trkpt lat="46.19608" lon="6.70561">
        <ele>1265</ele>
        <time>2013-06-30T11:05:59Z</time>
      </trkpt>
      <trkpt lat="46.19607" lon="6.70547">
        <ele>1264</ele>
        <time>2013-06-30T11:06:01Z</time>
      </trkpt>
      <trkpt lat="46.19606" lon="6.70534">
        <ele>1263</ele>
        <time>2013-06-30T11:06:03Z</time>
      </trkpt>
      <trkpt lat="46.19605" lon="6.70521">
        <ele>1262</ele>
        <time>2013-06-30T11:06:05Z</time>
      </trkpt>
      <trkpt lat="46.19607" lon="6.70509">
        <ele>1261</ele>
        <time>2013-06-30T11:06:07Z</time>
      </trkpt>
      <trkpt lat="46.19598" lon="6.70505">
        <ele>1257</ele>
        <time>2013-06-30T11:06:10Z</time>
      </trkpt>
      <trkpt lat="46.19594" lon="6.70512">
        <ele>1257</ele>
        <time>2013-06-30T11:06:11Z</time>
      </trkpt>
      <trkpt lat="46.19587" lon="6.70525">
        <ele>1259</ele>
        <time>2013-06-30T11:06:13Z</time>
      </trkpt>
      <trkpt lat="46.19575" lon="6.70539">
        <ele>1241</ele>
        <time>2013-06-30T11:06:16Z</time>
      </trkpt>
      <trkpt lat="46.19563" lon="6.70551">
        <ele>1240</ele>
        <time>2013-06-30T11:06:20Z</time>
      </trkpt>
      <trkpt lat="46.19552" lon="6.70569">
        <ele>1239</ele>
        <time>2013-06-30T11:06:26Z</time>
      </trkpt>
      <trkpt lat="46.1955" lon="6.70571">
        <ele>1239</ele>
        <time>2013-06-30T11:06:28Z</time>
      </trkpt>
      <trkpt lat="46.19541" lon="6.70558">
        <ele>1236</ele>
        <time>2013-06-30T11:06:33Z</time>
      </trkpt>
      <trkpt lat="46.19534" lon="6.7054">
        <ele>1234</ele>
        <time>2013-06-30T11:06:37Z</time>
      </trkpt>
      <trkpt lat="46.19532" lon="6.70515">
        <ele>1232</ele>
        <time>2013-06-30T11:06:42Z</time>
      </trkpt>
      <trkpt lat="46.19531" lon="6.70502">
        <ele>1231</ele>
        <time>2013-06-30T11:06:44Z</time>
      </trkpt>
      <trkpt lat="46.19525" lon="6.70474">
        <ele>1227</ele>
        <time>2013-06-30T11:06:49Z</time>
      </trkpt>
      <trkpt lat="46.19523" lon="6.70457">
        <ele>1226</ele>
        <time>2013-06-30T11:06:52Z</time>
      </trkpt>
      <trkpt lat="46.19524" lon="6.70425">
        <ele>1223</ele>
        <time>2013-06-30T11:06:58Z</time>
      </trkpt>
      <trkpt lat="46.19526" lon="6.70409">
        <ele>1219</ele>
        <time>2013-06-30T11:07:02Z</time>
      </trkpt>
      <trkpt lat="46.19525" lon="6.70403">
        <ele>1219</ele>
        <time>2013-06-30T11:07:07Z</time>
      </trkpt>
      <trkpt lat="46.19517" lon="6.70408">
        <ele>1217</ele>
        <time>2013-06-30T11:07:10Z</time>
      </trkpt>
      <trkpt lat="46.19496" lon="6.70429">
        <ele>1204</ele>
        <time>2013-06-30T11:07:16Z</time>
      </trkpt>
      <trkpt lat="46.19477" lon="6.70457">
        <ele>1198</ele>
        <time>2013-06-30T11:07:22Z</time>
      </trkpt>
      <trkpt lat="46.19471" lon="6.70472">
        <ele>1197</ele>
        <time>2013-06-30T11:07:26Z</time>
      </trkpt>
      <trkpt lat="46.19465" lon="6.70494">
        <ele>1197</ele>
        <time>2013-06-30T11:07:30Z</time>
      </trkpt>
      <trkpt lat="46.19455" lon="6.70519">
        <ele>1198</ele>
        <time>2013-06-30T11:07:34Z</time>
      </trkpt>
      <trkpt lat="46.19444" lon="6.70564">
        <ele>1197</ele>
        <time>2013-06-30T11:07:40Z</time>
      </trkpt>
      <trkpt lat="46.19442" lon="6.70568">
        <ele>1196</ele>
        <time>2013-06-30T11:07:41Z</time>
      </trkpt>
      <trkpt lat="46.1944" lon="6.70566">
        <ele>1196</ele>
        <time>2013-06-30T11:07:44Z</time>
      </trkpt>
      <trkpt lat="46.19435" lon="6.7053">
        <ele>1194</ele>
        <time>2013-06-30T11:07:49Z</time>
      </trkpt>
      <trkpt lat="46.19424" lon="6.70499">
        <ele>1181</ele>
        <time>2013-06-30T11:07:54Z</time>
      </trkpt>
      <trkpt lat="46.19423" lon="6.70474">
        <ele>1186</ele>
        <time>2013-06-30T11:07:58Z</time>
      </trkpt>
      <trkpt lat="46.19417" lon="6.70449">
        <ele>1185</ele>
        <time>2013-06-30T11:08:02Z</time>
      </trkpt>
      <trkpt lat="46.19416" lon="6.70441">
        <ele>1161</ele>
        <time>2013-06-30T11:08:03Z</time>
      </trkpt>
      <trkpt lat="46.19412" lon="6.70418">
        <ele>1167</ele>
        <time>2013-06-30T11:08:06Z</time>
      </trkpt>
      <trkpt lat="46.19405" lon="6.70383">
        <ele>1150</ele>
        <time>2013-06-30T11:08:11Z</time>
      </trkpt>
      <trkpt lat="46.19408" lon="6.70354">
        <ele>1150</ele>
        <time>2013-06-30T11:08:16Z</time>
      </trkpt>
      <trkpt lat="46.19412" lon="6.7033">
        <ele>1152</ele>
        <time>2013-06-30T11:08:21Z</time>
      </trkpt>
      <trkpt lat="46.19413" lon="6.70327">
        <ele>1150</ele>
        <time>2013-06-30T11:08:22Z</time>
      </trkpt>
      <trkpt lat="46.19417" lon="6.70311">
        <ele>1164</ele>
        <time>2013-06-30T11:08:27Z</time>
      </trkpt>
      <trkpt lat="46.19416" lon="6.70313">
        <ele>1142</ele>
        <time>2013-06-30T11:08:29Z</time>
      </trkpt>
      <trkpt lat="46.19408" lon="6.70325">
        <ele>1147</ele>
        <time>2013-06-30T11:08:34Z</time>
      </trkpt>
      <trkpt lat="46.19391" lon="6.70345">
        <ele>1146</ele>
        <time>2013-06-30T11:08:38Z</time>
      </trkpt>
      <trkpt lat="46.1938" lon="6.7036">
        <ele>1142</ele>
        <time>2013-06-30T11:08:41Z</time>
      </trkpt>
      <trkpt lat="46.19375" lon="6.70372">
        <ele>1142</ele>
        <time>2013-06-30T11:08:43Z</time>
      </trkpt>
      <trkpt lat="46.19362" lon="6.70399">
        <ele>1139</ele>
        <time>2013-06-30T11:08:48Z</time>
      </trkpt>
      <trkpt lat="46.19357" lon="6.70411">
        <ele>1137</ele>
        <time>2013-06-30T11:08:50Z</time>
      </trkpt>
      <trkpt lat="46.19352" lon="6.70439">
        <ele>1144</ele>
        <time>2013-06-30T11:08:54Z</time>
      </trkpt>
      <trkpt lat="46.1935" lon="6.70454">
        <ele>1147</ele>
        <time>2013-06-30T11:08:56Z</time>
      </trkpt>
      <trkpt lat="46.19341" lon="6.70478">
        <ele>1147</ele>
        <time>2013-06-30T11:09:01Z</time>
      </trkpt>
      <trkpt lat="46.19328" lon="6.7047">
        <ele>1128</ele>
        <time>2013-06-30T11:09:05Z</time>
      </trkpt>
      <trkpt lat="46.19325" lon="6.70461">
        <ele>1126</ele>
        <time>2013-06-30T11:09:07Z</time>
      </trkpt>
      <trkpt lat="46.19315" lon="6.70432">
        <ele>1123</ele>
        <time>2013-06-30T11:09:12Z</time>
      </trkpt>
      <trkpt lat="46.19303" lon="6.704">
        <ele>1109</ele>
        <time>2013-06-30T11:09:17Z</time>
      </trkpt>
      <trkpt lat="46.19295" lon="6.70373">
        <ele>1104</ele>
        <time>2013-06-30T11:09:22Z</time>
      </trkpt>
      <trkpt lat="46.1929" lon="6.70352">
        <ele>1101</ele>
        <time>2013-06-30T11:09:25Z</time>
      </trkpt>
      <trkpt lat="46.19287" lon="6.70321">
        <ele>1086</ele>
        <time>2013-06-30T11:09:30Z</time>
      </trkpt>
      <trkpt lat="46.19291" lon="6.7028">
        <ele>1082</ele>
        <time>2013-06-30T11:09:37Z</time>
      </trkpt>
      <trkpt lat="46.19297" lon="6.70254">
        <ele>1082</ele>
        <time>2013-06-30T11:09:42Z</time>
      </trkpt>
      <trkpt lat="46.19304" lon="6.70236">
        <ele>1069</ele>
        <time>2013-06-30T11:09:47Z</time>
      </trkpt>
      <trkpt lat="46.19311" lon="6.70219">
        <ele>1067</ele>
        <time>2013-06-30T11:09:50Z</time>
      </trkpt>
      <trkpt lat="46.19328" lon="6.70189">
        <ele>1065</ele>
        <time>2013-06-30T11:09:55Z</time>
      </trkpt>
      <trkpt lat="46.19339" lon="6.70161">
        <ele>1071</ele>
        <time>2013-06-30T11:10:00Z</time>
      </trkpt>
      <trkpt lat="46.19344" lon="6.7015">
        <ele>1074</ele>
        <time>2013-06-30T11:10:03Z</time>
      </trkpt>
      <trkpt lat="46.19345" lon="6.70146">
        <ele>1074</ele>
        <time>2013-06-30T11:10:08Z</time>
      </trkpt>
      <trkpt lat="46.19344" lon="6.70145">
        <ele>1074</ele>
        <time>2013-06-30T11:11:04Z</time>
      </trkpt>
      <trkpt lat="46.19338" lon="6.70148">
        <ele>1073</ele>
        <time>2013-06-30T11:11:09Z</time>
      </trkpt>
      <trkpt lat="46.19328" lon="6.70164">
        <ele>1061</ele>
        <time>2013-06-30T11:11:14Z</time>
      </trkpt>
      <trkpt lat="46.1931" lon="6.70177">
        <ele>1062</ele>
        <time>2013-06-30T11:11:20Z</time>
      </trkpt>
      <trkpt lat="46.19294" lon="6.70185">
        <ele>1059</ele>
        <time>2013-06-30T11:11:24Z</time>
      </trkpt>
      <trkpt lat="46.19281" lon="6.70195">
        <ele>1056</ele>
        <time>2013-06-30T11:11:28Z</time>
      </trkpt>
      <trkpt lat="46.19267" lon="6.70206">
        <ele>1055</ele>
        <time>2013-06-30T11:11:32Z</time>
      </trkpt>
      <trkpt lat="46.19263" lon="6.70209">
        <ele>1056</ele>
        <time>2013-06-30T11:11:33Z</time>
      </trkpt>
      <trkpt lat="46.19235" lon="6.70231">
        <ele>1037</ele>
        <time>2013-06-30T11:11:39Z</time>
      </trkpt>
      <trkpt lat="46.19219" lon="6.70252">
        <ele>1049</ele>
        <time>2013-06-30T11:11:44Z</time>
      </trkpt>
      <trkpt lat="46.19214" lon="6.70239">
        <ele>1031</ele>
        <time>2013-06-30T11:11:48Z</time>
      </trkpt>
      <trkpt lat="46.19216" lon="6.70232">
        <ele>1031</ele>
        <time>2013-06-30T11:11:49Z</time>
      </trkpt>
      <trkpt lat="46.19232" lon="6.70187">
        <ele>1027</ele>
        <time>2013-06-30T11:11:55Z</time>
      </trkpt>
      <trkpt lat="46.19245" lon="6.70149">
        <ele>1015</ele>
        <time>2013-06-30T11:11:58Z</time>
      </trkpt>
      <trkpt lat="46.1926" lon="6.70114">
        <ele>1026</ele>
        <time>2013-06-30T11:12:01Z</time>
      </trkpt>
      <trkpt lat="46.19267" lon="6.70101">
        <ele>1024</ele>
        <time>2013-06-30T11:12:03Z</time>
      </trkpt>
      <trkpt lat="46.19266" lon="6.70091">
        <ele>1020</ele>
        <time>2013-06-30T11:12:06Z</time>
      </trkpt>
      <trkpt lat="46.19262" lon="6.70092">
        <ele>1018</ele>
        <time>2013-06-30T11:12:07Z</time>
      </trkpt>
      <trkpt lat="46.19237" lon="6.7011">
        <ele>1004</ele>
        <time>2013-06-30T11:12:12Z</time>
      </trkpt>
      <trkpt lat="46.19207" lon="6.7013">
        <ele>1003</ele>
        <time>2013-06-30T11:12:17Z</time>
      </trkpt>
      <trkpt lat="46.19182" lon="6.70148">
        <ele>1000</ele>
        <time>2013-06-30T11:12:21Z</time>
      </trkpt>
      <trkpt lat="46.19169" lon="6.70164">
        <ele>998</ele>
        <time>2013-06-30T11:12:24Z</time>
      </trkpt>
      <trkpt lat="46.19165" lon="6.70158">
        <ele>993</ele>
        <time>2013-06-30T11:12:27Z</time>
      </trkpt>
      <trkpt lat="46.19181" lon="6.70139">
        <ele>1000</ele>
        <time>2013-06-30T11:12:31Z</time>
      </trkpt>
      <trkpt lat="46.19185" lon="6.70132">
        <ele>1000</ele>
        <time>2013-06-30T11:12:32Z</time>
      </trkpt>
      <trkpt lat="46.19211" lon="6.70089">
        <ele>999</ele>
        <time>2013-06-30T11:12:38Z</time>
      </trkpt>
      <trkpt lat="46.1922" lon="6.70073">
        <ele>989</ele>
        <time>2013-06-30T11:12:40Z</time>
      </trkpt>
      <trkpt lat="46.19238" lon="6.70051">
        <ele>989</ele>
        <time>2013-06-30T11:12:43Z</time>
      </trkpt>
      <trkpt lat="46.19253" lon="6.70025">
        <ele>1000</ele>
        <time>2013-06-30T11:12:46Z</time>
      </trkpt>
      <trkpt lat="46.19268" lon="6.6999">
        <ele>986</ele>
        <time>2013-06-30T11:12:50Z</time>
      </trkpt>
      <trkpt lat="46.19293" lon="6.69967">
        <ele>989</ele>
        <time>2013-06-30T11:12:54Z</time>
      </trkpt>
      <trkpt lat="46.19325" lon="6.69925">
        <ele>987</ele>
        <time>2013-06-30T11:12:59Z</time>
      </trkpt>
      <trkpt lat="46.19351" lon="6.69887">
        <ele>994</ele>
        <time>2013-06-30T11:13:04Z</time>
      </trkpt>
      <trkpt lat="46.19382" lon="6.69845">
        <ele>996</ele>
        <time>2013-06-30T11:13:11Z</time>
      </trkpt>
      <trkpt lat="46.19387" lon="6.69839">
        <ele>997</ele>
        <time>2013-06-30T11:13:12Z</time>
      </trkpt>
      <trkpt lat="46.19389" lon="6.69816">
        <ele>983</ele>
        <time>2013-06-30T11:13:15Z</time>
      </trkpt>
      <trkpt lat="46.19381" lon="6.6981">
        <ele>980</ele>
        <time>2013-06-30T11:13:17Z</time>
      </trkpt>
      <trkpt lat="46.19366" lon="6.69821">
        <ele>977</ele>
        <time>2013-06-30T11:13:19Z</time>
      </trkpt>
      <trkpt lat="46.19358" lon="6.6983">
        <ele>975</ele>
        <time>2013-06-30T11:13:20Z</time>
      </trkpt>
      <trkpt lat="46.19327" lon="6.69867">
        <ele>971</ele>
        <time>2013-06-30T11:13:24Z</time>
      </trkpt>
      <trkpt lat="46.19308" lon="6.69877">
        <ele>971</ele>
        <time>2013-06-30T11:13:27Z</time>
      </trkpt>
      <trkpt lat="46.19298" lon="6.69864">
        <ele>969</ele>
        <time>2013-06-30T11:13:29Z</time>
      </trkpt>
      <trkpt lat="46.19292" lon="6.69848">
        <ele>968</ele>
        <time>2013-06-30T11:13:32Z</time>
      </trkpt>
      <trkpt lat="46.19297" lon="6.69836">
        <ele>967</ele>
        <time>2013-06-30T11:13:35Z</time>
      </trkpt>
      <trkpt lat="46.19319" lon="6.69808">
        <ele>962</ele>
        <time>2013-06-30T11:13:42Z</time>
      </trkpt>
      <trkpt lat="46.1933" lon="6.69794">
        <ele>961</ele>
        <time>2013-06-30T11:13:45Z</time>
      </trkpt>
      <trkpt lat="46.19338" lon="6.69773">
        <ele>969</ele>
        <time>2013-06-30T11:13:50Z</time>
      </trkpt>
      <trkpt lat="46.19337" lon="6.69769">
        <ele>968</ele>
        <time>2013-06-30T11:13:54Z</time>
      </trkpt>
      <trkpt lat="46.19335" lon="6.69768">
        <ele>967</ele>
        <time>2013-06-30T11:14:26Z</time>
      </trkpt>
      <trkpt lat="46.19327" lon="6.69766">
        <ele>959</ele>
        <time>2013-06-30T11:14:30Z</time>
      </trkpt>
      <trkpt lat="46.19325" lon="6.69768">
        <ele>959</ele>
        <time>2013-06-30T11:14:31Z</time>
      </trkpt>
      <trkpt lat="46.19305" lon="6.69789">
        <ele>960</ele>
        <time>2013-06-30T11:14:39Z</time>
      </trkpt>
      <trkpt lat="46.19288" lon="6.69806">
        <ele>959</ele>
        <time>2013-06-30T11:14:45Z</time>
      </trkpt>
      <trkpt lat="46.19265" lon="6.69832">
        <ele>958</ele>
        <time>2013-06-30T11:14:54Z</time>
      </trkpt>
      <trkpt lat="46.19243" lon="6.69855">
        <ele>958</ele>
        <time>2013-06-30T11:15:02Z</time>
      </trkpt>
      <trkpt lat="46.19217" lon="6.69883">
        <ele>959</ele>
        <time>2013-06-30T11:15:11Z</time>
      </trkpt>
      <trkpt lat="46.19188" lon="6.6991">
        <ele>959</ele>
        <time>2013-06-30T11:15:20Z</time>
      </trkpt>
      <trkpt lat="46.19172" lon="6.69928">
        <ele>963</ele>
        <time>2013-06-30T11:15:25Z</time>
      </trkpt>
      <trkpt lat="46.19147" lon="6.69956">
        <ele>963</ele>
        <time>2013-06-30T11:15:32Z</time>
      </trkpt>
      <trkpt lat="46.19124" lon="6.69978">
        <ele>963</ele>
        <time>2013-06-30T11:15:39Z</time>
      </trkpt>
      <trkpt lat="46.19112" lon="6.69985">
        <ele>963</ele>
        <time>2013-06-30T11:15:42Z</time>
      </trkpt>
      <trkpt lat="46.19092" lon="6.69976">
        <ele>963</ele>
        <time>2013-06-30T11:15:47Z</time>
      </trkpt>
      <trkpt lat="46.19083" lon="6.69938">
        <ele>959</ele>
        <time>2013-06-30T11:15:52Z</time>
      </trkpt>
      <trkpt lat="46.19077" lon="6.69916">
        <ele>958</ele>
        <time>2013-06-30T11:15:55Z</time>
      </trkpt>
      <trkpt lat="46.19063" lon="6.69869">
        <ele>953</ele>
        <time>2013-06-30T11:16:01Z</time>
      </trkpt>
      <trkpt lat="46.1904" lon="6.6986">
        <ele>952</ele>
        <time>2013-06-30T11:16:06Z</time>
      </trkpt>
      <trkpt lat="46.19027" lon="6.6984">
        <ele>951</ele>
        <time>2013-06-30T11:16:10Z</time>
      </trkpt>
      <trkpt lat="46.19023" lon="6.69836">
        <ele>951</ele>
        <time>2013-06-30T11:16:11Z</time>
      </trkpt>
      <trkpt lat="46.1901" lon="6.69831">
        <ele>946</ele>
        <time>2013-06-30T11:16:13Z</time>
      </trkpt>
      <trkpt lat="46.18977" lon="6.69818">
        <ele>940</ele>
        <time>2013-06-30T11:16:18Z</time>
      </trkpt>
      <trkpt lat="46.18965" lon="6.69794">
        <ele>937</ele>
        <time>2013-06-30T11:16:21Z</time>
      </trkpt>
      <trkpt lat="46.18962" lon="6.69777">
        <ele>936</ele>
        <time>2013-06-30T11:16:23Z</time>
      </trkpt>
      <trkpt lat="46.18962" lon="6.69746">
        <ele>932</ele>
        <time>2013-06-30T11:16:28Z</time>
      </trkpt>
      <trkpt lat="46.18977" lon="6.69729">
        <ele>932</ele>
        <time>2013-06-30T11:16:32Z</time>
      </trkpt>
      <trkpt lat="46.18986" lon="6.69703">
        <ele>931</ele>
        <time>2013-06-30T11:16:36Z</time>
      </trkpt>
      <trkpt lat="46.18985" lon="6.69692">
        <ele>930</ele>
        <time>2013-06-30T11:16:38Z</time>
      </trkpt>
      <trkpt lat="46.18977" lon="6.69659">
        <ele>933</ele>
        <time>2013-06-30T11:16:45Z</time>
      </trkpt>
      <trkpt lat="46.18971" lon="6.69649">
        <ele>935</ele>
        <time>2013-06-30T11:16:49Z</time>
      </trkpt>
      <trkpt lat="46.18973" lon="6.6965">
        <ele>935</ele>
        <time>2013-06-30T11:16:50Z</time>
      </trkpt>
      <trkpt lat="46.18975" lon="6.69665">
        <ele>933</ele>
        <time>2013-06-30T11:16:55Z</time>
      </trkpt>
      <trkpt lat="46.18965" lon="6.6968">
        <ele>931</ele>
        <time>2013-06-30T11:17:01Z</time>
      </trkpt>
      <trkpt lat="46.18959" lon="6.69687">
        <ele>932</ele>
        <time>2013-06-30T11:17:05Z</time>
      </trkpt>
      <trkpt lat="46.18956" lon="6.69691">
        <ele>932</ele>
        <time>2013-06-30T11:17:07Z</time>
      </trkpt>
      <trkpt lat="46.18944" lon="6.69697">
        <ele>932</ele>
        <time>2013-06-30T11:17:13Z</time>
      </trkpt>
      <trkpt lat="46.18934" lon="6.69706">
        <ele>932</ele>
        <time>2013-06-30T11:17:16Z</time>
      </trkpt>
      <trkpt lat="46.1893" lon="6.69708">
        <ele>932</ele>
        <time>2013-06-30T11:17:17Z</time>
      </trkpt>
      <trkpt lat="46.18912" lon="6.69712">
        <ele>937</ele>
        <time>2013-06-30T11:17:22Z</time>
      </trkpt>
      <trkpt lat="46.18899" lon="6.69717">
        <ele>937</ele>
        <time>2013-06-30T11:17:27Z</time>
      </trkpt>
      <trkpt lat="46.18882" lon="6.69722">
        <ele>938</ele>
        <time>2013-06-30T11:17:32Z</time>
      </trkpt>
      <trkpt lat="46.18869" lon="6.69726">
        <ele>939</ele>
        <time>2013-06-30T11:17:36Z</time>
      </trkpt>
      <trkpt lat="46.1886" lon="6.69727">
        <ele>939</ele>
        <time>2013-06-30T11:17:41Z</time>
      </trkpt>
      <trkpt lat="46.18841" lon="6.69742">
        <ele>939</ele>
        <time>2013-06-30T11:17:46Z</time>
      </trkpt>
      <trkpt lat="46.1883" lon="6.69751">
        <ele>938</ele>
        <time>2013-06-30T11:17:51Z</time>
      </trkpt>
      <trkpt lat="46.1882" lon="6.69758">
        <ele>939</ele>
        <time>2013-06-30T11:17:56Z</time>
      </trkpt>
      <trkpt lat="46.18803" lon="6.69767">
        <ele>940</ele>
        <time>2013-06-30T11:18:01Z</time>
      </trkpt>
      <trkpt lat="46.1879" lon="6.69772">
        <ele>940</ele>
        <time>2013-06-30T11:18:06Z</time>
      </trkpt>
      <trkpt lat="46.18776" lon="6.69783">
        <ele>941</ele>
        <time>2013-06-30T11:18:11Z</time>
      </trkpt>
      <trkpt lat="46.18763" lon="6.69791">
        <ele>941</ele>
        <time>2013-06-30T11:18:15Z</time>
      </trkpt>
      <trkpt lat="46.18748" lon="6.69807">
        <ele>947</ele>
        <time>2013-06-30T11:18:20Z</time>
      </trkpt>
      <trkpt lat="46.18727" lon="6.69843">
        <ele>941</ele>
        <time>2013-06-30T11:18:27Z</time>
      </trkpt>
      <trkpt lat="46.1872" lon="6.69859">
        <ele>942</ele>
        <time>2013-06-30T11:18:32Z</time>
      </trkpt>
      <trkpt lat="46.18719" lon="6.69879">
        <ele>942</ele>
        <time>2013-06-30T11:18:37Z</time>
      </trkpt>
      <trkpt lat="46.18714" lon="6.69899">
        <ele>941</ele>
        <time>2013-06-30T11:18:42Z</time>
      </trkpt>
      <trkpt lat="46.18709" lon="6.69922">
        <ele>938</ele>
        <time>2013-06-30T11:18:47Z</time>
      </trkpt>
      <trkpt lat="46.187" lon="6.69945">
        <ele>938</ele>
        <time>2013-06-30T11:18:53Z</time>
      </trkpt>
      <trkpt lat="46.18691" lon="6.69963">
        <ele>938</ele>
        <time>2013-06-30T11:18:58Z</time>
      </trkpt>
      <trkpt lat="46.18678" lon="6.69987">
        <ele>938</ele>
        <time>2013-06-30T11:19:03Z</time>
      </trkpt>
      <trkpt lat="46.18662" lon="6.7001">
        <ele>940</ele>
        <time>2013-06-30T11:19:09Z</time>
      </trkpt>
      <trkpt lat="46.1865" lon="6.70019">
        <ele>942</ele>
        <time>2013-06-30T11:19:14Z</time>
      </trkpt>
      <trkpt lat="46.18623" lon="6.70026">
        <ele>944</ele>
        <time>2013-06-30T11:19:22Z</time>
      </trkpt>
      <trkpt lat="46.18608" lon="6.70036">
        <ele>945</ele>
        <time>2013-06-30T11:19:27Z</time>
      </trkpt>
      <trkpt lat="46.18592" lon="6.70052">
        <ele>945</ele>
        <time>2013-06-30T11:19:33Z</time>
      </trkpt>
      <trkpt lat="46.18578" lon="6.70072">
        <ele>950</ele>
        <time>2013-06-30T11:19:38Z</time>
      </trkpt>
      <trkpt lat="46.18568" lon="6.70086">
        <ele>948</ele>
        <time>2013-06-30T11:19:43Z</time>
      </trkpt>
      <trkpt lat="46.18552" lon="6.70119">
        <ele>950</ele>
        <time>2013-06-30T11:19:51Z</time>
      </trkpt>
      <trkpt lat="46.18551" lon="6.70135">
        <ele>949</ele>
        <time>2013-06-30T11:19:55Z</time>
      </trkpt>
      <trkpt lat="46.18553" lon="6.70153">
        <ele>949</ele>
        <time>2013-06-30T11:19:59Z</time>
      </trkpt>
      <trkpt lat="46.18539" lon="6.7018">
        <ele>946</ele>
        <time>2013-06-30T11:20:05Z</time>
      </trkpt>
      <trkpt lat="46.18523" lon="6.70219">
        <ele>945</ele>
        <time>2013-06-30T11:20:12Z</time>
      </trkpt>
      <trkpt lat="46.18509" lon="6.70247">
        <ele>945</ele>
        <time>2013-06-30T11:20:18Z</time>
      </trkpt>
      <trkpt lat="46.18488" lon="6.70272">
        <ele>948</ele>
        <time>2013-06-30T11:20:26Z</time>
      </trkpt>
      <trkpt lat="46.1847" lon="6.70277">
        <ele>949</ele>
        <time>2013-06-30T11:20:32Z</time>
      </trkpt>
      <trkpt lat="46.18459" lon="6.70283">
        <ele>950</ele>
        <time>2013-06-30T11:20:37Z</time>
      </trkpt>
      <trkpt lat="46.18448" lon="6.703">
        <ele>951</ele>
        <time>2013-06-30T11:20:42Z</time>
      </trkpt>
      <trkpt lat="46.1844" lon="6.70323">
        <ele>951</ele>
        <time>2013-06-30T11:20:47Z</time>
      </trkpt>
      <trkpt lat="46.18436" lon="6.70343">
        <ele>949</ele>
        <time>2013-06-30T11:20:52Z</time>
      </trkpt>
      <trkpt lat="46.18426" lon="6.70372">
        <ele>948</ele>
        <time>2013-06-30T11:20:59Z</time>
      </trkpt>
      <trkpt lat="46.1841" lon="6.70391">
        <ele>951</ele>
        <time>2013-06-30T11:21:03Z</time>
      </trkpt>
      <trkpt lat="46.18374" lon="6.70414">
        <ele>952</ele>
        <time>2013-06-30T11:21:10Z</time>
      </trkpt>
      <trkpt lat="46.18361" lon="6.7042">
        <ele>949</ele>
        <time>2013-06-30T11:21:14Z</time>
      </trkpt>
      <trkpt lat="46.18358" lon="6.7042">
        <ele>950</ele>
        <time>2013-06-30T11:21:19Z</time>
      </trkpt>
      <trkpt lat="46.18368" lon="6.70439">
        <ele>949</ele>
        <time>2013-06-30T11:21:38Z</time>
      </trkpt>
      <trkpt lat="46.18364" lon="6.70456">
        <ele>949</ele>
        <time>2013-06-30T11:21:45Z</time>
      </trkpt>
      <trkpt lat="46.18362" lon="6.70461">
        <ele>949</ele>
        <time>2013-06-30T11:21:51Z</time>
      </trkpt>
      <trkpt lat="46.18343" lon="6.70367">
        <ele>957</ele>
        <time>2013-06-30T11:22:25Z</time>
      </trkpt>
      <trkpt lat="46.18348" lon="6.70373">
        <ele>956</ele>
        <time>2013-06-30T11:22:36Z</time>
      </trkpt>
      <trkpt lat="46.18347" lon="6.70372">
        <ele>956</ele>
        <time>2013-06-30T11:22:45Z</time>
      </trkpt>
      <trkpt lat="46.18422" lon="6.70232">
        <ele>959</ele>
        <time>2013-06-30T11:23:01Z</time>
      </trkpt>
      <trkpt lat="46.18366" lon="6.70388">
        <ele>954</ele>
        <time>2013-06-30T11:23:05Z</time>
      </trkpt>
      <trkpt lat="46.18349" lon="6.70363">
        <ele>958</ele>
        <time>2013-06-30T11:23:11Z</time>
      </trkpt>
      <trkpt lat="46.18346" lon="6.70357">
        <ele>959</ele>
        <time>2013-06-30T11:23:14Z</time>
      </trkpt>
      <trkpt lat="46.18342" lon="6.70346">
        <ele>962</ele>
        <time>2013-06-30T11:23:18Z</time>
      </trkpt>
      <trkpt lat="46.18345" lon="6.70334">
        <ele>963</ele>
        <time>2013-06-30T11:23:22Z</time>
      </trkpt>
      <trkpt lat="46.18345" lon="6.70328">
        <ele>966</ele>
        <time>2013-06-30T11:23:25Z</time>
      </trkpt>
      <trkpt lat="46.1834" lon="6.70314">
        <ele>966</ele>
        <time>2013-06-30T11:23:33Z</time>
      </trkpt>
      <trkpt lat="46.18331" lon="6.70299">
        <ele>970</ele>
        <time>2013-06-30T11:23:39Z</time>
      </trkpt>
      <trkpt lat="46.1832" lon="6.70283">
        <ele>971</ele>
        <time>2013-06-30T11:23:44Z</time>
      </trkpt>
      <trkpt lat="46.18302" lon="6.70256">
        <ele>971</ele>
        <time>2013-06-30T11:23:52Z</time>
      </trkpt>
      <trkpt lat="46.18288" lon="6.70235">
        <ele>971</ele>
        <time>2013-06-30T11:23:59Z</time>
      </trkpt>
      <trkpt lat="46.18287" lon="6.70226">
        <ele>971</ele>
        <time>2013-06-30T11:24:02Z</time>
      </trkpt>
      <trkpt lat="46.18289" lon="6.70212">
        <ele>971</ele>
        <time>2013-06-30T11:24:06Z</time>
      </trkpt>
      <trkpt lat="46.18282" lon="6.70201">
        <ele>971</ele>
        <time>2013-06-30T11:24:10Z</time>
      </trkpt>
      <trkpt lat="46.18276" lon="6.70202">
        <ele>971</ele>
        <time>2013-06-30T11:24:12Z</time>
      </trkpt>
      <trkpt lat="46.18261" lon="6.70195">
        <ele>971</ele>
        <time>2013-06-30T11:24:18Z</time>
      </trkpt>
      <trkpt lat="46.18244" lon="6.70169">
        <ele>973</ele>
        <time>2013-06-30T11:24:26Z</time>
      </trkpt>
      <trkpt lat="46.18226" lon="6.7014">
        <ele>974</ele>
        <time>2013-06-30T11:24:34Z</time>
      </trkpt>
      <trkpt lat="46.18217" lon="6.70123">
        <ele>975</ele>
        <time>2013-06-30T11:24:39Z</time>
      </trkpt>
      <trkpt lat="46.18203" lon="6.70103">
        <ele>975</ele>
        <time>2013-06-30T11:24:46Z</time>
      </trkpt>
      <trkpt lat="46.18189" lon="6.70076">
        <ele>977</ele>
        <time>2013-06-30T11:24:54Z</time>
      </trkpt>
      <trkpt lat="46.18185" lon="6.70059">
        <ele>977</ele>
        <time>2013-06-30T11:24:59Z</time>
      </trkpt>
      <trkpt lat="46.18173" lon="6.70045">
        <ele>977</ele>
        <time>2013-06-30T11:25:06Z</time>
      </trkpt>
      <trkpt lat="46.18164" lon="6.70027">
        <ele>981</ele>
        <time>2013-06-30T11:25:13Z</time>
      </trkpt>
      <trkpt lat="46.18162" lon="6.70023">
        <ele>981</ele>
        <time>2013-06-30T11:25:16Z</time>
      </trkpt>
      <trkpt lat="46.18154" lon="6.70028">
        <ele>981</ele>
        <time>2013-06-30T11:25:21Z</time>
      </trkpt>
      <trkpt lat="46.18152" lon="6.70032">
        <ele>981</ele>
        <time>2013-06-30T11:25:22Z</time>
      </trkpt>
      <trkpt lat="46.18134" lon="6.70072">
        <ele>980</ele>
        <time>2013-06-30T11:25:31Z</time>
      </trkpt>
      <trkpt lat="46.1812" lon="6.70096">
        <ele>979</ele>
        <time>2013-06-30T11:25:37Z</time>
      </trkpt>
      <trkpt lat="46.18104" lon="6.70121">
        <ele>979</ele>
        <time>2013-06-30T11:25:44Z</time>
      </trkpt>
      <trkpt lat="46.18101" lon="6.70126">
        <ele>979</ele>
        <time>2013-06-30T11:25:46Z</time>
      </trkpt>
      <trkpt lat="46.18095" lon="6.70118">
        <ele>979</ele>
        <time>2013-06-30T11:25:50Z</time>
      </trkpt>
      <trkpt lat="46.18092" lon="6.70113">
        <ele>980</ele>
        <time>2013-06-30T11:25:52Z</time>
      </trkpt>
      <trkpt lat="46.18079" lon="6.70093">
        <ele>982</ele>
        <time>2013-06-30T11:26:00Z</time>
      </trkpt>
      <trkpt lat="46.18068" lon="6.70074">
        <ele>984</ele>
        <time>2013-06-30T11:26:07Z</time>
      </trkpt>
      <trkpt lat="46.18062" lon="6.70065">
        <ele>985</ele>
        <time>2013-06-30T11:26:13Z</time>
      </trkpt>
      <trkpt lat="46.1806" lon="6.70065">
        <ele>985</ele>
        <time>2013-06-30T11:26:16Z</time>
      </trkpt>
      <trkpt lat="46.18069" lon="6.70076">
        <ele>984</ele>
        <time>2013-06-30T11:26:21Z</time>
      </trkpt>
      <trkpt lat="46.18084" lon="6.70102">
        <ele>980</ele>
        <time>2013-06-30T11:26:26Z</time>
      </trkpt>
      <trkpt lat="46.18091" lon="6.70112">
        <ele>980</ele>
        <time>2013-06-30T11:26:28Z</time>
      </trkpt>
      <trkpt lat="46.18104" lon="6.70124">
        <ele>979</ele>
        <time>2013-06-30T11:26:33Z</time>
      </trkpt>
      <trkpt lat="46.18107" lon="6.70124">
        <ele>979</ele>
        <time>2013-06-30T11:26:34Z</time>
      </trkpt>
      <trkpt lat="46.18123" lon="6.70105">
        <ele>979</ele>
        <time>2013-06-30T11:26:40Z</time>
      </trkpt>
      <trkpt lat="46.18133" lon="6.70092">
        <ele>979</ele>
        <time>2013-06-30T11:26:43Z</time>
      </trkpt>
      <trkpt lat="46.18149" lon="6.70053">
        <ele>980</ele>
        <time>2013-06-30T11:26:50Z</time>
      </trkpt>
      <trkpt lat="46.18166" lon="6.70015">
        <ele>981</ele>
        <time>2013-06-30T11:26:58Z</time>
      </trkpt>
      <trkpt lat="46.18184" lon="6.69979">
        <ele>980</ele>
        <time>2013-06-30T11:27:07Z</time>
      </trkpt>
      <trkpt lat="46.18201" lon="6.69944">
        <ele>981</ele>
        <time>2013-06-30T11:27:16Z</time>
      </trkpt>
      <trkpt lat="46.18216" lon="6.69917">
        <ele>981</ele>
        <time>2013-06-30T11:27:23Z</time>
      </trkpt>
      <trkpt lat="46.18236" lon="6.69878">
        <ele>985</ele>
        <time>2013-06-30T11:27:33Z</time>
      </trkpt>
      <trkpt lat="46.18254" lon="6.69844">
        <ele>983</ele>
        <time>2013-06-30T11:27:42Z</time>
      </trkpt>
      <trkpt lat="46.18267" lon="6.6981">
        <ele>984</ele>
        <time>2013-06-30T11:27:50Z</time>
      </trkpt>
      <trkpt lat="46.18274" lon="6.69778">
        <ele>985</ele>
        <time>2013-06-30T11:27:57Z</time>
      </trkpt>
      <trkpt lat="46.18285" lon="6.69736">
        <ele>989</ele>
        <time>2013-06-30T11:28:06Z</time>
      </trkpt>
      <trkpt lat="46.18294" lon="6.69697">
        <ele>990</ele>
        <time>2013-06-30T11:28:14Z</time>
      </trkpt>
      <trkpt lat="46.18303" lon="6.69671">
        <ele>990</ele>
        <time>2013-06-30T11:28:20Z</time>
      </trkpt>
      <trkpt lat="46.18317" lon="6.69645">
        <ele>997</ele>
        <time>2013-06-30T11:28:27Z</time>
      </trkpt>
      <trkpt lat="46.1834" lon="6.69618">
        <ele>991</ele>
        <time>2013-06-30T11:28:36Z</time>
      </trkpt>
      <trkpt lat="46.18362" lon="6.69596">
        <ele>991</ele>
        <time>2013-06-30T11:28:44Z</time>
      </trkpt>
      <trkpt lat="46.18393" lon="6.69566">
        <ele>998</ele>
        <time>2013-06-30T11:28:55Z</time>
      </trkpt>
      <trkpt lat="46.18416" lon="6.69534">
        <ele>1000</ele>
        <time>2013-06-30T11:29:05Z</time>
      </trkpt>
      <trkpt lat="46.18432" lon="6.69506">
        <ele>996</ele>
        <time>2013-06-30T11:29:13Z</time>
      </trkpt>
      <trkpt lat="46.18452" lon="6.69481">
        <ele>1009</ele>
        <time>2013-06-30T11:29:21Z</time>
      </trkpt>
      <trkpt lat="46.18475" lon="6.69461">
        <ele>1010</ele>
        <time>2013-06-30T11:29:29Z</time>
      </trkpt>
      <trkpt lat="46.18493" lon="6.69455">
        <ele>1011</ele>
        <time>2013-06-30T11:29:35Z</time>
      </trkpt>
      <trkpt lat="46.18513" lon="6.69444">
        <ele>1003</ele>
        <time>2013-06-30T11:29:42Z</time>
      </trkpt>
      <trkpt lat="46.18529" lon="6.69436">
        <ele>1002</ele>
        <time>2013-06-30T11:29:48Z</time>
      </trkpt>
      <trkpt lat="46.18546" lon="6.69422">
        <ele>1000</ele>
        <time>2013-06-30T11:29:54Z</time>
      </trkpt>
      <trkpt lat="46.18566" lon="6.69403">
        <ele>1017</ele>
        <time>2013-06-30T11:30:01Z</time>
      </trkpt>
      <trkpt lat="46.18582" lon="6.69391">
        <ele>1019</ele>
        <time>2013-06-30T11:30:06Z</time>
      </trkpt>
      <trkpt lat="46.18587" lon="6.69386">
        <ele>1007</ele>
        <time>2013-06-30T11:30:08Z</time>
      </trkpt>
      <trkpt lat="46.1861" lon="6.69378">
        <ele>1008</ele>
        <time>2013-06-30T11:30:14Z</time>
      </trkpt>
      <trkpt lat="46.18627" lon="6.6937">
        <ele>1007</ele>
        <time>2013-06-30T11:30:18Z</time>
      </trkpt>
      <trkpt lat="46.18643" lon="6.69353">
        <ele>1008</ele>
        <time>2013-06-30T11:30:23Z</time>
      </trkpt>
      <trkpt lat="46.1866" lon="6.69332">
        <ele>1015</ele>
        <time>2013-06-30T11:30:29Z</time>
      </trkpt>
      <trkpt lat="46.18673" lon="6.69314">
        <ele>1012</ele>
        <time>2013-06-30T11:30:34Z</time>
      </trkpt>
      <trkpt lat="46.18688" lon="6.69293">
        <ele>1016</ele>
        <time>2013-06-30T11:30:40Z</time>
      </trkpt>
      <trkpt lat="46.18703" lon="6.69277">
        <ele>1017</ele>
        <time>2013-06-30T11:30:47Z</time>
      </trkpt>
      <trkpt lat="46.18726" lon="6.6926">
        <ele>1015</ele>
        <time>2013-06-30T11:30:55Z</time>
      </trkpt>
      <trkpt lat="46.18749" lon="6.69234">
        <ele>1027</ele>
        <time>2013-06-30T11:31:03Z</time>
      </trkpt>
      <trkpt lat="46.1877" lon="6.69209">
        <ele>1014</ele>
        <time>2013-06-30T11:31:11Z</time>
      </trkpt>
      <trkpt lat="46.18795" lon="6.69184">
        <ele>1013</ele>
        <time>2013-06-30T11:31:20Z</time>
      </trkpt>
      <trkpt lat="46.18815" lon="6.69157">
        <ele>1021</ele>
        <time>2013-06-30T11:31:30Z</time>
      </trkpt>
      <trkpt lat="46.1883" lon="6.6914">
        <ele>1023</ele>
        <time>2013-06-30T11:31:37Z</time>
      </trkpt>
      <trkpt lat="46.18836" lon="6.69126">
        <ele>1010</ele>
        <time>2013-06-30T11:31:41Z</time>
      </trkpt>
      <trkpt lat="46.18834" lon="6.69106">
        <ele>1016</ele>
        <time>2013-06-30T11:31:46Z</time>
      </trkpt>
      <trkpt lat="46.1884" lon="6.69088">
        <ele>1022</ele>
        <time>2013-06-30T11:31:50Z</time>
      </trkpt>
      <trkpt lat="46.18849" lon="6.69069">
        <ele>1031</ele>
        <time>2013-06-30T11:31:56Z</time>
      </trkpt>
      <trkpt lat="46.18868" lon="6.69056">
        <ele>1031</ele>
        <time>2013-06-30T11:32:03Z</time>
      </trkpt>
      <trkpt lat="46.18889" lon="6.69046">
        <ele>1031</ele>
        <time>2013-06-30T11:32:09Z</time>
      </trkpt>
      <trkpt lat="46.18905" lon="6.69032">
        <ele>1032</ele>
        <time>2013-06-30T11:32:14Z</time>
      </trkpt>
      <trkpt lat="46.18915" lon="6.69016">
        <ele>1035</ele>
        <time>2013-06-30T11:32:20Z</time>
      </trkpt>
      <trkpt lat="46.18933" lon="6.68995">
        <ele>1037</ele>
        <time>2013-06-30T11:32:27Z</time>
      </trkpt>
      <trkpt lat="46.18951" lon="6.68976">
        <ele>1035</ele>
        <time>2013-06-30T11:32:33Z</time>
      </trkpt>
      <trkpt lat="46.18975" lon="6.68951">
        <ele>1034</ele>
        <time>2013-06-30T11:32:41Z</time>
      </trkpt>
      <trkpt lat="46.18989" lon="6.68928">
        <ele>1035</ele>
        <time>2013-06-30T11:32:49Z</time>
      </trkpt>
      <trkpt lat="46.18998" lon="6.68912">
        <ele>1039</ele>
        <time>2013-06-30T11:32:55Z</time>
      </trkpt>
      <trkpt lat="46.19011" lon="6.68894">
        <ele>1032</ele>
        <time>2013-06-30T11:33:02Z</time>
      </trkpt>
      <trkpt lat="46.19023" lon="6.68881">
        <ele>1032</ele>
        <time>2013-06-30T11:33:07Z</time>
      </trkpt>
      <trkpt lat="46.19034" lon="6.68863">
        <ele>1033</ele>
        <time>2013-06-30T11:33:13Z</time>
      </trkpt>
      <trkpt lat="46.19042" lon="6.68847">
        <ele>1033</ele>
        <time>2013-06-30T11:33:19Z</time>
      </trkpt>
      <trkpt lat="46.19051" lon="6.68826">
        <ele>1046</ele>
        <time>2013-06-30T11:33:26Z</time>
      </trkpt>
      <trkpt lat="46.1906" lon="6.68808">
        <ele>1046</ele>
        <time>2013-06-30T11:33:32Z</time>
      </trkpt>
      <trkpt lat="46.19073" lon="6.68788">
        <ele>1047</ele>
        <time>2013-06-30T11:33:39Z</time>
      </trkpt>
      <trkpt lat="46.19075" lon="6.68772">
        <ele>1048</ele>
        <time>2013-06-30T11:33:45Z</time>
      </trkpt>
      <trkpt lat="46.19082" lon="6.68747">
        <ele>1045</ele>
        <time>2013-06-30T11:33:53Z</time>
      </trkpt>
      <trkpt lat="46.19084" lon="6.68732">
        <ele>1033</ele>
        <time>2013-06-30T11:33:57Z</time>
      </trkpt>
      <trkpt lat="46.19081" lon="6.6871">
        <ele>1058</ele>
        <time>2013-06-30T11:34:03Z</time>
      </trkpt>
      <trkpt lat="46.1908" lon="6.6868">
        <ele>1054</ele>
        <time>2013-06-30T11:34:10Z</time>
      </trkpt>
      <trkpt lat="46.19079" lon="6.68661">
        <ele>1051</ele>
        <time>2013-06-30T11:34:15Z</time>
      </trkpt>
      <trkpt lat="46.19072" lon="6.68637">
        <ele>1057</ele>
        <time>2013-06-30T11:34:22Z</time>
      </trkpt>
      <trkpt lat="46.19066" lon="6.6861">
        <ele>1056</ele>
        <time>2013-06-30T11:34:29Z</time>
      </trkpt>
      <trkpt lat="46.19061" lon="6.68587">
        <ele>1054</ele>
        <time>2013-06-30T11:34:36Z</time>
      </trkpt>
      <trkpt lat="46.19061" lon="6.6857">
        <ele>1046</ele>
        <time>2013-06-30T11:34:41Z</time>
      </trkpt>
      <trkpt lat="46.19054" lon="6.68557">
        <ele>1046</ele>
        <time>2013-06-30T11:34:47Z</time>
      </trkpt>
      <trkpt lat="46.19047" lon="6.68545">
        <ele>1047</ele>
        <time>2013-06-30T11:34:53Z</time>
      </trkpt>
      <trkpt lat="46.19039" lon="6.68536">
        <ele>1047</ele>
        <time>2013-06-30T11:34:58Z</time>
      </trkpt>
      <trkpt lat="46.19031" lon="6.68524">
        <ele>1047</ele>
        <time>2013-06-30T11:35:04Z</time>
      </trkpt>
      <trkpt lat="46.19015" lon="6.68508">
        <ele>1050</ele>
        <time>2013-06-30T11:35:10Z</time>
      </trkpt>
      <trkpt lat="46.19008" lon="6.68496">
        <ele>1044</ele>
        <time>2013-06-30T11:35:15Z</time>
      </trkpt>
      <trkpt lat="46.18996" lon="6.68482">
        <ele>1052</ele>
        <time>2013-06-30T11:35:20Z</time>
      </trkpt>
      <trkpt lat="46.18982" lon="6.68471">
        <ele>1052</ele>
        <time>2013-06-30T11:35:26Z</time>
      </trkpt>
      <trkpt lat="46.18958" lon="6.68457">
        <ele>1054</ele>
        <time>2013-06-30T11:35:33Z</time>
      </trkpt>
      <trkpt lat="46.18938" lon="6.68443">
        <ele>1054</ele>
        <time>2013-06-30T11:35:40Z</time>
      </trkpt>
      <trkpt lat="46.18922" lon="6.68429">
        <ele>1054</ele>
        <time>2013-06-30T11:35:48Z</time>
      </trkpt>
      <trkpt lat="46.18912" lon="6.6842">
        <ele>1060</ele>
        <time>2013-06-30T11:35:53Z</time>
      </trkpt>
      <trkpt lat="46.18904" lon="6.68416">
        <ele>1055</ele>
        <time>2013-06-30T11:35:57Z</time>
      </trkpt>
      <trkpt lat="46.18891" lon="6.68409">
        <ele>1056</ele>
        <time>2013-06-30T11:36:02Z</time>
      </trkpt>
      <trkpt lat="46.18873" lon="6.68397">
        <ele>1058</ele>
        <time>2013-06-30T11:36:08Z</time>
      </trkpt>
      <trkpt lat="46.18856" lon="6.68386">
        <ele>1060</ele>
        <time>2013-06-30T11:36:14Z</time>
      </trkpt>
      <trkpt lat="46.18843" lon="6.68374">
        <ele>1059</ele>
        <time>2013-06-30T11:36:20Z</time>
      </trkpt>
      <trkpt lat="46.18837" lon="6.68369">
        <ele>1058</ele>
        <time>2013-06-30T11:36:24Z</time>
      </trkpt>
      <trkpt lat="46.18826" lon="6.68362">
        <ele>1071</ele>
        <time>2013-06-30T11:36:29Z</time>
      </trkpt>
      <trkpt lat="46.18815" lon="6.68354">
        <ele>1070</ele>
        <time>2013-06-30T11:36:33Z</time>
      </trkpt>
      <trkpt lat="46.18809" lon="6.68348">
        <ele>1070</ele>
        <time>2013-06-30T11:36:37Z</time>
      </trkpt>
      <trkpt lat="46.18794" lon="6.68336">
        <ele>1072</ele>
        <time>2013-06-30T11:36:43Z</time>
      </trkpt>
      <trkpt lat="46.18782" lon="6.68319">
        <ele>1057</ele>
        <time>2013-06-30T11:36:50Z</time>
      </trkpt>
      <trkpt lat="46.18769" lon="6.68302">
        <ele>1056</ele>
        <time>2013-06-30T11:36:56Z</time>
      </trkpt>
      <trkpt lat="46.18747" lon="6.68282">
        <ele>1064</ele>
        <time>2013-06-30T11:37:04Z</time>
      </trkpt>
      <trkpt lat="46.1872" lon="6.68274">
        <ele>1065</ele>
        <time>2013-06-30T11:37:13Z</time>
      </trkpt>
      <trkpt lat="46.18689" lon="6.68267">
        <ele>1067</ele>
        <time>2013-06-30T11:37:22Z</time>
      </trkpt>
      <trkpt lat="46.18655" lon="6.68256">
        <ele>1071</ele>
        <time>2013-06-30T11:37:34Z</time>
      </trkpt>
      <trkpt lat="46.18627" lon="6.6825">
        <ele>1061</ele>
        <time>2013-06-30T11:37:44Z</time>
      </trkpt>
      <trkpt lat="46.18597" lon="6.6825">
        <ele>1078</ele>
        <time>2013-06-30T11:37:55Z</time>
      </trkpt>
      <trkpt lat="46.18571" lon="6.6825">
        <ele>1073</ele>
        <time>2013-06-30T11:38:05Z</time>
      </trkpt>
      <trkpt lat="46.18551" lon="6.68243">
        <ele>1074</ele>
        <time>2013-06-30T11:38:13Z</time>
      </trkpt>
      <trkpt lat="46.1853" lon="6.6823">
        <ele>1077</ele>
        <time>2013-06-30T11:38:22Z</time>
      </trkpt>
      <trkpt lat="46.18503" lon="6.6821">
        <ele>1075</ele>
        <time>2013-06-30T11:38:33Z</time>
      </trkpt>
      <trkpt lat="46.1848" lon="6.68197">
        <ele>1087</ele>
        <time>2013-06-30T11:38:41Z</time>
      </trkpt>
      <trkpt lat="46.18461" lon="6.68183">
        <ele>1089</ele>
        <time>2013-06-30T11:38:49Z</time>
      </trkpt>
      <trkpt lat="46.18435" lon="6.68166">
        <ele>1079</ele>
        <time>2013-06-30T11:38:59Z</time>
      </trkpt>
      <trkpt lat="46.18418" lon="6.68158">
        <ele>1084</ele>
        <time>2013-06-30T11:39:06Z</time>
      </trkpt>
      <trkpt lat="46.18409" lon="6.68154">
        <ele>1085</ele>
        <time>2013-06-30T11:39:11Z</time>
      </trkpt>
      <trkpt lat="46.18395" lon="6.68151">
        <ele>1083</ele>
        <time>2013-06-30T11:39:16Z</time>
      </trkpt>
      <trkpt lat="46.18383" lon="6.68148">
        <ele>1082</ele>
        <time>2013-06-30T11:39:20Z</time>
      </trkpt>
      <trkpt lat="46.18357" lon="6.68143">
        <ele>1082</ele>
        <time>2013-06-30T11:39:29Z</time>
      </trkpt>
      <trkpt lat="46.18344" lon="6.68141">
        <ele>1083</ele>
        <time>2013-06-30T11:39:34Z</time>
      </trkpt>
      <trkpt lat="46.18328" lon="6.68143">
        <ele>1083</ele>
        <time>2013-06-30T11:39:41Z</time>
      </trkpt>
      <trkpt lat="46.18313" lon="6.68145">
        <ele>1082</ele>
        <time>2013-06-30T11:39:47Z</time>
      </trkpt>
      <trkpt lat="46.18306" lon="6.68146">
        <ele>1081</ele>
        <time>2013-06-30T11:39:51Z</time>
      </trkpt>
      <trkpt lat="46.18293" lon="6.68151">
        <ele>1080</ele>
        <time>2013-06-30T11:39:56Z</time>
      </trkpt>
      <trkpt lat="46.18278" lon="6.68158">
        <ele>1080</ele>
        <time>2013-06-30T11:40:01Z</time>
      </trkpt>
      <trkpt lat="46.18256" lon="6.68173">
        <ele>1085</ele>
        <time>2013-06-30T11:40:09Z</time>
      </trkpt>
      <trkpt lat="46.18232" lon="6.68193">
        <ele>1086</ele>
        <time>2013-06-30T11:40:19Z</time>
      </trkpt>
      <trkpt lat="46.18216" lon="6.68209">
        <ele>1087</ele>
        <time>2013-06-30T11:40:26Z</time>
      </trkpt>
      <trkpt lat="46.182" lon="6.68229">
        <ele>1088</ele>
        <time>2013-06-30T11:40:34Z</time>
      </trkpt>
      <trkpt lat="46.18183" lon="6.68242">
        <ele>1089</ele>
        <time>2013-06-30T11:40:42Z</time>
      </trkpt>
      <trkpt lat="46.18168" lon="6.68245">
        <ele>1090</ele>
        <time>2013-06-30T11:40:49Z</time>
      </trkpt>
      <trkpt lat="46.18167" lon="6.68246">
        <ele>1090</ele>
        <time>2013-06-30T11:40:53Z</time>
      </trkpt>
      <trkpt lat="46.18169" lon="6.68246">
        <ele>1090</ele>
        <time>2013-06-30T11:41:55Z</time>
      </trkpt>
      <trkpt lat="46.18166" lon="6.68247">
        <ele>1090</ele>
        <time>2013-06-30T11:42:03Z</time>
      </trkpt>
      <trkpt lat="46.18164" lon="6.68249">
        <ele>1090</ele>
        <time>2013-06-30T11:42:09Z</time>
      </trkpt>
      <trkpt lat="46.18163" lon="6.6825">
        <ele>1090</ele>
        <time>2013-06-30T11:42:16Z</time>
      </trkpt>
      <trkpt lat="46.18162" lon="6.6825">
        <ele>1090</ele>
        <time>2013-06-30T11:42:17Z</time>
      </trkpt>
      <trkpt lat="46.18156" lon="6.68253">
        <ele>1093</ele>
        <time>2013-06-30T11:42:21Z</time>
      </trkpt>
      <trkpt lat="46.1813" lon="6.68272">
        <ele>1095</ele>
        <time>2013-06-30T11:42:31Z</time>
      </trkpt>
      <trkpt lat="46.18112" lon="6.68286">
        <ele>1096</ele>
        <time>2013-06-30T11:42:39Z</time>
      </trkpt>
      <trkpt lat="46.18095" lon="6.68292">
        <ele>1096</ele>
        <time>2013-06-30T11:42:46Z</time>
      </trkpt>
      <trkpt lat="46.18071" lon="6.68293">
        <ele>1096</ele>
        <time>2013-06-30T11:42:56Z</time>
      </trkpt>
      <trkpt lat="46.18047" lon="6.68298">
        <ele>1096</ele>
        <time>2013-06-30T11:43:06Z</time>
      </trkpt>
      <trkpt lat="46.1803" lon="6.68308">
        <ele>1096</ele>
        <time>2013-06-30T11:43:14Z</time>
      </trkpt>
      <trkpt lat="46.18013" lon="6.6832">
        <ele>1098</ele>
        <time>2013-06-30T11:43:21Z</time>
      </trkpt>
      <trkpt lat="46.17994" lon="6.6833">
        <ele>1099</ele>
        <time>2013-06-30T11:43:29Z</time>
      </trkpt>
      <trkpt lat="46.17972" lon="6.68336">
        <ele>1107</ele>
        <time>2013-06-30T11:43:38Z</time>
      </trkpt>
      <trkpt lat="46.17951" lon="6.68338">
        <ele>1109</ele>
        <time>2013-06-30T11:43:46Z</time>
      </trkpt>
      <trkpt lat="46.17931" lon="6.68334">
        <ele>1108</ele>
        <time>2013-06-30T11:43:54Z</time>
      </trkpt>
      <trkpt lat="46.1791" lon="6.68325">
        <ele>1105</ele>
        <time>2013-06-30T11:44:02Z</time>
      </trkpt>
      <trkpt lat="46.17888" lon="6.68316">
        <ele>1107</ele>
        <time>2013-06-30T11:44:11Z</time>
      </trkpt>
      <trkpt lat="46.17865" lon="6.68319">
        <ele>1109</ele>
        <time>2013-06-30T11:44:20Z</time>
      </trkpt>
      <trkpt lat="46.17848" lon="6.68322">
        <ele>1113</ele>
        <time>2013-06-30T11:44:27Z</time>
      </trkpt>
      <trkpt lat="46.17836" lon="6.6832">
        <ele>1114</ele>
        <time>2013-06-30T11:44:33Z</time>
      </trkpt>
      <trkpt lat="46.17813" lon="6.68315">
        <ele>1124</ele>
        <time>2013-06-30T11:44:41Z</time>
      </trkpt>
      <trkpt lat="46.1779" lon="6.68303">
        <ele>1127</ele>
        <time>2013-06-30T11:44:50Z</time>
      </trkpt>
      <trkpt lat="46.17778" lon="6.68289">
        <ele>1127</ele>
        <time>2013-06-30T11:44:57Z</time>
      </trkpt>
      <trkpt lat="46.17761" lon="6.68275">
        <ele>1127</ele>
        <time>2013-06-30T11:45:05Z</time>
      </trkpt>
      <trkpt lat="46.17746" lon="6.68267">
        <ele>1136</ele>
        <time>2013-06-30T11:45:11Z</time>
      </trkpt>
      <trkpt lat="46.17729" lon="6.68254">
        <ele>1137</ele>
        <time>2013-06-30T11:45:18Z</time>
      </trkpt>
      <trkpt lat="46.17712" lon="6.68232">
        <ele>1126</ele>
        <time>2013-06-30T11:45:27Z</time>
      </trkpt>
      <trkpt lat="46.17698" lon="6.6821">
        <ele>1125</ele>
        <time>2013-06-30T11:45:35Z</time>
      </trkpt>
      <trkpt lat="46.17685" lon="6.68189">
        <ele>1122</ele>
        <time>2013-06-30T11:45:42Z</time>
      </trkpt>
      <trkpt lat="46.17672" lon="6.6817">
        <ele>1119</ele>
        <time>2013-06-30T11:45:49Z</time>
      </trkpt>
      <trkpt lat="46.17658" lon="6.68149">
        <ele>1115</ele>
        <time>2013-06-30T11:45:57Z</time>
      </trkpt>
      <trkpt lat="46.1764" lon="6.6813">
        <ele>1113</ele>
        <time>2013-06-30T11:46:04Z</time>
      </trkpt>
      <trkpt lat="46.17617" lon="6.68122">
        <ele>1113</ele>
        <time>2013-06-30T11:46:10Z</time>
      </trkpt>
      <trkpt lat="46.1759" lon="6.6813">
        <ele>1115</ele>
        <time>2013-06-30T11:46:17Z</time>
      </trkpt>
      <trkpt lat="46.17563" lon="6.68148">
        <ele>1122</ele>
        <time>2013-06-30T11:46:24Z</time>
      </trkpt>
      <trkpt lat="46.17536" lon="6.6815">
        <ele>1124</ele>
        <time>2013-06-30T11:46:30Z</time>
      </trkpt>
      <trkpt lat="46.175" lon="6.6814">
        <ele>1134</ele>
        <time>2013-06-30T11:46:39Z</time>
      </trkpt>
      <trkpt lat="46.17461" lon="6.68127">
        <ele>1135</ele>
        <time>2013-06-30T11:46:49Z</time>
      </trkpt>
      <trkpt lat="46.1744" lon="6.6812">
        <ele>1136</ele>
        <time>2013-06-30T11:46:55Z</time>
      </trkpt>
      <trkpt lat="46.17424" lon="6.68108">
        <ele>1133</ele>
        <time>2013-06-30T11:47:00Z</time>
      </trkpt>
      <trkpt lat="46.174" lon="6.68079">
        <ele>1125</ele>
        <time>2013-06-30T11:47:08Z</time>
      </trkpt>
      <trkpt lat="46.17384" lon="6.68071">
        <ele>1125</ele>
        <time>2013-06-30T11:47:12Z</time>
      </trkpt>
      <trkpt lat="46.17354" lon="6.68067">
        <ele>1128</ele>
        <time>2013-06-30T11:47:19Z</time>
      </trkpt>
      <trkpt lat="46.17314" lon="6.68065">
        <ele>1136</ele>
        <time>2013-06-30T11:47:28Z</time>
      </trkpt>
      <trkpt lat="46.17277" lon="6.68057">
        <ele>1138</ele>
        <time>2013-06-30T11:47:37Z</time>
      </trkpt>
      <trkpt lat="46.17247" lon="6.68039">
        <ele>1148</ele>
        <time>2013-06-30T11:47:45Z</time>
      </trkpt>
      <trkpt lat="46.17222" lon="6.68016">
        <ele>1147</ele>
        <time>2013-06-30T11:47:53Z</time>
      </trkpt>
      <trkpt lat="46.17205" lon="6.67996">
        <ele>1134</ele>
        <time>2013-06-30T11:47:59Z</time>
      </trkpt>
      <trkpt lat="46.17187" lon="6.67972">
        <ele>1134</ele>
        <time>2013-06-30T11:48:06Z</time>
      </trkpt>
      <trkpt lat="46.17162" lon="6.67944">
        <ele>1143</ele>
        <time>2013-06-30T11:48:14Z</time>
      </trkpt>
      <trkpt lat="46.17132" lon="6.67913">
        <ele>1131</ele>
        <time>2013-06-30T11:48:23Z</time>
      </trkpt>
      <trkpt lat="46.17101" lon="6.67885">
        <ele>1133</ele>
        <time>2013-06-30T11:48:32Z</time>
      </trkpt>
      <trkpt lat="46.17062" lon="6.6786">
        <ele>1139</ele>
        <time>2013-06-30T11:48:42Z</time>
      </trkpt>
      <trkpt lat="46.17054" lon="6.67856">
        <ele>1139</ele>
        <time>2013-06-30T11:48:44Z</time>
      </trkpt>
      <trkpt lat="46.17026" lon="6.67843">
        <ele>1141</ele>
        <time>2013-06-30T11:48:51Z</time>
      </trkpt>
      <trkpt lat="46.16988" lon="6.67837">
        <ele>1147</ele>
        <time>2013-06-30T11:49:00Z</time>
      </trkpt>
      <trkpt lat="46.16954" lon="6.67826">
        <ele>1138</ele>
        <time>2013-06-30T11:49:09Z</time>
      </trkpt>
      <trkpt lat="46.16926" lon="6.67807">
        <ele>1139</ele>
        <time>2013-06-30T11:49:17Z</time>
      </trkpt>
      <trkpt lat="46.16885" lon="6.67773">
        <ele>1144</ele>
        <time>2013-06-30T11:49:29Z</time>
      </trkpt>
      <trkpt lat="46.16847" lon="6.67748">
        <ele>1135</ele>
        <time>2013-06-30T11:49:39Z</time>
      </trkpt>
      <trkpt lat="46.16809" lon="6.67727">
        <ele>1144</ele>
        <time>2013-06-30T11:49:49Z</time>
      </trkpt>
      <trkpt lat="46.16777" lon="6.67707">
        <ele>1145</ele>
        <time>2013-06-30T11:49:57Z</time>
      </trkpt>
      <trkpt lat="46.16747" lon="6.6769">
        <ele>1153</ele>
        <time>2013-06-30T11:50:05Z</time>
      </trkpt>
      <trkpt lat="46.16718" lon="6.67667">
        <ele>1154</ele>
        <time>2013-06-30T11:50:14Z</time>
      </trkpt>
      <trkpt lat="46.16694" lon="6.67653">
        <ele>1141</ele>
        <time>2013-06-30T11:50:22Z</time>
      </trkpt>
      <trkpt lat="46.16668" lon="6.67641">
        <ele>1142</ele>
        <time>2013-06-30T11:50:31Z</time>
      </trkpt>
      <trkpt lat="46.16642" lon="6.67631">
        <ele>1151</ele>
        <time>2013-06-30T11:50:41Z</time>
      </trkpt>
      <trkpt lat="46.16619" lon="6.6762">
        <ele>1152</ele>
        <time>2013-06-30T11:50:50Z</time>
      </trkpt>
      <trkpt lat="46.16592" lon="6.67595">
        <ele>1148</ele>
        <time>2013-06-30T11:51:02Z</time>
      </trkpt>
      <trkpt lat="46.16575" lon="6.67575">
        <ele>1146</ele>
        <time>2013-06-30T11:51:10Z</time>
      </trkpt>
      <trkpt lat="46.16553" lon="6.67555">
        <ele>1148</ele>
        <time>2013-06-30T11:51:20Z</time>
      </trkpt>
      <trkpt lat="46.16536" lon="6.67544">
        <ele>1149</ele>
        <time>2013-06-30T11:51:27Z</time>
      </trkpt>
      <trkpt lat="46.16515" lon="6.6753">
        <ele>1149</ele>
        <time>2013-06-30T11:51:36Z</time>
      </trkpt>
      <trkpt lat="46.16493" lon="6.6752">
        <ele>1155</ele>
        <time>2013-06-30T11:51:45Z</time>
      </trkpt>
      <trkpt lat="46.16476" lon="6.67509">
        <ele>1156</ele>
        <time>2013-06-30T11:51:52Z</time>
      </trkpt>
      <trkpt lat="46.16448" lon="6.67494">
        <ele>1149</ele>
        <time>2013-06-30T11:52:03Z</time>
      </trkpt>
      <trkpt lat="46.1643" lon="6.67481">
        <ele>1150</ele>
        <time>2013-06-30T11:52:11Z</time>
      </trkpt>
      <trkpt lat="46.16403" lon="6.67463">
        <ele>1159</ele>
        <time>2013-06-30T11:52:22Z</time>
      </trkpt>
      <trkpt lat="46.16382" lon="6.67447">
        <ele>1159</ele>
        <time>2013-06-30T11:52:31Z</time>
      </trkpt>
      <trkpt lat="46.1636" lon="6.67432">
        <ele>1161</ele>
        <time>2013-06-30T11:52:40Z</time>
      </trkpt>
      <trkpt lat="46.16343" lon="6.67415">
        <ele>1158</ele>
        <time>2013-06-30T11:52:48Z</time>
      </trkpt>
      <trkpt lat="46.16321" lon="6.67394">
        <ele>1161</ele>
        <time>2013-06-30T11:52:57Z</time>
      </trkpt>
      <trkpt lat="46.163" lon="6.67374">
        <ele>1161</ele>
        <time>2013-06-30T11:53:06Z</time>
      </trkpt>
      <trkpt lat="46.16279" lon="6.67355">
        <ele>1160</ele>
        <time>2013-06-30T11:53:15Z</time>
      </trkpt>
      <trkpt lat="46.16262" lon="6.67341">
        <ele>1159</ele>
        <time>2013-06-30T11:53:22Z</time>
      </trkpt>
      <trkpt lat="46.1624" lon="6.67333">
        <ele>1158</ele>
        <time>2013-06-30T11:53:30Z</time>
      </trkpt>
      <trkpt lat="46.16206" lon="6.67329">
        <ele>1159</ele>
        <time>2013-06-30T11:53:42Z</time>
      </trkpt>
      <trkpt lat="46.16182" lon="6.67321">
        <ele>1161</ele>
        <time>2013-06-30T11:53:50Z</time>
      </trkpt>
      <trkpt lat="46.16159" lon="6.67301">
        <ele>1166</ele>
        <time>2013-06-30T11:53:58Z</time>
      </trkpt>
      <trkpt lat="46.16137" lon="6.67275">
        <ele>1167</ele>
        <time>2013-06-30T11:54:06Z</time>
      </trkpt>
      <trkpt lat="46.16117" lon="6.67243">
        <ele>1165</ele>
        <time>2013-06-30T11:54:14Z</time>
      </trkpt>
      <trkpt lat="46.16105" lon="6.67213">
        <ele>1165</ele>
        <time>2013-06-30T11:54:22Z</time>
      </trkpt>
      <trkpt lat="46.16097" lon="6.67197">
        <ele>1164</ele>
        <time>2013-06-30T11:54:27Z</time>
      </trkpt>
      <trkpt lat="46.16082" lon="6.67187">
        <ele>1166</ele>
        <time>2013-06-30T11:54:33Z</time>
      </trkpt>
      <trkpt lat="46.16068" lon="6.67161">
        <ele>1164</ele>
        <time>2013-06-30T11:54:41Z</time>
      </trkpt>
      <trkpt lat="46.16049" lon="6.67125">
        <ele>1164</ele>
        <time>2013-06-30T11:54:52Z</time>
      </trkpt>
      <trkpt lat="46.16034" lon="6.67099">
        <ele>1164</ele>
        <time>2013-06-30T11:55:00Z</time>
      </trkpt>
      <trkpt lat="46.1602" lon="6.67072">
        <ele>1164</ele>
        <time>2013-06-30T11:55:08Z</time>
      </trkpt>
      <trkpt lat="46.16002" lon="6.67044">
        <ele>1164</ele>
        <time>2013-06-30T11:55:17Z</time>
      </trkpt>
      <trkpt lat="46.15984" lon="6.67021">
        <ele>1165</ele>
        <time>2013-06-30T11:55:25Z</time>
      </trkpt>
      <trkpt lat="46.15968" lon="6.67003">
        <ele>1165</ele>
        <time>2013-06-30T11:55:32Z</time>
      </trkpt>
      <trkpt lat="46.1595" lon="6.66983">
        <ele>1165</ele>
        <time>2013-06-30T11:55:39Z</time>
      </trkpt>
      <trkpt lat="46.15933" lon="6.66964">
        <ele>1165</ele>
        <time>2013-06-30T11:55:46Z</time>
      </trkpt>
      <trkpt lat="46.15916" lon="6.66943">
        <ele>1166</ele>
        <time>2013-06-30T11:55:53Z</time>
      </trkpt>
      <trkpt lat="46.15897" lon="6.66923">
        <ele>1167</ele>
        <time>2013-06-30T11:56:00Z</time>
      </trkpt>
      <trkpt lat="46.15877" lon="6.66903">
        <ele>1166</ele>
        <time>2013-06-30T11:56:07Z</time>
      </trkpt>
      <trkpt lat="46.15861" lon="6.66885">
        <ele>1166</ele>
        <time>2013-06-30T11:56:13Z</time>
      </trkpt>
      <trkpt lat="46.15842" lon="6.6687">
        <ele>1166</ele>
        <time>2013-06-30T11:56:20Z</time>
      </trkpt>
      <trkpt lat="46.15828" lon="6.66854">
        <ele>1165</ele>
        <time>2013-06-30T11:56:26Z</time>
      </trkpt>
      <trkpt lat="46.15809" lon="6.66833">
        <ele>1165</ele>
        <time>2013-06-30T11:56:33Z</time>
      </trkpt>
      <trkpt lat="46.15792" lon="6.66814">
        <ele>1165</ele>
        <time>2013-06-30T11:56:40Z</time>
      </trkpt>
      <trkpt lat="46.15775" lon="6.66789">
        <ele>1165</ele>
        <time>2013-06-30T11:56:47Z</time>
      </trkpt>
      <trkpt lat="46.15766" lon="6.66777">
        <ele>1165</ele>
        <time>2013-06-30T11:56:52Z</time>
      </trkpt>
      <trkpt lat="46.15758" lon="6.66764">
        <ele>1165</ele>
        <time>2013-06-30T11:56:56Z</time>
      </trkpt>
      <trkpt lat="46.15754" lon="6.66753">
        <ele>1165</ele>
        <time>2013-06-30T11:57:00Z</time>
      </trkpt>
      <trkpt lat="46.15746" lon="6.66763">
        <ele>1166</ele>
        <time>2013-06-30T11:57:05Z</time>
      </trkpt>
      <trkpt lat="46.15732" lon="6.66787">
        <ele>1167</ele>
        <time>2013-06-30T11:57:13Z</time>
      </trkpt>
      <trkpt lat="46.15718" lon="6.66803">
        <ele>1167</ele>
        <time>2013-06-30T11:57:18Z</time>
      </trkpt>
      <trkpt lat="46.15704" lon="6.66818">
        <ele>1168</ele>
        <time>2013-06-30T11:57:23Z</time>
      </trkpt>
      <trkpt lat="46.15692" lon="6.6681">
        <ele>1168</ele>
        <time>2013-06-30T11:57:28Z</time>
      </trkpt>
      <trkpt lat="46.15673" lon="6.66791">
        <ele>1168</ele>
        <time>2013-06-30T11:57:35Z</time>
      </trkpt>
      <trkpt lat="46.15659" lon="6.66777">
        <ele>1172</ele>
        <time>2013-06-30T11:57:41Z</time>
      </trkpt>
      <trkpt lat="46.15646" lon="6.66748">
        <ele>1170</ele>
        <time>2013-06-30T11:57:48Z</time>
      </trkpt>
      <trkpt lat="46.15631" lon="6.66723">
        <ele>1171</ele>
        <time>2013-06-30T11:57:55Z</time>
      </trkpt>
      <trkpt lat="46.1562" lon="6.66703">
        <ele>1170</ele>
        <time>2013-06-30T11:58:01Z</time>
      </trkpt>
      <trkpt lat="46.15618" lon="6.66698">
        <ele>1170</ele>
        <time>2013-06-30T11:58:06Z</time>
      </trkpt>
      <trkpt lat="46.15615" lon="6.66692">
        <ele>1170</ele>
        <time>2013-06-30T11:58:56Z</time>
      </trkpt>
      <trkpt lat="46.15612" lon="6.66686">
        <ele>1170</ele>
        <time>2013-06-30T11:59:29Z</time>
      </trkpt>
      <trkpt lat="46.15619" lon="6.66707">
        <ele>1171</ele>
        <time>2013-06-30T11:59:37Z</time>
      </trkpt>
      <trkpt lat="46.15628" lon="6.66719">
        <ele>1171</ele>
        <time>2013-06-30T11:59:43Z</time>
      </trkpt>
      <trkpt lat="46.15635" lon="6.6673">
        <ele>1171</ele>
        <time>2013-06-30T11:59:49Z</time>
      </trkpt>
      <trkpt lat="46.15636" lon="6.66732">
        <ele>1171</ele>
        <time>2013-06-30T11:59:50Z</time>
      </trkpt>
      <trkpt lat="46.15641" lon="6.66743">
        <ele>1170</ele>
        <time>2013-06-30T11:59:55Z</time>
      </trkpt>
      <trkpt lat="46.1564" lon="6.66752">
        <ele>1173</ele>
        <time>2013-06-30T11:59:58Z</time>
      </trkpt>
      <trkpt lat="46.15638" lon="6.66757">
        <ele>1173</ele>
        <time>2013-06-30T12:00:00Z</time>
      </trkpt>
      <trkpt lat="46.15642" lon="6.66777">
        <ele>1173</ele>
        <time>2013-06-30T12:00:08Z</time>
      </trkpt>
      <trkpt lat="46.15648" lon="6.6679">
        <ele>1174</ele>
        <time>2013-06-30T12:00:14Z</time>
      </trkpt>
      <trkpt lat="46.15656" lon="6.66803">
        <ele>1173</ele>
        <time>2013-06-30T12:00:20Z</time>
      </trkpt>
      <trkpt lat="46.15661" lon="6.66818">
        <ele>1173</ele>
        <time>2013-06-30T12:00:26Z</time>
      </trkpt>
      <trkpt lat="46.15662" lon="6.66831">
        <ele>1172</ele>
        <time>2013-06-30T12:00:32Z</time>
      </trkpt>
      <trkpt lat="46.15662" lon="6.6683">
        <ele>1172</ele>
        <time>2013-06-30T12:00:41Z</time>
      </trkpt>
      <trkpt lat="46.15661" lon="6.6683">
        <ele>1172</ele>
        <time>2013-06-30T12:00:46Z</time>
      </trkpt>
      <trkpt lat="46.15664" lon="6.66828">
        <ele>1172</ele>
        <time>2013-06-30T12:01:03Z</time>
      </trkpt>
      <trkpt lat="46.15661" lon="6.66829">
        <ele>1172</ele>
        <time>2013-06-30T12:01:18Z</time>
      </trkpt>
      <trkpt lat="46.15658" lon="6.66821">
        <ele>1173</ele>
        <time>2013-06-30T12:02:03Z</time>
      </trkpt>
      <trkpt lat="46.15662" lon="6.6683">
        <ele>1172</ele>
        <time>2013-06-30T12:03:58Z</time>
      </trkpt>
      <trkpt lat="46.15654" lon="6.6683">
        <ele>1173</ele>
        <time>2013-06-30T12:04:53Z</time>
      </trkpt>
      <trkpt lat="46.15655" lon="6.66828">
        <ele>1173</ele>
        <time>2013-06-30T12:05:26Z</time>
      </trkpt>
      <trkpt lat="46.15668" lon="6.66836">
        <ele>1171</ele>
        <time>2013-06-30T12:06:08Z</time>
      </trkpt>
      <trkpt lat="46.1567" lon="6.66836">
        <ele>1171</ele>
        <time>2013-06-30T12:06:13Z</time>
      </trkpt>
      <trkpt lat="46.15674" lon="6.66835">
        <ele>1171</ele>
        <time>2013-06-30T12:06:20Z</time>
      </trkpt>
      <trkpt lat="46.15669" lon="6.66833">
        <ele>1171</ele>
        <time>2013-06-30T12:06:41Z</time>
      </trkpt>
      <trkpt lat="46.15675" lon="6.66841">
        <ele>1171</ele>
        <time>2013-06-30T12:06:56Z</time>
      </trkpt>
      <trkpt lat="46.15674" lon="6.66844">
        <ele>1171</ele>
        <time>2013-06-30T12:07:03Z</time>
      </trkpt>
      <trkpt lat="46.15674" lon="6.66838">
        <ele>1171</ele>
        <time>2013-06-30T12:07:10Z</time>
      </trkpt>
      <trkpt lat="46.15673" lon="6.66835">
        <ele>1171</ele>
        <time>2013-06-30T12:07:14Z</time>
      </trkpt>
      <trkpt lat="46.15673" lon="6.66831">
        <ele>1170</ele>
        <time>2013-06-30T12:07:19Z</time>
      </trkpt>
      <trkpt lat="46.15672" lon="6.6683">
        <ele>1170</ele>
        <time>2013-06-30T12:07:24Z</time>
      </trkpt>
      <trkpt lat="46.15669" lon="6.66828">
        <ele>1170</ele>
        <time>2013-06-30T12:07:41Z</time>
      </trkpt>
      <trkpt lat="46.15668" lon="6.66828">
        <ele>1170</ele>
        <time>2013-06-30T12:07:48Z</time>
      </trkpt>
      <trkpt lat="46.15665" lon="6.66826">
        <ele>1172</ele>
        <time>2013-06-30T12:07:52Z</time>
      </trkpt>
      <trkpt lat="46.15661" lon="6.66818">
        <ele>1173</ele>
        <time>2013-06-30T12:07:57Z</time>
      </trkpt>
      <trkpt lat="46.1566" lon="6.66814">
        <ele>1173</ele>
        <time>2013-06-30T12:07:59Z</time>
      </trkpt>
      <trkpt lat="46.1566" lon="6.6681">
        <ele>1173</ele>
        <time>2013-06-30T12:08:01Z</time>
      </trkpt>
      <trkpt lat="46.15657" lon="6.668">
        <ele>1173</ele>
        <time>2013-06-30T12:08:07Z</time>
      </trkpt>
      <trkpt lat="46.15657" lon="6.6679">
        <ele>1173</ele>
        <time>2013-06-30T12:08:15Z</time>
      </trkpt>
      <trkpt lat="46.15654" lon="6.66782">
        <ele>1173</ele>
        <time>2013-06-30T12:08:21Z</time>
      </trkpt>
      <trkpt lat="46.15651" lon="6.66773">
        <ele>1173</ele>
        <time>2013-06-30T12:08:25Z</time>
      </trkpt>
      <trkpt lat="46.15649" lon="6.66768">
        <ele>1173</ele>
        <time>2013-06-30T12:08:27Z</time>
      </trkpt>
      <trkpt lat="46.15647" lon="6.66758">
        <ele>1172</ele>
        <time>2013-06-30T12:08:33Z</time>
      </trkpt>
      <trkpt lat="46.15649" lon="6.66749">
        <ele>1170</ele>
        <time>2013-06-30T12:08:38Z</time>
      </trkpt>
      <trkpt lat="46.15648" lon="6.66739">
        <ele>1170</ele>
        <time>2013-06-30T12:08:43Z</time>
      </trkpt>
      <trkpt lat="46.15642" lon="6.6673">
        <ele>1170</ele>
        <time>2013-06-30T12:08:47Z</time>
      </trkpt>
      <trkpt lat="46.15637" lon="6.66722">
        <ele>1170</ele>
        <time>2013-06-30T12:08:52Z</time>
      </trkpt>
      <trkpt lat="46.15623" lon="6.66708">
        <ele>1171</ele>
        <time>2013-06-30T12:09:01Z</time>
      </trkpt>
      <trkpt lat="46.15621" lon="6.66696">
        <ele>1170</ele>
        <time>2013-06-30T12:09:07Z</time>
      </trkpt>
      <trkpt lat="46.15622" lon="6.66693">
        <ele>1170</ele>
        <time>2013-06-30T12:09:09Z</time>
      </trkpt>
      <trkpt lat="46.1563" lon="6.66682">
        <ele>1169</ele>
        <time>2013-06-30T12:09:16Z</time>
      </trkpt>
      <trkpt lat="46.15634" lon="6.66674">
        <ele>1169</ele>
        <time>2013-06-30T12:09:22Z</time>
      </trkpt>
      <trkpt lat="46.15635" lon="6.6667">
        <ele>1169</ele>
        <time>2013-06-30T12:09:28Z</time>
      </trkpt>
      <trkpt lat="46.15632" lon="6.66666">
        <ele>1166</ele>
        <time>2013-06-30T12:09:34Z</time>
      </trkpt>
      <trkpt lat="46.15633" lon="6.66666">
        <ele>1166</ele>
        <time>2013-06-30T12:09:35Z</time>
      </trkpt>
      <trkpt lat="46.15637" lon="6.66658">
        <ele>1166</ele>
        <time>2013-06-30T12:09:39Z</time>
      </trkpt>
      <trkpt lat="46.15637" lon="6.66652">
        <ele>1166</ele>
        <time>2013-06-30T12:09:44Z</time>
      </trkpt>
      <trkpt lat="46.15636" lon="6.66653">
        <ele>1166</ele>
        <time>2013-06-30T12:09:47Z</time>
      </trkpt>
    </trkseg>
  </trk>
</gpx>